[[{"header":{"parameterUnit":"m.s-1","parameterCategory":1,"la1":30.6,"la2":28.766,"lo1":-90.7593,"lo2":-88.6598,"dy":0.0162,"dx":0.0183,"nx":116,"ny":114,"refTime":"2024-03-31T06:00:00:Z","depth":0,"parameterNumber":2,"parameterNumberName":"U-component_of_WINDS"},"data":[0.0,0.0,0.0,0.0,0.0,0.0,0.0,0.0,0.0,0.0,0.0,0.0,0.0,0.0,0.0,0.0,0.0,0.0,0.0,0.0,0.0,0.0,0.0,0.0,0.0,0.0,0.0,0.0,0.0,0.0,0.0,0.0,0.0,0.0,0.0,0.0,0.0,0.0,0.0,0.0,0.0,0.0,0.0,0.0,0.0,0.0,0.0,0.0,0.0,0.0,0.0,0.0,0.0,0.0,0.0,0.0,0.0,0.0,0.0,0.0,0.0,0.0,0.0,0.0,0.0,0.0,0.0,0.0,0.0,0.0,0.0,0.0,0.0,0.0,0.0,0.0,0.0,0.0,0.0,0.0,0.0,0.0,0.0,0.0,0.0,0.0,0.0,0.0,0.0,0.0,0.0,0.0,0.0,0.0,0.0,0.0,0.0,0.0,0.0,0.0,0.0,0.0,0.0,0.0,0.0,0.0,0.0,0.0,0.0,0.0,0.0,0.0,0.0,0.0,0.0,0.0,0.0,0.0,0.0,0.0,0.0,0.0,0.0,0.0,0.0,0.0,0.0,0.0,0.0,0.0,0.0,0.0,0.0,0.0,0.0,0.0,0.0,0.0,0.0,0.0,0.0,0.0,0.0,0.0,0.0,0.0,0.0,0.0,0.0,0.0,0.0,0.0,0.0,0.0,0.0,0.0,0.0,0.0,0.0,0.0,0.0,0.0,0.0,0.0,0.0,0.0,0.0,0.0,0.0,0.0,0.0,0.0,0.0,0.0,0.0,0.0,0.0,0.0,0.0,0.0,0.0,0.0,0.0,0.0,0.0,0.0,0.0,0.0,0.0,0.0,0.0,0.0,0.0,0.0,0.0,0.0,0.0,0.0,0.0,0.0,0.0,0.0,0.0,0.0,0.0,0.0,0.0,0.0,0.0,0.0,0.0,0.0,0.0,0.0,0.0,0.0,0.0,0.0,0.0,0.0,0.0,0.0,0.0,0.0,0.0,0.0,0.0,0.0,0.0,0.0,0.0,0.0,0.0,0.0,0.0,0.0,0.0,0.0,0.0,0.0,0.0,0.0,0.0,0.0,0.0,0.0,0.0,0.0,0.0,0.0,0.0,0.0,0.0,0.0,0.0,0.0,0.0,0.0,0.0,0.0,0.0,0.0,0.0,0.0,0.0,0.0,0.0,0.0,0.0,0.0,0.0,0.0,0.0,0.0,0.0,0.0,0.0,0.0,0.0,0.0,0.0,0.0,0.0,0.0,0.0,0.0,0.0,0.0,0.0,0.0,0.0,0.0,0.0,0.0,0.0,0.0,0.0,0.0,0.0,0.0,0.0,0.0,0.0,0.0,0.0,0.0,0.0,0.0,0.0,0.0,0.0,0.0,0.0,0.0,0.0,0.0,0.0,0.0,0.0,0.0,0.0,0.0,0.0,0.0,0.0,0.0,0.0,0.0,0.0,0.0,0.0,0.0,0.0,0.0,0.0,0.0,0.0,0.0,0.0,0.0,0.0,0.0,0.0,0.0,0.0,0.0,0.0,0.0,0.0,0.0,0.0,0.0,0.0,0.0,0.0,0.0,0.0,0.0,0.0,0.0,0.0,0.0,0.0,0.0,0.0,0.0,0.0,0.0,0.0,0.0,0.0,0.0,0.0,0.0,0.0,0.0,0.0,0.0,0.0,0.0,0.0,0.0,0.0,0.0,0.0,0.0,0.0,0.0,0.0,0.0,0.0,0.0,0.0,0.0,0.0,0.0,0.0,0.0,0.0,0.0,0.0,0.0,0.0,0.0,0.0,0.0,0.0,0.0,0.0,0.0,0.0,0.0,0.0,0.0,0.0,0.0,0.0,0.0,0.0,0.0,0.0,0.0,0.0,0.0,0.0,0.0,0.0,0.0,0.0,0.0,0.0,0.0,0.0,0.0,0.0,0.0,0.0,0.0,0.0,0.0,0.0,0.0,0.0,0.0,0.0,0.0,0.0,0.0,0.0,0.0,0.0,0.0,0.0,0.0,0.0,0.0,0.0,0.0,0.0,0.0,0.0,0.0,0.0,0.0,0.0,0.0,0.0,0.0,0.0,0.0,0.0,0.0,0.0,0.0,0.0,0.0,0.0,0.0,0.0,0.0,0.0,0.0,0.0,0.0,0.0,0.0,0.0,0.0,0.0,0.0,0.0,0.0,0.0,0.0,0.0,0.0,0.0,0.0,0.0,0.0,0.0,0.0,0.0,0.0,0.0,0.0,0.0,0.0,0.0,0.0,0.0,0.0,0.0,0.0,0.0,0.0,0.0,0.0,0.0,0.0,0.0,0.0,0.0,0.0,0.0,0.0,0.0,0.0,0.0,0.0,0.0,0.0,0.0,0.0,0.0,0.0,0.0,0.0,0.0,0.0,0.0,0.0,0.0,0.0,0.0,0.0,0.0,0.0,0.0,0.0,0.0,0.0,0.0,0.0,0.0,0.0,0.0,0.0,0.0,0.0,0.0,0.0,0.0,0.0,0.0,0.0,0.0,0.0,0.0,0.0,0.0,0.0,0.0,0.0,0.0,0.0,0.0,0.0,0.0,0.0,0.0,0.0,0.0,0.0,0.0,0.0,0.0,0.0,0.0,0.0,0.0,0.0,0.0,0.0,0.0,0.0,0.0,0.0,0.0,0.0,0.0,0.0,0.0,0.0,0.0,0.0,0.0,0.0,0.0,0.0,0.0,0.0,0.0,0.0,0.0,0.0,0.0,0.0,0.0,0.0,0.0,0.0,0.0,0.0,0.0,0.0,0.0,0.0,0.0,0.0,0.0,0.0,0.0,0.0,0.0,0.0,0.0,0.0,0.0,0.0,0.0,0.0,0.0,0.0,0.0,0.0,0.0,0.0,0.0,0.0,0.0,0.0,0.0,0.0,0.0,0.0,0.0,0.0,0.0,0.0,0.0,0.0,0.0,0.0,0.0,0.0,0.0,0.0,0.0,0.0,0.0,0.0,0.0,0.0,0.0,0.0,0.0,0.0,0.0,0.0,0.0,0.0,0.0,0.0,0.0,0.0,0.0,0.0,0.0,0.0,0.0,0.0,0.0,0.0,0.0,0.0,0.0,0.0,0.0,0.0,0.0,0.0,0.0,0.0,0.0,0.0,0.0,0.0,0.0,0.0,0.0,0.0,0.0,0.0,0.0,0.0,0.0,0.0,0.0,0.0,0.0,0.0,0.0,0.0,0.0,0.0,0.0,0.0,0.0,0.0,0.0,0.0,0.0,0.0,0.0,0.0,0.0,0.0,0.0,0.0,0.0,0.0,0.0,0.0,0.0,0.0,0.0,0.0,0.0,0.0,0.0,0.0,0.0,0.0,0.0,0.0,0.0,0.0,0.0,0.0,0.0,0.0,0.0,0.0,0.0,0.0,0.0,0.0,0.0,0.0,0.0,0.0,0.0,0.0,0.0,0.0,0.0,0.0,0.0,0.0,0.0,0.0,0.0,0.0,0.0,0.0,0.0,0.0,0.0,0.0,0.0,0.0,0.0,0.0,0.0,0.0,0.0,0.0,0.0,0.0,0.0,0.0,0.0,0.0,0.0,0.0,0.0,0.0,0.0,0.0,0.0,0.0,0.0,0.0,0.0,0.0,0.0,0.0,0.0,0.0,0.0,0.0,0.0,0.0,0.0,0.0,0.0,0.0,0.0,0.0,0.0,0.0,0.0,0.0,0.0,0.0,0.0,0.0,0.0,0.0,0.0,0.0,0.0,0.0,0.0,0.0,0.0,0.0,0.0,0.0,0.0,0.0,0.0,0.0,0.0,0.0,0.0,0.0,0.0,0.0,0.0,0.0,0.0,0.0,0.0,0.0,0.0,0.0,0.0,0.0,0.0,0.0,0.0,0.0,0.0,0.0,0.0,0.0,0.0,0.0,0.0,0.0,0.0,0.0,0.0,0.0,0.0,0.0,0.0,0.0,0.0,0.0,0.0,0.0,0.0,0.0,0.0,0.0,0.0,0.0,0.0,0.0,0.0,0.0,0.0,0.0,0.0,0.0,0.0,0.0,0.0,0.0,0.0,0.0,0.0,0.0,0.0,0.0,0.0,0.0,0.0,0.0,0.0,0.0,0.0,0.0,0.0,0.0,0.0,0.0,0.0,0.0,0.0,0.0,0.0,0.0,0.0,0.0,0.0,0.0,0.0,0.0,0.0,0.0,0.0,0.0,0.0,0.0,0.0,0.0,0.0,0.0,0.0,0.0,0.0,0.0,0.0,0.0,0.0,0.0,0.0,0.0,0.0,0.0,0.0,0.0,0.0,0.0,0.0,0.0,0.0,0.0,0.0,0.0,0.0,0.0,0.0,0.0,0.0,0.0,0.0,0.0,0.0,0.0,0.0,0.0,0.0,0.0,0.0,0.0,0.0,0.0,0.0,0.0,0.0,0.0,0.0,0.0,0.0,0.0,0.0,0.0,0.0,0.0,0.0,0.0,0.0,0.0,0.0,0.0,0.0,0.0,0.0,0.0,0.0,0.0,0.0,0.0,0.0,0.0,0.0,0.0,0.0,0.0,0.0,0.0,0.0,0.0,0.0,0.0,0.0,0.0,0.0,0.0,0.0,0.0,0.0,0.0,0.0,0.0,0.0,0.0,0.0,0.0,0.0,0.0,0.0,0.0,0.0,0.0,0.0,0.0,0.0,0.0,0.0,0.0,0.0,0.0,0.0,0.0,0.0,0.0,0.0,0.0,0.0,0.0,0.0,0.0,0.0,0.0,0.0,0.0,0.0,0.0,0.0,0.0,0.0,0.0,0.0,0.0,0.0,0.0,0.0,0.0,0.0,0.0,0.0,0.0,0.0,0.0,0.0,0.0,0.0,0.0,0.0,0.0,0.0,0.0,0.0,0.0,0.0,0.0,0.0,0.0,0.0,0.0,0.0,0.0,0.0,0.0,0.0,0.0,0.0,0.0,0.0,0.0,0.0,0.0,0.0,0.0,0.0,0.0,0.0,0.0,0.0,0.0,0.0,0.0,0.0,0.0,0.0,0.0,0.0,0.0,0.0,0.0,0.0,0.0,0.0,0.0,0.0,0.0,0.0,0.0,0.0,0.0,0.0,0.0,0.0,0.0,0.0,0.0,0.0,0.0,0.0,0.0,0.0,0.0,0.0,0.0,0.0,0.0,0.0,0.0,0.0,0.0,0.0,0.0,0.0,0.0,0.0,0.0,0.0,0.0,0.0,0.0,0.0,0.0,0.0,0.0,0.0,0.0,0.0,0.0,0.0,0.0,0.0,0.0,0.0,0.0,0.0,0.0,0.0,0.0,0.0,0.0,0.0,0.0,0.0,0.0,0.0,0.0,0.0,0.0,0.0,0.0,0.0,0.0,0.0,0.0,0.0,0.0,0.0,0.0,0.0,0.0,0.0,0.0,0.0,0.0,0.0,0.0,0.0,0.0,0.0,0.0,0.0,0.0,0.0,0.0,0.0,0.0,0.0,0.0,0.0,0.0,0.0,0.0,0.0,0.0,0.0,0.0,0.0,0.0,0.0,0.0,0.0,0.0,0.0,0.0,0.0,0.0,0.0,0.0,0.0,0.0,0.0,0.0,0.0,0.0,0.0,0.0,0.0,0.0,0.0,0.0,0.0,0.0,0.0,0.0,0.0,0.0,0.0,0.0,0.0,0.0,0.0,0.0,0.0,0.0,0.0,0.0,0.0,0.0,0.0,0.0,0.0,0.0,0.0,0.0,0.0,0.0,0.0,0.0,0.0,0.0,0.0,0.0,0.0,0.0,0.0,0.0,0.0,0.0,0.0,0.0,0.0,0.0,0.0,0.0,0.0,0.0,0.0,0.0,0.0,0.0,0.0,0.0,0.0,0.0,0.0,0.0,0.0,0.0,0.0,0.0,0.0,0.0,0.0,0.0,0.0,0.0,0.0,0.0,0.0,0.0,0.0,0.0,0.0,0.0,0.0,0.0,0.0,0.0,0.0,0.0,0.0,0.0,0.0,0.0,0.0,0.0,0.0,0.0,0.0,0.0,0.0,0.0,0.0,0.0,0.0,0.0,0.0,0.0,0.0,0.0,0.0,0.0,0.0,0.0,0.0,0.0,0.0,0.0,0.0,0.0,0.0,0.0,0.0,0.0,5.1627,0.0,0.0,0.0,0.0,0.0,0.0,0.0,0.0,0.0,0.0,0.0,0.0,0.0,0.0,0.0,0.0,0.0,0.0,0.0,0.0,0.0,0.0,0.0,0.0,4.358,4.4842,4.5517,4.5883,4.6262,4.6634,0.0,0.0,0.0,0.0,0.0,4.4913,4.5134,4.5505,4.5992,4.7511,4.8855,4.9965,4.8748,4.6853,4.4451,0.0,0.0,0.0,0.0,0.0,0.0,0.0,0.0,0.0,0.0,0.0,0.0,0.0,0.0,0.0,0.0,0.0,0.0,0.0,0.0,0.0,0.0,0.0,0.0,0.0,0.0,0.0,0.0,0.0,0.0,0.0,0.0,0.0,0.0,0.0,0.0,0.0,0.0,0.0,0.0,0.0,0.0,0.0,0.0,0.0,0.0,0.0,0.0,0.0,0.0,0.0,0.0,0.0,0.0,0.0,0.0,0.0,0.0,0.0,0.0,0.0,0.0,0.0,0.0,0.0,0.0,0.0,0.0,0.0,0.0,0.0,5.3291,0.0,0.0,0.0,0.0,0.0,0.0,0.0,0.0,0.0,0.0,0.0,0.0,0.0,0.0,0.0,0.0,0.0,0.0,0.0,0.0,0.0,4.2644,4.3317,4.4875,4.6211,4.7188,4.7368,4.7462,4.7733,4.7394,0.0,0.0,0.0,4.6582,4.6623,4.7407,4.8341,4.9375,5.1427,5.3551,5.575,5.5886,5.3653,4.9458,4.8545,0.0,0.0,0.0,0.0,0.0,0.0,0.0,0.0,0.0,0.0,0.0,0.0,0.0,0.0,0.0,0.0,0.0,0.0,0.0,0.0,0.0,0.0,0.0,0.0,0.0,0.0,0.0,0.0,0.0,0.0,0.0,0.0,0.0,0.0,0.0,0.0,0.0,0.0,0.0,0.0,0.0,0.0,0.0,0.0,0.0,0.0,0.0,0.0,0.0,0.0,0.0,0.0,0.0,0.0,0.0,0.0,0.0,0.0,0.0,0.0,0.0,0.0,0.0,0.0,6.0725,6.0428,6.0353,6.0113,5.9725,5.8562,5.7227,5.5746,0.0,0.0,0.0,0.0,0.0,0.0,0.0,0.0,0.0,0.0,0.0,0.0,0.0,0.0,0.0,0.0,0.0,0.0,0.0,0.0,4.3698,4.4908,4.66,4.8321,5.0217,4.997,5.0202,5.1488,4.9796,4.8652,4.8562,4.7221,4.6757,4.7245,4.8744,5.0284,5.1664,5.5845,5.8829,6.0419,6.1061,6.0994,6.0148,5.5581,5.2573,5.0794,0.0,0.0,0.0,0.0,0.0,0.0,0.0,0.0,0.0,0.0,0.0,0.0,0.0,0.0,0.0,0.0,0.0,0.0,0.0,0.0,0.0,0.0,0.0,0.0,0.0,0.0,0.0,0.0,0.0,0.0,0.0,0.0,0.0,0.0,0.0,0.0,0.0,0.0,0.0,0.0,0.0,5.1444,5.1041,0.0,0.0,0.0,0.0,0.0,0.0,0.0,0.0,0.0,0.0,0.0,0.0,0.0,0.0,6.1725,6.1294,6.1645,6.2861,6.3431,6.3485,6.3164,6.3749,6.3807,6.3556,6.3408,0.0,5.7901,5.6497,0.0,0.0,0.0,0.0,0.0,0.0,0.0,0.0,0.0,0.0,0.0,0.0,0.0,0.0,0.0,0.0,0.0,0.0,0.0,0.0,0.0,4.9193,5.1116,5.2909,5.3146,5.3348,5.3585,5.23,5.1085,5.0048,4.915,4.8854,4.9091,5.0994,5.3841,5.7689,6.1559,6.4174,6.5696,6.644,6.6779,6.6677,6.4377,6.0738,5.6203,5.3811,0.0,0.0,0.0,0.0,0.0,0.0,0.0,0.0,0.0,0.0,0.0,0.0,0.0,0.0,0.0,0.0,0.0,0.0,0.0,0.0,0.0,0.0,0.0,0.0,0.0,0.0,0.0,0.0,0.0,0.0,0.0,0.0,0.0,0.0,0.0,0.0,0.0,0.0,0.0,5.1771,5.2922,5.3419,5.3253,5.3177,0.0,0.0,0.0,0.0,0.0,0.0,0.0,0.0,0.0,5.9969,6.0695,6.1857,6.3574,6.3888,6.4562,6.5463,6.6024,6.6101,6.5754,6.6057,6.6062,6.5827,6.5827,6.4486,6.2103,5.9942,5.8122,5.6619,0.0,0.0,0.0,0.0,5.5187,5.5162,0.0,0.0,0.0,0.0,0.0,0.0,0.0,0.0,0.0,0.0,0.0,0.0,5.0168,5.2232,5.4296,5.6393,5.6731,5.6697,5.6325,5.5004,5.3483,5.1766,5.116,5.0921,5.1121,5.4283,5.8451,6.3559,6.6694,6.891,7.0263,7.1176,7.1616,7.1582,7.1413,6.7708,6.1436,5.906,5.5749,5.1685,0.0,0.0,0.0,0.0,0.0,0.0,0.0,0.0,0.0,0.0,0.0,0.0,0.0,0.0,0.0,0.0,0.0,0.0,0.0,0.0,0.0,0.0,0.0,0.0,0.0,0.0,0.0,0.0,0.0,0.0,0.0,0.0,0.0,0.0,0.0,0.0,0.0,5.3445,5.4715,5.5842,5.543,5.5323,0.0,0.0,0.0,0.0,0.0,0.0,5.8851,6.0712,6.1994,6.2439,6.3746,6.4697,6.5467,6.6442,6.7029,6.7487,6.8122,6.8091,6.7877,6.7877,6.7754,6.7508,6.7508,6.6941,6.5861,6.3152,6.07,5.8613,5.8547,5.7978,5.7109,5.8226,5.8423,5.8166,0.0,0.0,0.0,0.0,0.0,0.0,0.0,0.0,0.0,0.0,0.0,5.0236,5.3923,5.5683,5.8051,6.167,6.0689,6.0182,6.0926,5.8106,5.5526,5.3766,5.2748,5.25,5.3049,5.9231,6.4135,6.7624,7.0635,7.2529,7.3308,7.4728,7.5405,7.5371,7.4695,7.1357,6.6002,6.3747,6.0494,5.6396,5.2296,0.0,0.0,0.0,0.0,0.0,0.0,0.0,0.0,0.0,0.0,0.0,0.0,0.0,0.0,0.0,0.0,0.0,0.0,0.0,0.0,0.0,0.0,0.0,0.0,0.0,0.0,0.0,0.0,0.0,0.0,0.0,0.0,0.0,0.0,0.0,0.0,0.0,0.0,5.7308,5.8091,0.0,0.0,0.0,0.0,5.9378,5.9808,6.0958,6.2914,6.3437,6.444,6.6032,6.6243,6.7034,6.8698,6.8515,6.8662,6.9295,6.9325,6.9231,6.8914,6.8914,6.8884,6.8884,6.8884,6.8495,6.7721,6.5259,6.3562,6.2597,6.2147,6.1842,6.1595,6.1981,6.208,6.2092,0.0,0.0,0.0,0.0,0.0,4.0324,4.1102,4.2252,4.4012,4.6786,4.9458,5.2739,5.6968,5.9201,6.1501,6.4275,6.4444,6.3937,6.2787,6.1187,5.8841,5.5442,5.5322,5.6611,5.9239,6.464,6.8513,7.0804,7.3815,7.5439,7.5709,7.669,7.7164,7.7164,7.6893,7.5473,7.2945,6.8789,6.4941,6.1367,5.7143,5.3478,0.0,0.0,0.0,0.0,0.0,0.0,0.0,0.0,0.0,0.0,0.0,0.0,0.0,0.0,0.0,0.0,0.0,0.0,0.0,0.0,0.0,0.0,0.0,0.0,0.0,0.0,0.0,0.0,0.0,0.0,0.0,0.0,0.0,0.0,0.0,0.0,0.0,5.9433,6.0478,0.0,0.0,6.1121,6.1588,6.2779,6.3329,6.4209,6.5566,6.6731,6.7668,6.8243,6.896,6.9826,7.0855,7.0757,7.0959,7.1618,7.1618,7.1618,7.1517,7.1517,7.1517,7.1487,7.1038,7.047,6.9752,6.853,6.6823,6.4898,6.4438,6.4038,6.3562,6.3676,6.3713,6.384,0.0,0.0,0.0,0.0,0.0,4.0696,4.1441,4.3267,4.5635,4.8646,5.1826,5.5547,6.0047,6.255,6.4783,6.7015,6.7658,6.7117,6.5121,6.3991,6.1807,5.827,5.8842,6.1032,6.4872,6.8942,7.211,7.4289,7.6792,7.8145,7.8382,7.9126,7.9464,7.9464,7.9194,7.8686,7.7739,7.3781,6.9836,6.6002,6.2278,5.8462,5.4656,0.0,0.0,0.0,0.0,0.0,0.0,0.0,0.0,0.0,0.0,0.0,0.0,0.0,0.0,0.0,0.0,0.0,0.0,0.0,0.0,0.0,0.0,0.0,0.0,0.0,0.0,0.0,0.0,0.0,0.0,0.0,0.0,0.0,0.0,0.0,6.0666,6.1979,6.313,6.4026,6.4402,6.4333,6.4707,6.5749,6.6381,6.715,6.791,6.9381,7.0187,7.0187,7.1138,7.1787,7.2235,7.2235,7.2445,7.2924,7.2924,7.2924,7.2924,7.2924,7.2924,7.2894,7.2445,7.1996,7.1547,7.0889,6.9572,6.7897,6.7003,6.6312,6.5952,6.5952,6.5952,6.5952,0.0,0.0,0.0,0.0,0.0,4.1474,4.2252,4.4891,4.7868,5.0879,5.4532,5.8592,6.3091,6.5595,6.7793,7.0026,7.0229,6.9586,6.7996,6.6373,6.4454,6.2025,6.32,6.5708,6.9501,7.2128,7.4944,7.8044,7.9532,8.0615,8.1325,8.2069,8.2408,8.2374,8.1629,8.0919,8.0175,7.872,7.5134,7.0263,6.7497,6.3568,5.8913,0.0,0.0,0.0,0.0,0.0,0.0,0.0,0.0,0.0,0.0,0.0,0.0,0.0,0.0,0.0,0.0,0.0,0.0,0.0,0.0,0.0,0.0,0.0,0.0,0.0,0.0,0.0,0.0,0.0,0.0,0.0,0.0,0.0,5.846,6.0657,6.2871,6.5157,6.623,6.6945,6.7373,6.7711,6.7923,6.8061,6.8937,6.9712,7.0051,7.1278,7.1936,7.1936,7.2624,7.2984,7.2984,7.2984,7.2984,7.2984,7.2984,7.2984,7.2984,7.2984,7.2984,7.2984,7.2954,7.2954,7.2894,7.2206,7.1906,7.1727,6.9782,6.9034,6.9034,6.9004,6.9004,6.8824,0.0,0.0,0.0,4.0798,4.1068,4.1847,4.3673,4.5568,4.824,5.2334,5.6089,6.0114,6.4613,6.759,6.9722,7.0906,7.1481,7.0669,6.8064,6.7438,6.661,6.5295,6.7127,6.9446,7.2161,7.5653,7.8148,7.96,8.1088,8.19,8.2103,8.2306,8.2408,8.2408,8.2205,8.1898,8.142,8.051,7.8556,7.5701,7.1968,6.8282,6.4805,0.0,0.0,0.0,0.0,0.0,0.0,0.0,0.0,0.0,0.0,0.0,0.0,0.0,0.0,0.0,0.0,0.0,0.0,0.0,0.0,0.0,0.0,0.0,0.0,0.0,0.0,0.0,0.0,0.0,0.0,0.0,0.0,6.0484,6.047,6.2882,6.5156,6.6567,6.8468,6.9774,6.9839,7.0428,7.0832,7.1111,7.1435,7.1788,7.2056,7.2894,7.3343,7.3343,7.4001,7.433,7.433,7.433,7.433,7.433,7.433,7.433,7.433,7.433,7.433,7.43,7.3821,7.3642,7.3582,7.2894,7.2624,7.2445,7.047,6.9722,6.9662,6.9183,6.9004,6.8944,0.0,0.0,0.0,4.1068,4.1474,4.232,4.4282,4.6616,4.956,5.345,5.7746,6.1907,6.573,6.8842,7.0838,7.1278,7.1988,7.1379,6.9011,6.8842,6.8857,6.8972,7.1131,7.3358,7.5619,7.8486,8.0547,8.1596,8.2441,8.3016,8.3355,8.325,8.3144,8.3144,8.3038,8.2763,8.2248,8.1705,8.0421,7.8745,7.6241,7.2792,6.8942,6.7288,6.484,6.2101,5.9984,5.8209,5.6543,5.4746,0.0,0.0,0.0,0.0,0.0,0.0,0.0,0.0,0.0,0.0,0.0,0.0,0.0,0.0,0.0,0.0,0.0,0.0,0.0,0.0,0.0,0.0,0.0,0.0,6.1041,6.3251,6.3873,6.5575,6.7311,6.8883,7.0425,7.1689,7.1994,7.2357,7.2651,7.2792,7.2992,7.3057,7.3313,7.3941,7.43,7.43,7.4689,7.4869,7.4869,7.4869,7.4869,7.4869,7.4869,7.4869,7.4869,7.4869,7.4869,0.0,7.448,7.43,7.424,7.3612,7.3343,0.0,0.0,0.0,0.0,0.0,6.9632,6.9423,0.0,0.0,0.0,4.1204,4.1914,4.2963,4.4587,4.7767,5.1116,5.4296,5.9133,6.3396,6.6373,6.9383,7.1142,7.1075,7.1718,7.1582,7.0263,7.0331,7.1142,7.2699,7.4897,7.7096,7.9295,8.0784,8.2171,8.349,8.3592,8.3858,8.45,8.4177,8.4069,8.3993,8.3775,8.3297,8.2586,8.2333,8.1315,8.0053,7.9836,7.6664,7.2189,7.1298,6.951,6.7222,6.4984,6.398,6.3254,6.0857,0.0,0.0,0.0,0.0,0.0,0.0,0.0,0.0,0.0,0.0,0.0,0.0,0.0,0.0,0.0,0.0,0.0,0.0,0.0,0.0,0.0,0.0,0.0,0.0,6.3502,6.5852,6.7973,6.8544,6.9351,7.1291,7.2113,7.2931,7.392,7.3647,7.3545,7.3636,7.3806,7.4001,7.4001,0.0,0.0,0.0,0.0,7.4869,7.4869,7.4869,7.4869,7.4869,7.4869,7.4869,7.4869,7.4869,7.4869,7.4869,7.4869,7.4869,7.4839,7.424,7.3971,7.3762,7.2505,7.1966,7.1816,7.1218,7.062,7.0081,0.0,0.0,0.0,4.1948,4.2692,4.391,4.6041,4.8003,5.071,5.4938,5.8998,6.2651,6.5595,6.8605,7.0161,6.9586,7.0195,7.05,7.0195,7.1312,7.2902,7.4965,7.7232,7.9228,8.0818,8.2306,8.3219,8.349,8.3886,8.4042,8.3817,8.3598,8.3187,8.2737,8.2737,8.2444,8.205,8.1935,8.1443,8.0687,8.0687,7.8692,7.5638,7.5505,7.4205,7.2362,7.1325,7.0063,6.8544,6.6257,6.463,6.3057,6.0238,5.7821,0.0,0.0,0.0,0.0,0.0,0.0,0.0,0.0,0.0,0.0,0.0,0.0,0.0,0.0,0.0,0.0,0.0,0.0,0.0,6.3656,6.5678,6.7744,7.0312,7.1014,7.1408,7.2082,7.3084,7.3728,7.4281,7.4239,7.4315,7.4586,7.4599,7.4689,7.4689,7.4809,0.0,7.4869,7.4869,7.4869,7.4869,7.4869,7.4869,7.4869,0.0,0.0,7.4869,7.4869,7.4869,7.4869,7.4869,7.4869,7.4869,7.4749,7.436,7.3821,7.3013,7.2385,7.1876,7.1727,7.1278,7.0739,0.0,0.0,0.0,4.2726,4.3166,4.4181,4.6447,4.8376,5.0913,5.4668,5.8389,6.1535,6.3802,6.5951,6.7217,6.7251,6.8601,7.0005,7.121,7.3037,7.5067,7.7299,7.9566,8.1257,8.2374,8.349,8.4065,8.4065,8.4116,8.4069,8.3708,8.3187,8.2623,8.2165,8.1818,8.1584,8.1434,8.1434,8.1356,8.1178,8.1178,8.0326,7.88,7.7954,7.704,7.6071,7.456,7.3553,7.2673,7.0306,6.8851,6.7602,6.486,6.2339,5.9867,0.0,0.0,0.0,0.0,0.0,0.0,0.0,0.0,0.0,0.0,0.0,0.0,0.0,0.0,5.8086,5.9811,0.0,6.4104,6.5831,6.7779,6.9793,7.1469,7.2486,7.3204,7.3334,7.3779,7.4311,7.4602,7.4662,7.4646,7.4839,7.4869,7.4869,7.4869,7.4869,7.4869,7.4869,7.4869,7.4869,7.4869,7.4869,7.4869,7.4869,7.4869,7.4869,7.4869,7.4869,7.4869,7.4869,7.4869,7.4869,7.4869,7.4869,7.4689,7.436,7.4031,7.3283,7.2355,7.1996,7.1667,7.1338,0.0,0.0,0.0,4.3335,4.3538,4.435,4.6481,4.8409,5.0811,5.3957,5.7205,5.9877,6.1569,6.2763,6.3781,6.4656,6.6877,6.9356,7.1931,7.4525,7.6995,7.9431,8.1528,8.2949,8.3693,8.4302,8.464,8.464,8.4319,8.4027,8.3688,8.2935,8.2312,8.1975,8.1252,8.0947,8.0947,8.0818,8.0993,8.1349,8.1467,8.1574,8.1421,7.9594,7.8902,7.8589,7.6472,7.5759,7.5383,7.3096,7.1757,7.0781,6.8428,6.588,6.321,6.0533,5.7345,0.0,0.0,0.0,0.0,0.0,0.0,0.0,0.0,0.0,5.7512,5.8656,6.0156,6.1808,6.3151,6.4892,6.6621,6.7775,6.9701,7.1304,7.2092,7.3466,7.4346,7.4466,7.4496,7.4571,7.4839,7.4869,7.4869,7.4869,7.4869,7.4869,7.4869,7.4869,7.4869,7.4869,7.4869,7.4869,7.4869,7.4869,7.4869,7.4869,7.4869,7.4869,7.4869,7.4869,7.4869,7.4869,7.4869,7.4869,7.4869,7.4869,7.4869,7.4869,7.4869,7.424,7.3223,7.2535,7.2206,7.1996,0.0,0.0,0.0,4.3538,4.3978,4.4959,4.6549,4.7564,4.9458,5.3145,5.5141,5.7036,5.9167,5.9996,6.092,6.2058,6.4976,6.8041,7.0973,7.4702,7.8044,8.0919,8.2543,8.3727,8.4471,8.4573,8.464,8.464,8.4102,8.3888,8.3811,8.3235,8.265,8.2132,8.1399,8.0987,8.0582,8.0347,8.0545,8.1112,8.1668,8.2215,8.2618,8.1028,8.0219,7.9608,7.7645,7.6609,7.5704,7.3648,7.2498,7.1623,7.0254,6.8194,6.5823,6.3735,6.0218,5.6752,5.5936,5.5783,0.0,5.7116,5.8148,5.9095,0.0,0.0,6.1055,6.2937,6.352,6.4393,6.6698,6.7415,6.8219,6.9793,7.0728,7.1737,7.3003,7.364,7.4121,7.4826,7.4886,7.4779,7.4869,7.4869,7.4869,7.4869,7.4869,7.4869,7.4869,7.4869,7.4869,7.4869,7.4869,7.4869,7.4869,7.4869,7.4869,7.4869,7.4869,7.4869,7.4869,7.4869,7.4869,7.4869,7.4869,7.4869,7.4869,7.4869,7.4869,7.4869,7.4869,7.4779,7.4569,7.3911,7.3313,7.2684,0.0,0.0,0.0,4.4147,4.4722,4.5602,4.6616,4.78,4.9424,5.186,5.3484,5.4938,5.6292,5.711,5.8284,6.0111,6.3115,6.6805,7.1378,7.4972,7.8416,8.1799,8.2949,8.3862,8.4606,8.464,8.4843,8.5317,8.485,8.489,8.5144,8.4341,8.353,8.2975,8.2348,8.1591,8.0959,8.1196,8.1382,8.1551,8.2165,8.2618,8.2566,8.0959,7.9554,7.8325,7.6668,7.5472,0.0,7.2404,7.1398,7.0783,6.9654,6.8219,6.6575,6.4453,6.1556,5.8841,5.7642,5.7941,0.0,0.0,6.1659,6.2855,6.4473,6.4583,6.5056,6.6904,6.7651,6.8298,6.9525,7.0161,7.0795,0.0,7.2092,7.2781,7.361,7.4166,7.442,7.43,7.4629,7.4869,7.4869,7.4869,7.4869,7.4869,7.4869,7.4869,7.4869,7.4869,7.5048,7.5467,7.5467,7.5647,7.6006,7.6006,7.6006,7.6006,7.5647,7.5467,7.5467,7.5048,7.4869,7.4869,7.4869,7.4869,7.4869,7.4869,7.4869,7.4869,7.4869,7.4869,7.4809,7.4151,7.3732,7.3402,0.0,0.0,0.0,0.0,0.0,4.6413,4.6752,4.7868,4.9221,5.071,5.2063,5.318,5.4023,5.4917,5.6162,5.8008,6.1232,6.5426,7.0781,7.4566,7.8145,8.1629,8.2881,8.3761,8.4302,8.4505,8.4911,8.5452,8.5296,8.5548,8.5951,8.5351,8.4847,8.4291,8.3609,8.2756,8.1865,8.2159,8.2236,8.2215,8.2651,8.281,8.261,8.0382,7.8536,7.6727,7.483,7.3309,7.1885,7.0004,6.9074,6.8473,6.7817,6.6971,6.5718,6.4114,6.2075,6.0202,5.909,0.0,0.0,6.3595,6.5014,6.6289,6.8311,6.8473,6.8562,7.0238,7.0766,7.1092,7.1711,7.2033,0.0,7.267,7.3031,7.3503,7.3791,7.43,7.442,7.3941,7.4151,7.442,7.4599,7.4779,7.4869,7.4869,7.4869,7.4958,7.5138,7.5168,7.5467,7.6125,7.6155,7.6365,7.6814,7.6814,7.6814,7.6814,7.6365,7.6066,7.5886,7.5198,7.4869,7.4869,7.4869,7.4869,7.4869,7.4869,7.4869,7.4869,7.4869,7.4869,7.4809,7.433,7.418,7.4061,0.0,0.0,0.0,0.0,0.0,4.7597,4.6921,4.7462,4.8477,4.9932,5.0811,5.1729,5.2838,5.364,5.4462,5.5587,5.9464,6.3768,6.8227,7.3088,7.7096,8.0141,8.234,8.3524,8.3524,8.4234,8.464,8.4674,8.5026,8.5548,8.5951,8.6345,8.6343,8.6127,8.5407,8.4598,8.3519,8.3159,8.2906,8.2718,8.261,8.2778,8.269,7.9559,7.7311,7.5405,7.2413,7.0337,6.8471,6.638,6.5204,6.4616,6.4826,6.4028,6.2983,6.2704,6.1722,6.0644,6.0431,0.0,6.4387,6.6589,6.7846,6.9166,7.1387,7.152,7.1479,7.2779,7.2306,7.2096,7.3355,7.2633,7.2173,7.319,7.3334,7.3503,7.3791,7.3911,7.3911,7.3881,7.3343,7.3223,0.0,7.451,7.4869,7.4869,7.4869,7.5168,7.5826,7.5886,7.6155,7.6784,7.6814,7.6814,7.6814,7.6814,7.6814,7.6814,7.6814,7.6485,7.5886,7.5198,7.4869,7.4869,7.4869,7.4869,7.4869,7.4869,7.4869,7.4869,7.4869,7.4869,7.4869,7.4869,7.4839,7.4749,0.0,0.0,0.0,0.0,0.0,0.0,4.7597,4.8173,4.8815,4.9323,5.0439,0.0,0.0,0.0,0.0,0.0,5.8308,6.1899,6.6422,7.0205,7.385,7.7312,7.8657,7.9766,8.0741,8.1514,8.2119,8.2623,8.3975,8.4951,8.5548,8.6209,8.634,8.5965,8.5617,8.4771,8.3812,8.3928,8.3474,8.2576,8.2093,8.1274,7.98,7.6775,7.3941,7.1092,0.0,6.548,6.506,6.2518,6.1234,6.0624,6.0532,6.0476,6.0578,6.0805,6.0868,6.1212,6.2292,0.0,6.6311,6.8636,7.0162,7.1627,7.335,7.3284,7.3168,7.4204,7.3731,7.3315,7.3706,7.3034,7.2732,7.3478,7.3593,7.3547,7.4135,7.4016,7.3732,7.3283,7.3432,0.0,0.0,0.0,0.0,7.4839,7.4869,7.5168,7.5856,7.5916,7.6395,7.7442,7.7472,7.7682,7.813,7.813,7.813,7.813,7.7682,7.7143,7.6485,7.5856,7.5557,7.5527,7.5078,7.4869,7.4869,7.4869,7.4869,7.4869,7.4869,7.4869,7.4869,7.4869,7.4869,7.4839,0.0,0.0,0.0,0.0,0.0,0.0,0.0,0.0,0.0,0.0,0.0,0.0,0.0,0.0,0.0,0.0,0.0,6.0165,6.4067,6.7569,7.0842,7.3833,7.5339,7.6473,7.744,7.8303,7.9169,8.0042,8.1458,8.2644,8.3523,8.453,8.489,8.4668,8.4744,8.4085,8.2897,8.3232,8.2561,8.1101,8.02,7.8892,7.7176,7.3705,7.0789,0.0,6.2971,6.1375,6.1069,5.9174,5.8328,5.8137,5.7955,5.8588,5.9568,6.0202,6.131,6.2672,6.4471,6.6423,6.8511,7.0724,7.2262,7.351,7.4728,7.4512,7.4157,7.4564,7.3906,7.3285,7.3128,7.2664,7.2559,7.3129,7.3322,7.3533,7.4105,7.4046,7.3732,7.3313,7.3432,0.0,0.0,0.0,0.0,7.4839,7.5108,7.5527,7.6185,7.6455,7.7083,7.813,7.816,7.837,7.8789,7.8789,7.8789,7.8789,7.813,7.7592,7.7143,7.6305,7.5916,7.5856,7.5168,7.4869,7.4869,7.4869,7.4869,7.4869,7.4869,7.4869,7.4869,7.4869,7.4869,7.4869,0.0,0.0,0.0,0.0,0.0,0.0,0.0,0.0,0.0,0.0,0.0,0.0,0.0,0.0,0.0,0.0,0.0,0.0,6.1132,6.5042,6.7992,6.977,7.2313,7.3674,7.3437,7.4582,7.5701,7.667,7.7642,7.8724,7.9702,8.1491,8.2193,8.2043,8.2743,8.22,8.1009,8.1157,8.02,7.8253,7.6806,7.5695,7.4551,7.0363,6.7787,6.5657,6.0705,5.8235,5.7141,5.6296,5.6536,5.7168,5.7231,5.8395,5.9943,6.0988,6.2862,6.5003,6.6944,6.9051,7.111,7.2834,7.3932,7.483,7.5506,7.5067,7.4371,7.3893,7.2871,7.2051,0.0,0.0,7.1505,7.2106,7.2797,7.3442,7.3911,7.4016,7.3881,0.0,0.0,0.0,0.0,0.0,0.0,7.4839,0.0,7.6185,7.6784,7.7442,7.81,7.8759,7.8789,7.8789,7.8789,7.8789,7.8789,7.8789,7.816,7.7861,7.7831,7.6574,7.5976,7.5916,7.5228,7.4899,7.4869,7.4869,7.4869,7.4869,7.4869,7.4869,7.4869,7.4869,7.4869,7.4869,0.0,0.0,0.0,0.0,0.0,0.0,0.0,0.0,0.0,0.0,0.0,0.0,0.0,0.0,0.0,0.0,0.0,0.0,5.8852,6.1465,6.3463,6.444,6.616,6.7093,6.7167,6.8466,6.9538,7.0285,7.183,7.3225,7.4394,7.5628,7.6565,7.744,7.764,7.761,7.748,7.7682,7.6604,7.4484,7.3352,7.1539,6.9065,6.6311,6.4112,6.2061,5.9348,5.7904,5.7037,5.4877,0.0,0.0,0.0,5.9735,6.152,6.3728,6.5428,6.7076,6.9561,7.1359,7.2801,7.3743,7.4708,7.5337,7.4965,7.404,7.3083,7.2451,7.1147,7.0008,0.0,0.0,0.0,7.091,7.2039,0.0,7.4241,7.4547,0.0,0.0,0.0,7.3971,7.3881,7.433,0.0,0.0,7.5527,7.6185,7.6784,7.7442,7.81,7.8759,7.8789,7.8789,7.8789,7.8789,7.8789,7.8789,7.8609,7.8549,7.8519,7.7682,7.7053,7.6574,7.5916,7.5347,7.4869,7.4869,7.4869,7.4869,7.4869,7.4869,7.4869,7.4869,7.4869,7.4869,0.0,0.0,0.0,0.0,0.0,0.0,0.0,0.0,0.0,0.0,0.0,0.0,0.0,0.0,0.0,0.0,0.0,0.0,0.0,5.9109,6.0536,6.1376,6.2563,6.3062,6.2837,6.3742,6.4544,6.5282,6.6319,6.7589,6.8765,7.0043,7.1161,7.2114,7.2745,7.2776,7.2371,7.2753,7.1572,0.0,0.0,6.7275,6.521,6.323,6.165,6.0137,5.8356,5.745,0.0,0.0,0.0,5.8991,6.0558,6.2425,6.4518,6.6396,0.0,7.0182,7.2462,7.3682,7.4472,7.5248,7.5344,7.5033,7.4289,7.2759,7.1304,7.044,6.8977,0.0,6.7615,0.0,0.0,0.0,0.0,0.0,7.4293,7.5195,7.5377,0.0,7.4841,0.0,7.433,7.4929,7.5318,0.0,7.5946,7.6455,7.6814,7.7711,7.84,7.8789,7.8789,7.8789,7.8789,7.8789,7.8789,7.8789,7.8789,7.8789,7.8759,7.81,7.7592,7.7233,0.0,7.5946,7.5318,7.5318,7.5138,7.4869,7.4869,7.4869,7.4869,7.4869,7.4869,7.4869,0.0,0.0,0.0,0.0,0.0,0.0,0.0,0.0,0.0,0.0,5.3856,5.3788,0.0,0.0,0.0,0.0,0.0,0.0,0.0,0.0,5.883,5.9463,6.0285,6.0489,5.9724,6.0004,6.0518,6.1218,6.1438,6.2199,6.3534,6.5017,6.6012,6.6641,6.7928,6.7889,6.6974,6.7424,6.6363,6.4472,6.4035,6.3309,6.232,0.0,5.9868,5.9064,5.7606,5.7163,0.0,0.0,6.1633,6.208,6.3758,6.5882,6.795,6.9157,7.1265,7.3553,7.5224,7.5822,7.6149,7.6758,7.5811,7.4492,7.3544,7.1435,6.9278,6.8194,0.0,6.5371,6.5279,6.6282,6.7651,6.8984,0.0,7.3432,7.4364,7.574,7.6365,7.5685,7.555,7.5444,7.5018,7.5557,7.5946,7.6006,7.6604,7.6963,7.6963,7.813,7.8789,7.8789,7.8789,7.8789,7.8789,7.8789,7.8789,7.8789,7.8789,7.8789,7.8759,7.819,7.7891,7.7771,0.0,0.0,7.6036,7.6036,7.5617,7.5018,7.5018,7.4958,7.4869,7.4869,7.4869,7.4869,0.0,0.0,0.0,0.0,0.0,0.0,0.0,0.0,0.0,0.0,5.5716,5.5344,0.0,0.0,0.0,0.0,0.0,0.0,0.0,0.0,0.0,5.7243,5.7752,5.7691,5.6852,5.7213,5.7771,5.826,5.826,5.8972,6.0397,6.0656,6.1611,6.302,6.3285,6.3511,6.3617,6.3869,6.3093,6.1581,6.1559,6.0684,5.9439,5.8974,0.0,0.0,5.7763,0.0,0.0,0.0,6.2695,6.3762,6.6635,6.8693,7.0456,7.2714,7.4085,7.5291,7.71,7.7604,7.7468,7.7029,7.6183,7.4999,7.3037,7.0659,0.0,0.0,6.4285,6.2946,6.2562,6.4153,0.0,6.7657,0.0,0.0,0.0,0.0,7.7015,0.0,0.0,0.0,0.0,0.0,0.0,0.0,0.0,0.0,7.7652,7.837,7.8789,7.8789,7.8789,7.8789,7.8789,7.8789,7.8789,7.8789,7.8789,7.8789,7.8789,7.8669,7.831,7.7801,7.7682,0.0,7.6664,7.6664,7.6305,7.5736,7.5736,7.5377,7.4869,7.4869,7.4869,7.4869,0.0,0.0,0.0,0.0,0.0,0.0,0.0,5.6461,5.7679,5.8423,5.8592,5.8017,5.6461,5.6292,5.6122,0.0,0.0,0.0,0.0,0.0,0.0,0.0,0.0,0.0,5.6384,5.6384,0.0,0.0,0.0,5.684,5.7753,0.0,5.8921,6.0056,6.0455,6.0551,6.0537,6.0695,6.0213,5.917,5.9245,5.8916,5.8275,0.0,0.0,0.0,0.0,0.0,0.0,0.0,6.3202,6.4741,6.8223,7.0636,7.2523,7.4472,7.5822,7.7067,7.828,7.828,7.7908,7.7536,7.5709,7.351,7.165,0.0,0.0,0.0,6.1948,6.0853,6.1198,0.0,0.0,0.0,0.0,0.0,0.0,0.0,0.0,0.0,0.0,0.0,0.0,0.0,0.0,0.0,0.0,0.0,7.7831,7.843,7.8789,7.8789,7.8789,7.8789,7.8789,7.8789,7.8789,7.8789,7.8789,7.8789,7.8789,7.8789,7.8609,7.831,7.831,0.0,7.7352,7.7352,7.6963,7.6365,7.6036,7.5707,7.5377,7.5018,7.4869,7.4869,0.0,0.0,0.0,0.0,0.0,0.0,5.5818,5.7814,5.9573,6.0452,6.1434,6.0994,5.8287,5.7577,5.6968,0.0,0.0,0.0,0.0,0.0,0.0,0.0,0.0,0.0,0.0,0.0,0.0,0.0,0.0,0.0,0.0,0.0,0.0,0.0,0.0,5.8652,5.8312,5.8463,5.8201,0.0,0.0,5.7881,0.0,0.0,0.0,0.0,0.0,0.0,0.0,0.0,6.3125,6.4986,6.8571,7.1244,7.3375,7.5168,7.669,7.7942,7.8855,7.8686,7.8145,7.7841,7.5168,7.2157,7.0364,6.71,0.0,6.1971,6.0224,5.9385,6.0192,0.0,0.0,0.0,0.0,0.0,0.0,0.0,0.0,0.0,0.0,0.0,0.0,0.0,0.0,0.0,0.0,0.0,0.0,7.8519,7.8789,7.8789,7.8789,7.8789,7.8789,7.8789,7.8789,7.8789,7.8789,7.8789,7.8789,7.8789,7.8789,7.8789,7.8789,0.0,0.0,7.8011,7.7622,7.6993,7.6514,7.6215,7.6006,7.5347,7.5078,7.5078,0.0,0.0,0.0,0.0,0.0,0.0,5.6494,5.8592,6.052,6.1975,6.3429,6.3666,6.2042,6.0047,5.849,0.0,0.0,0.0,0.0,0.0,0.0,0.0,0.0,0.0,0.0,0.0,0.0,0.0,0.0,0.0,0.0,0.0,0.0,0.0,0.0,0.0,0.0,5.7983,0.0,0.0,0.0,0.0,0.0,0.0,0.0,0.0,0.0,0.0,0.0,0.0,0.0,6.414,6.7151,6.9688,7.2056,7.4864,0.0,0.0,7.872,7.9058,7.8686,7.7333,7.5168,7.2665,6.9823,0.0,6.3924,6.1526,5.9799,5.884,5.9252,6.0536,0.0,0.0,0.0,7.0778,0.0,0.0,0.0,0.0,0.0,0.0,0.0,0.0,0.0,0.0,0.0,0.0,0.0,7.8759,7.8789,7.8789,7.8789,7.8789,7.8789,7.8789,7.8789,7.8789,7.8789,7.8789,7.8789,7.8789,7.8789,7.8789,7.8789,0.0,0.0,7.8699,7.831,7.7711,7.7652,7.7263,7.6664,7.6036,7.5826,7.5707,0.0,0.0,0.0,0.0,0.0,0.0,5.7239,5.9742,6.2009,6.3531,6.4613,6.4681,6.3226,6.1467,5.9911,5.866,0.0,0.0,0.0,0.0,0.0,0.0,0.0,0.0,0.0,0.0,0.0,5.7883,0.0,0.0,0.0,0.0,0.0,0.0,0.0,0.0,0.0,0.0,0.0,0.0,0.0,0.0,0.0,0.0,0.0,0.0,0.0,0.0,0.0,0.0,0.0,0.0,6.4444,6.6203,0.0,0.0,7.527,7.5946,7.7908,7.8111,7.7536,7.6454,7.4153,7.1515,6.8944,0.0,6.2674,6.0695,5.9069,5.8186,5.8619,5.991,6.1467,0.0,6.6171,0.0,7.0503,0.0,0.0,0.0,0.0,0.0,0.0,0.0,0.0,0.0,0.0,0.0,0.0,7.8789,7.8789,7.8789,7.8789,7.8789,7.8789,7.8789,7.8789,7.8789,7.8789,7.8789,7.8789,7.8789,7.8789,7.8789,7.8789,0.0,0.0,7.8789,7.8639,7.837,7.7981,7.7652,7.7352,7.6694,7.6455,7.6365,0.0,0.0,0.0,0.0,0.0,5.6122,5.7374,6.0114,6.2516,6.3768,6.4783,6.4884,6.3666,6.2178,6.0791,5.9438,5.8457,0.0,0.0,0.0,0.0,0.0,0.0,0.0,0.0,0.0,5.8268,5.8774,5.832,0.0,0.0,0.0,0.0,0.0,0.0,0.0,0.0,0.0,0.0,0.0,0.0,0.0,0.0,0.0,0.0,0.0,0.0,0.0,0.0,0.0,0.0,0.0,0.0,0.0,0.0,0.0,7.3477,7.4119,7.6386,7.6623,7.6048,7.5236,7.3003,7.0398,0.0,0.0,6.1941,6.0266,5.8706,5.7823,5.8413,5.951,6.0846,6.22,6.4819,6.7231,6.8933,7.1394,0.0,0.0,0.0,0.0,0.0,0.0,0.0,0.0,0.0,0.0,0.0,7.8789,7.8789,7.8789,7.8789,7.8789,7.8789,7.8789,7.8789,7.8789,7.8789,7.8789,7.8789,7.8789,7.8789,7.8789,0.0,0.0,0.0,7.8789,7.8789,7.8729,7.828,7.81,7.8011,7.7352,7.7113,7.7023,0.0,0.0,0.0,0.0,0.0,5.5953,5.6697,5.937,6.1569,6.2313,6.37,6.4343,6.3599,6.2178,6.096,6.0148,5.8727,0.0,0.0,0.0,0.0,0.0,0.0,0.0,0.0,0.0,5.8998,5.9032,5.9742,6.008,6.008,5.9336,0.0,0.0,0.0,0.0,0.0,0.0,0.0,0.0,0.0,0.0,0.0,0.0,0.0,0.0,0.0,0.0,0.0,0.0,0.0,0.0,0.0,6.1839,6.3429,6.8707,7.077,7.1819,7.4052,7.4661,7.4458,7.3713,7.1819,6.9586,0.0,0.0,6.1941,6.0419,5.893,5.8045,5.8564,5.9338,6.0236,6.1527,6.3883,6.6289,6.8164,7.0965,0.0,0.0,0.0,0.0,0.0,0.0,0.0,0.0,0.0,0.0,0.0,0.0,7.8789,7.8789,7.8789,7.8789,7.8789,7.8789,7.8789,7.8789,7.8789,7.8789,7.8789,7.8789,7.8789,0.0,0.0,0.0,0.0,7.8789,7.8789,7.8789,7.8789,7.8789,7.8699,7.8041,7.7801,7.7711,0.0,0.0,0.0,0.0,0.0,0.0,5.6596,5.849,6.0182,6.1467,6.2482,6.2821,6.2076,6.1095,6.0182,5.9438,5.8457,0.0,0.0,0.0,0.0,0.0,0.0,0.0,0.0,5.8626,5.9539,6.0588,6.0825,6.1434,6.2415,6.1163,6.0588,6.052,0.0,0.0,0.0,0.0,0.0,0.0,0.0,0.0,0.0,0.0,0.0,0.0,0.0,0.0,0.0,0.0,0.0,0.0,0.0,0.0,0.0,6.3937,6.6812,6.935,7.1109,7.1954,7.2191,7.1413,6.9925,6.803,6.5797,0.0,6.1197,5.9674,5.8592,5.7949,5.8113,5.9194,6.027,6.1252,6.3661,6.6012,6.7701,0.0,0.0,0.0,0.0,0.0,0.0,0.0,0.0,0.0,0.0,0.0,0.0,0.0,7.8789,7.8789,7.8789,7.8789,7.8789,7.8789,7.8789,7.8789,7.8789,7.8789,7.8789,7.8789,0.0,0.0,0.0,0.0,0.0,7.8789,7.8789,7.8789,7.8789,7.8789,7.8759,7.8549,7.8489,7.84,0.0,0.0,0.0,0.0,0.0,0.0,5.5818,5.7476,5.893,5.9877,6.0892,6.1366,6.0892,6.0148,5.9505,5.9066,5.8321,0.0,0.0,0.0,0.0,0.0,0.0,0.0,5.8321,5.9336,6.0622,6.2144,6.2685,6.3565,6.4715,6.326,6.2415,6.2042,6.025,5.9268,0.0,0.0,0.0,0.0,0.0,0.0,5.7881,0.0,0.0,0.0,0.0,0.0,0.0,0.0,0.0,0.0,0.0,0.0,0.0,0.0,6.3159,6.5865,6.7929,6.9045,6.9519,6.9045,6.7793,6.6237,6.458,0.0,6.052,5.9268,5.8423,5.7881,5.7881,5.9099,6.0358,6.1198,6.3471,6.5745,6.7277,0.0,0.0,0.0,0.0,0.0,0.0,0.0,0.0,0.0,0.0,0.0,0.0,0.0,7.8789,7.8789,7.8789,7.8789,7.8789,7.8789,7.8789,7.8789,7.8789,7.8789,7.8789,7.8789,0.0,0.0,0.0,0.0,0.0,7.8789,7.8789,7.8789,7.8789,7.8789,7.8789,7.8789,7.8789,7.8729,0.0,0.0,0.0,0.0,0.0,0.0,0.0,5.6325,5.7679,5.7814,5.8998,5.9877,5.9945,5.9336,5.893,5.893,5.8287,0.0,0.0,0.0,0.0,0.0,0.0,0.0,5.8998,6.052,6.2042,6.3599,6.5053,6.617,6.6948,6.5459,6.441,6.3632,6.1298,5.981,0.0,0.0,0.0,0.0,5.7983,5.7949,0.0,0.0,0.0,0.0,0.0,0.0,0.0,0.0,0.0,0.0,0.0,0.0,0.0,0.0,0.0,0.0,0.0,6.5865,6.6576,6.6576,6.5493,6.4241,6.3531,6.1637,0.0,0.0,0.0,5.7915,5.7949,5.9133,6.0391,6.1265,6.3417,6.5498,6.7138,0.0,0.0,0.0,0.0,0.0,0.0,0.0,0.0,0.0,0.0,0.0,0.0,0.0,7.8789,7.8789,7.8789,7.8789,7.8789,7.8789,7.8789,7.8789,7.8789,7.8789,7.8789,7.8789,0.0,0.0,0.0,0.0,0.0,7.8789,7.8789,7.8789,7.8789,7.8789,7.8789,7.8789,7.8789,7.8789,0.0,0.0,0.0,0.0,0.0,0.0,0.0,0.0,0.0,0.0,5.7374,5.778,5.8355,5.8254,5.8152,0.0,0.0,0.0,0.0,0.0,0.0,0.0,0.0,0.0,5.8998,6.052,6.2313,6.4343,6.5831,6.7252,6.8538,6.7015,6.6203,6.5899,6.3091,6.1095,0.0,0.0,0.0,0.0,5.8761,5.8389,0.0,0.0,0.0,0.0,5.7881,5.7881,0.0,0.0,0.0,0.0,0.0,0.0,0.0,0.0,5.8829,5.9708,6.0385,0.0,6.4309,6.4309,6.3599,6.2719,0.0,6.0486,0.0,0.0,0.0,0.0,0.0,5.9505,6.0637,6.2211,6.4042,6.6035,6.829,0.0,0.0,0.0,0.0,0.0,0.0,0.0,0.0,0.0,0.0,0.0,0.0,0.0,7.8789,7.8789,7.8789,7.8789,7.8789,7.8789,7.8789,7.8789,7.8789,7.8789,7.8789,7.8789,0.0,0.0,0.0,0.0,7.8789,7.8789,7.8789,7.8789,7.8789,7.8789,7.8789,7.8789,7.8789,7.8789,0.0,0.0,0.0,0.0,0.0,0.0,0.0,0.0,0.0,0.0,5.6596,5.707,5.7814,5.7881,5.7881,0.0,0.0,0.0,0.0,0.0,0.0,0.0,0.0,5.8389,5.9471,6.1028,6.3057,6.5628,6.7117,6.8808,7.0567,6.9079,6.8199,6.7692,6.4038,6.1535,0.0,0.0,0.0,5.9032,5.9032,0.0,0.0,0.0,0.0,0.0,5.7881,5.7881,0.0,5.8761,5.8524,5.8017,0.0,0.0,0.0,0.0,5.8186,5.8592,5.893,6.0452,6.1941,6.1941,6.14,6.0757,6.0351,5.9336,0.0,0.0,0.0,0.0,0.0,0.0,0.0,6.3266,6.526,6.7522,0.0,0.0,0.0,0.0,0.0,0.0,0.0,0.0,0.0,0.0,0.0,0.0,0.0,0.0,7.8789,7.8789,7.8789,7.8789,7.8789,7.8789,7.8789,7.8789,7.8789,7.8789,7.8789,7.8789,7.8789,0.0,0.0,0.0,7.8789,7.8789,7.8789,7.8789,7.8789,7.8789,7.8789,7.8789,7.8789,7.8789,0.0,0.0,0.0,0.0,0.0,0.0,0.0,0.0,0.0,0.0,0.0,0.0,0.0,0.0,0.0,0.0,0.0,0.0,0.0,0.0,0.0,0.0,5.8051,5.8761,6.025,6.1873,6.4174,6.7151,6.8707,7.05,7.2529,7.1041,6.9722,6.8402,6.4478,6.1873,6.0452,6.0452,5.9945,5.9167,5.9167,0.0,0.0,0.0,0.0,0.0,0.0,0.0,0.0,5.8761,5.8524,5.8017,5.8795,0.0,0.0,0.0,0.0,0.0,5.8795,5.9471,5.9979,6.0216,5.981,5.937,5.937,0.0,0.0,0.0,0.0,0.0,0.0,0.0,0.0,0.0,0.0,0.0,0.0,0.0,0.0,0.0,0.0,0.0,0.0,0.0,0.0,0.0,0.0,0.0,0.0,0.0,0.0,7.8789,7.8789,7.8789,7.8789,7.8789,7.8789,7.8789,7.8789,7.8789,7.8789,7.8789,7.8789,0.0,0.0,0.0,7.8789,7.8789,7.8789,7.8789,7.8789,7.8789,7.8789,7.8789,7.8789,7.8789,0.0,0.0,0.0,0.0,0.0,0.0,0.0,0.0,0.0,0.0,0.0,0.0,0.0,0.0,0.0,0.0,0.0,0.0,0.0,0.0,0.0,5.8829,5.8829,5.9573,6.1095,6.3193,6.573,6.8741,7.0229,7.1785,7.3274,7.1819,6.9383,6.6136,6.485,6.3429,6.2042,6.2042,6.1231,5.9945,5.9945,0.0,0.0,0.0,0.0,0.0,0.0,0.0,0.0,5.8761,5.8524,5.8017,5.8795,0.0,0.0,0.0,0.0,0.0,5.8795,5.9099,5.9505,6.0791,6.1028,6.096,6.096,6.0317,0.0,0.0,0.0,0.0,0.0,0.0,0.0,0.0,0.0,0.0,0.0,0.0,0.0,0.0,0.0,0.0,0.0,0.0,0.0,0.0,0.0,0.0,0.0,0.0,0.0,7.8789,7.8789,7.8789,7.8789,7.8789,7.8789,7.8789,7.8789,7.8789,7.8789,7.8789,7.8789,0.0,0.0,7.8789,7.8789,7.8789,7.8789,7.8789,7.8789,7.8789,7.8789,7.8789,7.8789,7.8789,0.0,0.0,0.0,0.0,0.0,0.0,0.0,0.0,0.0,0.0,0.0,0.0,0.0,0.0,0.0,0.0,0.0,0.0,0.0,0.0,5.8829,5.9573,6.0791,6.1772,6.2482,6.4681,6.7286,7.0297,7.1785,7.3477,7.527,7.2969,7.0094,6.6779,6.4884,6.3193,6.1772,6.1332,6.052,5.9505,0.0,0.0,0.0,0.0,0.0,0.0,0.0,0.0,0.0,0.0,5.8524,5.8017,5.8795,0.0,0.0,0.0,0.0,0.0,5.9302,5.9607,5.9979,6.1501,6.1264,6.0757,6.1197,0.0,0.0,0.0,0.0,0.0,0.0,0.0,0.0,0.0,0.0,0.0,0.0,0.0,0.0,0.0,0.0,0.0,0.0,0.0,0.0,0.0,0.0,0.0,0.0,0.0,0.0,0.0,7.8789,7.8789,7.8789,7.8789,7.8789,7.8789,7.8789,7.8789,7.8789,7.8789,7.8789,7.8789,0.0,7.8789,7.8789,7.8789,7.8789,7.8789,7.8789,7.8789,7.8789,7.8789,7.8789,7.8789,0.0,0.0,0.0,0.0,0.0,0.0,0.0,0.0,0.0,0.0,0.0,0.0,0.0,0.0,0.0,0.0,0.0,0.0,0.0,5.8592,5.9438,6.0351,6.255,6.3937,6.4275,6.6643,6.935,7.2326,7.3646,7.4999,7.6318,7.3646,7.0703,6.7523,6.4918,6.2854,6.1264,6.0655,5.9844,5.9032,0.0,0.0,0.0,0.0,0.0,0.0,0.0,0.0,0.0,0.0,0.0,0.0,0.0,0.0,0.0,5.7881,5.7881,5.8186,5.9505,5.9979,6.0452,6.2009,6.1637,6.1095,6.1907,0.0,0.0,0.0,0.0,0.0,0.0,0.0,0.0,0.0,0.0,0.0,0.0,0.0,0.0,0.0,0.0,0.0,0.0,0.0,0.0,0.0,0.0,0.0,0.0,0.0,0.0,0.0,7.8789,7.8789,7.8789,7.8789,7.8789,7.8789,7.8789,7.8789,7.8789,7.8789,7.8789,7.8789,7.8789,7.8789,7.8789,7.8789,7.8789,7.8789,7.8789,7.8789,7.8789,7.8789,7.8789,7.8789,0.0,0.0,0.0,0.0,0.0,0.0,0.0,0.0,0.0,0.0,0.0,0.0,0.0,0.0,0.0,0.0,0.0,0.0,0.0,5.8592,5.9674,6.1163,6.3328,6.5155,6.6542,6.9485,7.2428,7.5371,7.6251,7.6014,7.4728,7.3138,7.0432,6.6812,6.5222,6.3328,6.1298,6.1231,6.0385,5.9032,5.9032,0.0,0.0,0.0,0.0,0.0,0.0,0.0,0.0,0.0,0.0,0.0,0.0,0.0,5.7881,5.7881,5.7881,5.8051,5.8863,5.9573,6.0452,6.2009,6.2821,0.0,6.4208,6.4884,0.0,6.7218,0.0,0.0,0.0,0.0,0.0,0.0,0.0,0.0,0.0,0.0,0.0,0.0,0.0,0.0,0.0,0.0,0.0,0.0,0.0,0.0,0.0,0.0,0.0,0.0,0.0,7.8789,7.8789,7.8789,7.8789,7.8789,7.8789,7.8789,7.8789,7.8789,7.8789,7.8789,7.8789,7.8789,7.8789,7.8789,7.8789,7.8789,7.8789,7.8789,7.8789,7.8789,7.8789,7.8789,0.0,0.0,0.0,0.0,0.0,0.0,0.0,0.0,0.0,0.0,0.0,0.0,0.0,0.0,0.0,0.0,0.0,0.0,0.0,5.8592,5.9708,6.1231,6.3429,6.5967,6.8842,7.1379,7.4119,7.713,7.8348,7.7942,7.598,7.3544,7.0635,6.7387,6.4986,6.2956,6.1231,6.0283,5.9539,5.8964,5.849,5.8152,0.0,0.0,0.0,0.0,0.0,0.0,0.0,0.0,5.7881,5.7881,5.7881,5.7881,5.7881,5.7881,5.7881,5.8152,5.937,5.9877,6.0588,6.2584,6.3971,0.0,0.0,6.6948,6.8233,6.9722,6.9815,0.0,0.0,0.0,0.0,0.0,0.0,0.0,0.0,0.0,0.0,0.0,0.0,0.0,0.0,0.0,0.0,0.0,0.0,0.0,0.0,0.0,0.0,0.0,0.0,7.8789,7.8789,7.8789,7.8789,7.8789,7.8789,7.8789,7.8789,7.8789,7.8789,7.8789,7.8789,7.8789,7.8789,7.8789,7.8789,7.8789,7.8789,7.8789,7.8789,7.8789,7.8789,7.8789,0.0,0.0,0.0,0.0,0.0,0.0,0.0,0.0,0.0,0.0,0.0,0.0,0.0,0.0,0.0,0.0,0.0,0.0,5.7881,5.8592,5.9573,6.0858,6.3057,6.5797,6.9045,7.1548,7.4627,7.8348,7.9363,7.8585,7.6115,7.3341,7.0567,6.7793,6.529,6.326,6.1569,6.052,5.9674,5.8964,5.8457,5.8084,0.0,0.0,0.0,0.0,0.0,0.0,0.0,0.0,5.7881,5.7881,5.7881,5.7881,5.7881,5.7881,5.7881,5.8152,5.9438,6.0114,6.1028,0.0,0.0,0.0,6.8301,6.9383,7.0703,7.2665,0.0,0.0,0.0,0.0,0.0,0.0,0.0,0.0,0.0,0.0,0.0,0.0,0.0,0.0,0.0,0.0,0.0,0.0,0.0,0.0,0.0,0.0,0.0,0.0,0.0,7.8789,7.8789,7.8789,7.8789,7.8789,7.8789,7.8789,7.8789,7.8789,7.8789,7.8789,7.8789,7.8789,7.8789,7.8789,7.8789,7.8789,7.8789,7.8789,7.8789,7.8789,7.8789,7.8789,0.0,0.0,0.0,0.0,0.0,0.0,0.0,0.0,5.8099,5.7954,5.7881,0.0,0.0,0.0,0.0,0.0,0.0,0.0,5.7881,5.8592,5.9336,6.0047,6.2279,6.4546,6.6745,6.9789,7.3883,7.9092,7.9058,7.7536,7.4559,7.2326,7.0094,6.7861,6.6373,6.4478,6.2415,6.2381,6.1095,5.9032,5.9032,5.8558,5.7915,0.0,0.0,0.0,0.0,0.0,0.0,0.0,5.7881,5.7881,5.7881,5.7881,5.7881,5.7881,5.7881,5.8051,5.8829,6.0148,0.0,0.0,0.0,0.0,7.1887,7.2428,7.3274,7.6284,0.0,0.0,0.0,0.0,0.0,0.0,0.0,0.0,0.0,0.0,0.0,0.0,0.0,0.0,0.0,0.0,0.0,0.0,0.0,0.0,0.0,0.0,0.0,0.0,7.8759,7.8759,7.8789,7.8789,7.8789,7.8789,7.8789,7.8789,7.8789,7.8789,7.8789,7.8789,7.8789,7.8789,7.8789,7.8789,7.8789,7.8789,7.8789,7.8789,7.8789,7.8789,7.8789,7.8789,0.0,0.0,0.0,0.0,0.0,0.0,0.0,0.0,5.8205,5.8099,5.7954,0.0,0.0,0.0,0.0,0.0,0.0,0.0,5.7881,5.8084,5.8558,5.9302,6.1028,6.3226,6.5967,6.9992,7.3612,7.6724,7.6183,7.5202,7.3781,7.1548,6.9891,6.8673,6.7151,6.5527,6.3869,6.2821,6.1704,6.052,5.9438,5.8896,5.8626,0.0,0.0,0.0,0.0,0.0,0.0,0.0,0.0,0.0,5.7881,5.7881,5.7881,5.7881,5.8254,5.8829,5.9573,0.0,0.0,0.0,0.0,0.0,0.0,7.3984,0.0,0.0,0.0,0.0,0.0,0.0,0.0,0.0,0.0,0.0,0.0,0.0,0.0,0.0,0.0,0.0,0.0,0.0,0.0,0.0,0.0,0.0,0.0,0.0,0.0,0.0,7.7412,7.7622,7.81,7.81,7.834,7.8789,7.8789,7.8789,7.8789,7.8789,7.8789,7.8789,7.8789,7.8789,7.8789,7.8789,7.8789,7.8789,7.8789,7.8789,7.8789,7.8789,7.8789,7.8789,0.0,0.0,0.0,0.0,0.0,0.0,0.0,0.0,5.8419,5.8348,5.8099,5.8027,0.0,0.0,0.0,0.0,0.0,0.0,5.8027,5.8027,5.823,5.8778,6.0163,6.229,6.5189,6.8504,7.0703,7.1718,7.28,7.2902,7.2124,7.05,6.9688,6.9451,6.7929,6.6406,6.4952,6.3768,6.2516,6.1231,6.0283,5.9573,5.8964,0.0,0.0,0.0,0.0,0.0,0.0,0.0,0.0,0.0,5.7881,5.7881,5.7881,5.7881,5.8423,5.9235,6.0283,0.0,0.0,0.0,0.0,0.0,0.0,0.0,0.0,0.0,0.0,0.0,0.0,0.0,0.0,0.0,0.0,0.0,0.0,0.0,0.0,0.0,0.0,0.0,0.0,0.0,0.0,0.0,0.0,0.0,0.0,0.0,0.0,0.0,7.6984,7.7164,7.7412,7.7412,7.7622,7.8296,7.8566,7.8686,7.8829,7.8813,7.8789,7.8789,7.8789,7.8789,7.8789,7.8789,7.8789,7.8789,7.8789,7.8789,7.8789,7.8789,7.8789,7.8789,0.0,0.0,5.4736,5.5391,0.0,0.0,0.0,0.0,5.8701,5.8561,5.8348,5.8277,0.0,0.0,0.0,0.0,0.0,0.0,5.8205,5.8277,5.8348,5.8593,5.9876,6.1868,6.4444,6.5831,6.6136,6.5392,6.9011,7.05,6.9857,6.9282,6.9417,7.0128,6.8639,6.7184,6.573,6.4884,6.3294,6.14,6.1264,6.0351,5.9099,5.9032,0.0,0.0,0.0,0.0,0.0,0.0,0.0,0.0,5.7712,5.778,5.7881,5.7814,5.8423,5.9438,0.0,0.0,0.0,0.0,0.0,0.0,0.0,0.0,0.0,0.0,0.0,0.0,0.0,0.0,0.0,0.0,0.0,0.0,0.0,0.0,0.0,0.0,0.0,0.0,0.0,0.0,0.0,0.0,0.0,0.0,0.0,0.0,0.0,0.0,7.7223,7.7114,7.6864,7.6864,7.7034,0.0,7.8006,7.8589,7.8929,7.8919,7.8933,7.8933,7.8933,7.8933,7.8933,7.8933,7.8789,7.8789,7.8789,7.8789,7.8789,7.8789,7.8789,7.8789,0.0,0.0,5.4563,5.4701,0.0,0.0,0.0,0.0,0.0,5.8701,0.0,0.0,0.0,0.0,0.0,0.0,0.0,0.0,5.8419,5.8419,5.8729,5.931,6.117,6.2717,6.3734,6.4072,6.3869,6.3091,6.5662,6.7117,6.7557,6.7963,6.8876,7.0161,6.9248,6.7996,6.644,6.4546,6.3125,6.2042,6.0858,6.0148,5.981,5.9235,5.8558,0.0,0.0,0.0,0.0,0.0,0.0,0.0,5.6359,5.6968,5.778,5.7205,5.8389,6.008,0.0,0.0,0.0,0.0,0.0,0.0,0.0,0.0,0.0,0.0,0.0,0.0,0.0,0.0,0.0,0.0,0.0,0.0,0.0,0.0,0.0,0.0,0.0,0.0,0.0,0.0,0.0,0.0,0.0,0.0,0.0,0.0,0.0,7.6274,7.6244,7.6456,7.6864,7.6864,7.7137,0.0,7.7971,7.8274,7.8929,7.9456,7.9617,7.9617,7.9617,7.9617,7.9617,7.9363,7.922,7.922,7.8933,7.8789,7.8789,7.8789,7.8789,7.8789,0.0,0.0,0.0,0.0,0.0,0.0,0.0,0.0,0.0,0.0,0.0,0.0,0.0,0.0,0.0,0.0,5.7738,5.8013,5.8083,5.8425,5.9074,6.0062,6.1449,6.2319,6.2448,6.2787,6.2245,6.0757,6.2651,6.4343,6.5797,6.7218,6.8538,6.962,6.8876,6.7489,6.5628,6.3768,6.2313,6.1231,6.0419,5.9877,5.9505,5.8761,5.8017,5.7273,5.6562,0.0,0.0,0.0,0.0,0.0,0.0,0.0,5.7374,5.734,5.8626,6.0351,0.0,0.0,0.0,0.0,0.0,0.0,0.0,0.0,0.0,0.0,0.0,0.0,0.0,0.0,0.0,0.0,0.0,0.0,0.0,0.0,0.0,0.0,0.0,0.0,0.0,0.0,0.0,0.0,0.0,0.0,0.0,7.6752,7.662,7.6221,7.6221,7.624,7.647,7.647,7.6787,7.7257,7.7592,7.8262,7.9514,7.9737,7.99,7.99,7.99,7.99,7.99,7.9759,7.9647,7.9647,7.922,7.9076,7.9076,7.8933,7.8789,7.8789,0.0,0.0,0.0,0.0,0.0,0.0,0.0,0.0,0.0,0.0,0.0,0.0,0.0,0.0,0.0,0.0,0.0,0.0,5.7604,5.8531,5.9455,6.0545,6.1257,6.1408,6.1172,6.1569,6.0892,5.9032,6.0419,6.2178,6.4275,6.6474,6.7996,6.8876,6.8064,6.6542,6.4512,6.2888,6.14,6.008,5.9945,5.9539,5.893,5.8186,5.7442,5.6697,5.5818,5.5513,5.5513,5.5378,0.0,0.0,0.0,0.0,5.6731,5.734,5.8558,6.008,0.0,0.0,0.0,0.0,0.0,0.0,0.0,0.0,0.0,0.0,0.0,0.0,0.0,0.0,0.0,0.0,0.0,0.0,0.0,0.0,0.0,0.0,0.0,0.0,0.0,0.0,0.0,0.0,0.0,0.0,7.7016,7.7016,7.6884,7.662,7.662,7.6488,7.6252,7.6118,7.6355,7.662,7.7294,7.8347,7.9786,7.9834,7.995,8.0041,8.0041,8.0041,8.0041,8.0041,8.0041,7.99,7.9647,7.9505,7.9363,7.9076,7.8789,7.8789,0.0,0.0,0.0,0.0,0.0,0.0,0.0,0.0,0.0,0.0,5.7012,5.6877,0.0,0.0,5.6739,5.6739,5.6808,5.7152,5.7807,0.0,0.0,6.0004,6.0545,6.07,6.0476,5.9817,5.9302,5.9032,5.9844,6.1095,6.2719,6.4952,6.6711,6.803,6.7286,6.6068,6.4478,6.2347,6.0926,6.0047,5.9404,5.9099,5.893,5.8186,5.7442,5.663,5.5243,5.4735,5.4634,5.4025,5.4228,0.0,0.0,0.0,5.5886,5.5987,5.7036,5.866,0.0,0.0,0.0,0.0,0.0,0.0,0.0,0.0,0.0,0.0,0.0,0.0,0.0,0.0,0.0,0.0,0.0,0.0,0.0,0.0,0.0,0.0,0.0,0.0,0.0,0.0,0.0,0.0,0.0,0.0,7.7016,7.7016,7.7016,7.6884,7.6884,7.6884,7.6884,7.6884,7.6884,7.6884,7.756,7.799,7.8339,7.9496,8.0387,8.091,8.091,8.091,8.091,8.0632,8.0492,8.0352,8.0041,7.9647,7.9363,7.9363,7.9076,7.8789,0.0,0.0,0.0,0.0,0.0,0.0,0.0,0.0,0.0,0.0,0.0,5.615,0.0,5.577,5.5529,5.5529,5.5908,5.646,5.7219,5.8323,5.9047,5.9217,5.9758,5.995,5.9803,5.9423,5.8976,5.8535,5.9689,6.1045,6.2571,6.4322,6.5865,6.7252,6.6508,6.5121,6.3226,6.14,5.9945,5.8829,5.8524,5.8389,5.8287,5.7543,5.707,5.6596,5.5108,5.46,5.4465,5.3754,5.3721,5.3991,5.4093,0.0,0.0,0.0,5.6461,0.0,0.0,0.0,0.0,0.0,0.0,0.0,0.0,0.0,0.0,0.0,0.0,0.0,0.0,0.0,0.0,0.0,0.0,0.0,0.0,0.0,0.0,0.0,0.0,0.0,0.0,0.0,0.0,0.0,0.0,7.7016,7.7016,7.7016,7.7016,7.7016,7.7016,7.7016,7.7016,7.7016,7.7016,7.7016,7.7323,7.7662,7.8062,7.8678,7.9509,8.0555,8.0925,8.1079,8.1079,8.091,8.0771,8.0771,8.0322,8.0041,7.9647,7.9505,7.9076,7.8789,0.0,0.0,0.0,0.0,0.0,0.0,0.0,0.0,0.0,0.0,0.0,0.0,0.0,0.0,0.0,0.0,5.5012,5.5667,5.646,5.7219,5.7876,5.8462,5.8871,5.9139,5.9166,5.9094,5.8821,5.8277,5.9667,6.1197,6.2761,6.3983,6.5392,6.6779,6.5831,6.4275,6.2279,6.0757,5.9235,5.7881,5.7881,5.8017,5.8084,5.734,5.707,5.69,5.5615,5.504,5.4803,5.4262,5.3923,5.389,5.4431,5.4465,0.0,0.0,0.0,0.0,0.0,0.0,0.0,0.0,0.0,0.0,0.0,0.0,0.0,0.0,0.0,0.0,0.0,0.0,0.0,0.0,0.0,0.0,0.0,0.0,0.0,0.0,0.0,0.0,0.0,0.0,0.0,0.0,0.0,7.7016,7.7016,7.7016,7.7016,7.7016,7.7016,7.7016,7.7016,7.7016,7.7016,7.7016,7.7016,7.7293,7.7785,7.7939,7.8709,7.9878,8.0525,8.0925,8.1079,8.1079,8.1079,8.1079,8.0771,8.0322,7.99,7.9647,7.922,7.8789,0.0,0.0,0.0,0.0,0.0,0.0,0.0,0.0,0.0,0.0,0.0,0.0,5.4563,5.4529,5.4494,5.4494,5.4563,5.4874,5.5632,5.6426,5.7185,5.7943,5.7775,0.0,5.8839,5.8629,5.8524,5.849,5.9774,6.1197,6.2761,6.3983,6.5392,6.6745,6.529,6.3802,6.2279,6.0757,5.9235,5.7881,5.7881,5.8321,5.8863,5.8118,5.7814,5.7712,5.6968,5.6258,5.5649,5.5615,5.5141,5.4532,5.4566,5.4126,5.3687,0.0,0.0,0.0,0.0,0.0,0.0,0.0,0.0,0.0,0.0,0.0,0.0,0.0,0.0,0.0,0.0,0.0,0.0,0.0,0.0,0.0,0.0,0.0,0.0,0.0,0.0,0.0,0.0,0.0,0.0,0.0,0.0,7.7016,7.7016,7.7016,7.7016,7.7016,7.7016,7.7016,7.7016,7.7016,7.7016,7.7016,7.7016,7.7046,7.7077,7.7724,7.8432,7.9201,7.9878,8.0494,8.1079,8.1079,8.1079,8.1079,8.1079,8.0632,7.99,7.99,7.9475,7.8789,0.0,0.0,0.0,0.0,0.0,0.0,0.0,0.0,0.0,0.0,0.0,0.0,0.0,5.4494,5.4494,5.4494,5.4494,5.4632,5.4908,5.5632,5.615,5.6426,5.6709,5.702,5.7329,5.7707,5.7947,5.7947,5.9276,6.0632,6.2131,6.2843,6.3971,6.5392,6.5324,6.4478,6.3057,6.2009,6.0689,5.9302,5.9302,5.9776,6.0452,6.0182,6.0385,0.0,0.0,0.0,0.0,5.69,5.5919,5.5243,5.4735,5.4093,5.3551,5.3822,5.4769,5.6258,0.0,0.0,0.0,0.0,0.0,0.0,0.0,0.0,0.0,0.0,0.0,0.0,0.0,0.0,0.0,0.0,0.0,0.0,0.0,0.0,0.0,0.0,0.0,0.0,0.0,0.0,0.0,0.0,0.0,0.0,7.7016,7.7016,7.7016,7.7016,7.7016,7.7016,7.7016,7.7016,7.7016,7.7016,7.7016,7.7016,7.7016,7.7262,7.7754,7.8462,7.917,8.0063,8.1079,8.1079,8.1079,8.1079,8.1079,8.0771,8.0182,8.0041,7.9617,7.9076,0.0,0.0,0.0,0.0,0.0,5.5081,5.4563,5.4494,5.4598,5.4839,0.0,0.0,0.0,0.0,5.5184,5.4908,5.4874,5.477,5.4529,5.4977,5.5357,5.5598,5.5985,5.6297,5.6572,5.7053,5.7328,5.7328,5.8631,5.9929,6.1121,6.1766,6.273,6.3869,6.4343,6.4038,6.3091,6.2347,6.1264,6.0114,6.0114,6.0723,6.167,0.0,0.0,0.0,0.0,0.0,0.0,0.0,5.7645,5.6664,5.5649,5.4499,5.3518,5.3518,5.4025,5.5006,5.7002,0.0,0.0,0.0,0.0,0.0,0.0,0.0,0.0,0.0,0.0,0.0,0.0,0.0,0.0,0.0,0.0,0.0,0.0,0.0,0.0,0.0,0.0,0.0,0.0,0.0,0.0,0.0,0.0,0.0,7.7016,7.7016,7.7016,7.7016,7.7016,7.7016,7.7016,7.7016,7.7016,7.7016,7.7016,7.7016,7.7016,7.7016,7.7385,7.8062,7.8801,7.9724,8.0771,8.0986,8.1079,8.1079,8.1079,8.091,8.0492,8.0182,7.99,7.9505,0.0,0.0,5.5391,5.4701,5.4563,5.4563,5.4563,5.4563,5.4839,5.5563,0.0,0.0,0.0,0.0,0.0,5.5736,5.5632,5.5322,5.4598,5.4529,5.4839,5.5563,5.5598,5.5943,5.6736,5.6736,5.6771,5.6771,5.8015,5.8905,5.9583,6.083,6.1723,6.2279,6.2313,6.2313,6.2279,6.1603,6.0858,6.0148,0.0,6.1095,6.2448,0.0,0.0,0.0,6.3632,6.3159,0.0,0.0,0.0,0.0,5.7273,5.5277,5.3551,5.3551,5.4025,5.4905,0.0,0.0,0.0,0.0,0.0,0.0,0.0,0.0,0.0,0.0,0.0,0.0,0.0,0.0,0.0,0.0,0.0,0.0,0.0,0.0,0.0,0.0,0.0,0.0,0.0,0.0,0.0,0.0,0.0,7.7377,7.7016,7.7016,7.7016,7.7016,7.7016,7.7016,7.7016,7.7016,7.7016,7.7016,7.7016,7.7016,7.7016,7.7016,7.7385,7.8031,7.877,7.9447,8.0124,8.0802,8.1079,8.1079,8.1079,8.091,8.0492,8.0492,8.0182,7.99,0.0,5.546,5.5736,5.6115,5.615,5.615,5.615,5.615,5.6253,0.0,0.0,0.0,5.6771,5.6805,5.6943,5.7253,5.6253,5.5529,5.5322,5.4805,5.4598,5.4805,5.4805,5.4908,5.515,5.5667,5.5943,5.5943,5.6709,5.7432,5.8187,5.8825,5.9457,6.0204,6.0562,6.0723,6.0791,6.1704,0.0,6.1061,6.2144,6.3125,0.0,0.0,0.0,0.0,0.0,6.6102,0.0,0.0,6.2685,6.0825,0.0,5.5209,5.4296,5.4296,5.4431,5.4905,5.6393,0.0,0.0,0.0,0.0,0.0,0.0,0.0,0.0,0.0,0.0,0.0,0.0,0.0,0.0,0.0,0.0,0.0,0.0,0.0,0.0,0.0,0.0,0.0,0.0,0.0,0.0,0.0,7.831,7.7797,7.7377,7.7147,7.7016,7.7016,7.7016,7.7016,7.7016,7.7016,7.7016,7.7016,7.7016,7.7016,7.7016,7.7016,7.7108,7.7354,7.8031,7.8739,7.9478,8.0617,8.1079,8.1079,8.1079,8.1079,8.091,8.0632,8.0492,8.0322,5.546,5.5598,5.5874,5.6667,5.7047,5.7253,5.7253,5.7529,5.784,0.0,0.0,0.0,5.8633,5.8668,5.8599,5.8392,5.7564,5.6633,5.5667,5.5219,5.4977,5.4977,5.4977,5.5115,5.546,5.5563,5.5598,5.5598,5.595,5.6331,5.6711,5.7123,5.7596,5.7967,5.8157,5.8457,5.8795,6.0013,0.0,0.0,6.2584,0.0,0.0,6.5865,6.7083,0.0,0.0,0.0,6.8166,6.6508,6.4377,0.0,0.0,0.0,0.0,5.5141,5.5074,5.531,5.6494,5.7103,5.778,0.0,0.0,0.0,6.3971,6.6136,0.0,0.0,0.0,0.0,0.0,0.0,0.0,0.0,0.0,0.0,0.0,0.0,0.0,0.0,0.0,0.0,0.0,0.0,0.0,7.9162,7.8564,7.8054,7.7507,7.7147,7.7016,7.7016,7.7016,7.7016,7.7016,7.7016,7.7016,7.7016,7.7016,7.7016,7.7016,7.7016,7.7016,7.7046,7.7724,7.8432,7.917,8.0248,8.0832,8.1079,8.1079,8.1079,8.1079,8.0771,8.0771,8.0771,0.0,5.5805,5.615,5.7012,5.7805,5.8288,5.8288,5.8909,5.9599,0.0,6.0392,6.0771,6.1599,6.153,6.0875,5.953,5.915,5.8116,5.6012,5.5805,5.5736,5.5736,5.5736,5.6081,5.6771,5.6115,5.5701,5.5598,5.5598,5.5533,5.5304,5.5824,5.6065,5.5893,5.5753,5.6122,5.6833,5.7476,5.9099,6.1264,6.2245,6.3971,0.0,0.0,6.8132,0.0,6.9485,6.9519,6.9417,6.8368,6.5696,0.0,0.0,0.0,0.0,0.0,5.6156,5.6258,5.6968,5.7171,5.7476,5.8795,0.0,0.0,6.1975,6.3463,6.5155,0.0,0.0,0.0,0.0,0.0,0.0,0.0,0.0,0.0,0.0,0.0,0.0,0.0,0.0,0.0,0.0,8.0575,7.9936,7.9033,7.866,7.8185,7.7543,7.7085,7.7016,7.7016,7.7016,7.7016,7.7016,7.7016,7.7016,7.7016,7.7016,7.7016,7.7016,7.7016,7.7016,7.7046,7.7662,7.837,7.9139,7.9755,8.0432,8.1079,8.1079,8.1079,8.1079,8.1079,8.1079,8.1079,5.6529,5.7047,5.7909,5.9288,6.0151,6.0634,6.0634,6.1323,6.1634,6.1151,6.1634,6.2565,6.3876,6.2979,6.2117,6.1841,6.0082,5.8564,5.7529,5.6909,5.6564,5.6564,5.6564,5.6633,5.6805,5.6633,5.6253,5.5598,5.5598,5.5322,5.4672,5.5269,5.548,5.5314,5.5723,5.6263,5.6799,5.6934,5.8287,6.0554,6.3125,0.0,6.7624,6.9011,7.0466,7.1751,7.1751,7.2124,7.2225,0.0,6.7151,6.4647,0.0,0.0,0.0,0.0,0.0,0.0,0.0,0.0,0.0,0.0,0.0,0.0,6.1467,6.3125,6.4715,0.0,0.0,0.0,0.0,0.0,0.0,0.0,0.0,0.0,0.0,0.0,0.0,0.0,0.0,0.0,0.0,8.0274,7.943,7.857,7.7776,7.7243,7.7116,7.6969,7.7016,7.7016,7.7016,7.7016,7.7016,7.7016,7.7016,7.7016,7.7016,7.7016,7.7016,7.7016,7.7016,7.7016,7.7169,7.7939,7.9109,7.9232,8.0001,8.1079,8.1079,8.1079,8.1079,8.1079,8.1079,8.1079,5.7288,5.7667,5.8392,5.9944,6.1151,6.2013,6.2393,6.3427,6.4048,6.3634,6.3945,6.4462,6.5221,6.4709,6.4023,6.3263,6.1847,6.0289,5.8665,5.7904,5.7423,5.7357,5.7357,5.7529,5.7909,5.7529,5.6978,5.6219,5.5805,5.5219,5.4529,5.4716,5.4758,5.4661,5.5213,5.5756,5.6467,5.7107,5.8863,6.1366,6.2888,0.0,6.7557,6.9451,7.1109,7.2462,7.28,7.2935,7.2665,7.0838,6.8673,0.0,0.0,6.299,6.1738,0.0,6.0723,6.0317,0.0,0.0,0.0,6.0588,0.0,0.0,0.0,6.1264,0.0,0.0,0.0,0.0,0.0,0.0,0.0,0.0,0.0,0.0,0.0,0.0,0.0,0.0,0.0,0.0,0.0,7.932,7.8616,7.8002,7.7299,7.6745,7.6525,7.6329,7.6129,7.6,7.6338,7.6523,7.6523,7.6862,7.7016,7.7016,7.7016,7.7016,7.7016,7.7016,7.7016,7.7016,7.7016,7.7816,7.9109,7.9109,7.9878,8.1079,8.1079,8.1079,8.1079,8.1079,8.1079,8.1079,5.7564,5.7805,5.8392,5.9944,6.1461,6.2703,6.3289,6.4807,6.5945,6.6083,6.6221,6.629,6.629,6.6519,6.6006,6.4481,6.362,6.2231,5.9941,5.9042,5.849,5.8116,5.8116,5.8392,5.9012,5.8288,5.7529,5.6805,5.6012,5.5219,5.4529,5.4303,5.4308,5.4415,5.4904,5.5621,5.6505,5.7688,0.0,6.2415,0.0,6.4546,6.7692,6.9958,7.165,7.2935,7.3646,7.3443,7.2699,7.1819,0.0,6.8301,6.6812,6.5425,0.0,0.0,0.0,0.0,0.0,0.0,0.0,0.0,0.0,5.9776,0.0,0.0,0.0,0.0,0.0,0.0,0.0,0.0,0.0,0.0,0.0,0.0,0.0,0.0,0.0,0.0,0.0,0.0,0.0,7.7841,7.7311,7.6933,7.6656,7.6329,7.5621,7.5463,7.5366,7.5015,7.5661,7.6,7.6,7.6677,7.7016,7.7016,7.7016,7.7016,7.7016,7.7016,7.7016,7.7016,7.7016,7.7724,7.8893,7.9047,7.9786,8.0894,8.1017,8.1079,8.1079,8.1079,8.1079,8.1079,5.6909,5.746,5.8392,5.9944,6.1461,6.253,6.2599,6.4462,6.6117,6.6773,6.7428,6.7842,6.7842,6.7999,6.753,6.6041,0.0,0.0,6.1502,0.0,5.9805,5.8909,5.8875,5.8909,5.9012,5.8288,5.7529,5.6805,5.6012,5.5219,5.4494,5.4494,5.4746,5.5304,5.5958,0.0,0.0,0.0,6.0367,0.0,6.3125,6.5967,0.0,7.2259,7.3646,7.4458,7.5202,7.4965,7.4153,0.0,7.1684,7.0669,0.0,6.8098,6.7252,0.0,0.0,0.0,0.0,0.0,0.0,0.0,6.2618,0.0,0.0,0.0,0.0,0.0,0.0,0.0,0.0,0.0,0.0,0.0,0.0,0.0,0.0,0.0,0.0,0.0,0.0,0.0,0.0,0.0,7.5709,7.4891,7.5208,7.5118,7.4186,7.4967,7.5366,7.5015,7.5661,7.6,7.6,7.6677,7.7016,7.7016,7.7016,7.7016,7.7016,7.7016,7.7016,7.7016,7.7016,7.7447,7.8185,7.8801,7.9509,8.0278,8.0863,8.1079,8.1079,8.1079,8.1079,8.1079,5.6633,5.7391,5.8254,5.9323,6.0771,6.2117,6.2979,6.5048,6.6773,6.7532,6.829,6.8853,0.0,0.0,0.0,0.0,0.0,0.0,0.0,0.0,6.1294,5.9737,5.9702,5.9495,5.9012,5.8288,5.7529,5.6805,5.6012,5.5219,5.4529,5.4943,5.5258,5.5572,5.7156,0.0,5.9347,0.0,0.0,0.0,0.0,0.0,0.0,7.1887,7.3477,7.527,7.5574,7.5236,7.4525,0.0,7.2631,0.0,0.0,0.0,0.0,0.0,0.0,0.0,0.0,0.0,0.0,0.0,0.0,0.0,0.0,0.0,5.9471,0.0,0.0,0.0,0.0,0.0,0.0,0.0,0.0,0.0,0.0,0.0,0.0,0.0,0.0,0.0,0.0,0.0,0.0,0.0,7.3624,7.3715,7.2958,7.3686,7.3912,7.3814,7.4491,7.5015,7.5415,7.6092,7.6646,7.7016,7.7016,7.7016,7.7016,7.7016,7.7016,7.7016,7.7016,7.7416,7.8093,7.8801,7.9478,8.0186,8.0832,8.1079,8.1079,8.1079,8.1079,8.1079,5.6219,5.7081,5.784,5.8599,5.9978,6.1634,6.36,6.5745,6.7403,6.8369,0.0,0.0,7.0357,7.1952,0.0,0.0,0.0,6.9021,0.0,0.0,6.31,0.0,0.0,0.0,0.0,5.8666,5.7803,5.6805,5.6219,5.5563,5.4839,5.5598,5.615,5.6633,0.0,6.0112,6.1311,0.0,0.0,6.7146,6.9388,7.0961,7.1921,7.2157,7.368,7.5709,7.5709,7.5371,7.4864,7.4695,7.3544,0.0,7.1988,0.0,0.0,0.0,0.0,0.0,6.9586,0.0,0.0,0.0,0.0,0.0,0.0,0.0,0.0,0.0,0.0,0.0,0.0,0.0,0.0,0.0,0.0,0.0,0.0,0.0,0.0,0.0,0.0,0.0,0.0,0.0,0.0,7.1341,7.2046,7.2301,7.1634,7.2345,7.2794,7.2706,7.3537,7.4307,7.4984,7.5661,7.6338,7.7016,7.7016,7.7016,7.7016,7.7016,7.7016,7.7016,7.7016,7.7293,7.7816,7.8739,7.9386,7.9909,8.074,8.1079,8.1079,8.1079,8.1079,8.1079,5.5495,5.6288,5.7081,5.7805,5.9219,6.122,6.422,6.6132,6.7842,0.0,0.0,0.0,0.0,0.0,0.0,0.0,0.0,7.1071,6.9118,0.0,6.5545,0.0,0.0,0.0,0.0,0.0,5.8455,5.6805,5.6771,5.6357,5.5598,5.6391,5.7529,5.8978,6.053,6.2316,6.4435,6.6701,6.8309,6.9322,7.0138,7.1715,7.351,0.0,7.4999,7.5709,7.5709,0.0,0.0,7.4864,7.4559,0.0,0.0,0.0,0.0,0.0,0.0,0.0,0.0,0.0,0.0,6.8199,0.0,0.0,0.0,0.0,5.9438,0.0,0.0,0.0,0.0,0.0,6.1298,6.1332,6.0689,0.0,0.0,0.0,0.0,0.0,0.0,0.0,0.0,0.0,0.0,7.0042,7.063,7.0581,6.988,7.1459,7.2334,7.1998,7.3291,7.4307,7.4984,7.5661,7.6338,7.7016,7.7016,7.7016,7.7016,7.7016,7.7016,7.7016,7.7016,7.7016,7.7169,7.8524,7.9109,7.9263,8.0555,8.1079,8.1079,8.1079,8.1079,8.1079,5.6517,5.7078,5.7598,5.7874,0.0,6.0497,6.3716,6.5971,0.0,0.0,0.0,0.0,0.0,0.0,7.8084,0.0,0.0,7.4976,7.3072,7.1042,0.0,0.0,0.0,6.4491,0.0,0.0,0.0,0.0,0.0,5.715,5.6426,5.7185,5.8047,5.9116,0.0,6.3634,0.0,0.0,0.0,0.0,0.0,7.5466,7.6318,0.0,0.0,7.5777,7.6284,7.6487,0.0,7.6758,7.6521,7.6082,7.5811,7.5371,7.4897,7.4661,7.4255,0.0,0.0,0.0,7.1278,6.9789,0.0,0.0,0.0,0.0,0.0,0.0,0.0,0.0,0.0,0.0,6.3734,6.2245,6.14,6.0622,0.0,0.0,0.0,0.0,0.0,0.0,0.0,0.0,0.0,6.6971,6.8208,6.9061,6.9304,7.0558,7.1614,7.2303,7.2953,7.366,7.4338,7.5015,7.5692,7.6338,7.68,7.7016,7.7016,7.7016,7.7016,7.7016,7.7016,7.7016,7.7139,7.8524,7.9109,7.9232,8.0555,8.1079,8.1079,8.1079,8.1079,8.1079,5.7607,5.7894,5.8043,0.0,0.0,0.0,0.0,0.0,0.0,0.0,7.5213,0.0,7.8646,0.0,8.1426,0.0,7.974,7.8482,7.6724,7.4447,0.0,7.0756,6.9142,0.0,0.0,0.0,0.0,0.0,0.0,5.9012,5.8012,5.8771,5.953,6.0323,0.0,0.0,0.0,0.0,7.3326,0.0,0.0,7.7668,0.0,0.0,7.6115,7.6589,0.0,7.7299,7.7367,7.7841,7.7671,7.7299,7.7299,7.6927,7.6521,7.6521,7.6183,7.5811,7.5811,7.4931,0.0,7.2124,6.9857,0.0,6.6474,0.0,0.0,0.0,0.0,0.0,0.0,0.0,6.5358,6.3159,6.1941,6.0689,0.0,5.8626,0.0,0.0,0.0,0.0,0.0,0.0,6.5674,6.5392,6.6445,6.7379,0.0,0.0,7.0669,7.1681,7.2366,7.3169,7.3968,7.4645,7.5353,7.6031,7.6708,7.7016,7.7016,7.7016,7.7016,7.7016,7.7016,7.7169,7.7477,7.8616,7.9232,7.957,8.0648,8.1079,8.1079,8.1079,8.1079,8.1079,5.8962,5.8741,0.0,0.0,5.9978,0.0,0.0,0.0,7.1658,0.0,7.8682,8.1355,8.2613,8.3915,8.4599,8.4361,8.2761,0.0,8.0014,7.7802,0.0,0.0,7.2703,7.0622,6.7904,0.0,0.0,0.0,0.0,0.0,6.0323,6.0944,6.1703,6.253,6.3979,0.0,6.9497,7.2498,7.5066,7.7102,7.8047,7.8405,7.8111,7.8077,7.8077,7.8077,7.8044,7.8044,7.8044,7.8077,7.8077,7.8077,7.8077,7.8077,7.8077,7.8077,7.8077,7.8044,7.8044,7.7502,7.6589,7.51,0.0,0.0,0.0,0.0,6.6643,0.0,0.0,0.0,0.0,0.0,6.6237,6.3971,6.2279,6.0452,5.822,5.7881,0.0,0.0,0.0,0.0,0.0,6.2797,6.3584,6.5028,6.5101,6.5643,0.0,0.0,6.9558,7.0379,7.1712,7.2953,7.3907,7.4645,7.5323,7.5969,7.6677,7.7016,7.7016,7.7016,7.7016,7.7016,7.7016,7.7416,7.8093,7.8801,7.9509,8.0186,8.0832,8.1079,8.1079,8.1079,8.1079,8.1079,6.1371,6.1532,6.1779,0.0,6.2959,6.3927,0.0,0.0,0.0,0.0,7.9815,8.2592,8.4349,8.5769,8.6406,8.6034,8.4925,0.0,0.0,0.0,0.0,7.7787,7.5729,7.3647,7.1666,7.0313,0.0,6.4703,0.0,0.0,6.1875,6.0944,6.1185,6.253,0.0,0.0,6.9497,7.2498,7.5908,7.9342,7.982,8.0032,0.0,0.0,7.9634,7.9566,7.9025,7.8822,7.8923,7.9464,7.9634,7.9634,7.9634,7.9634,7.9634,7.9634,7.9261,7.8822,7.8822,7.828,7.7468,7.6555,7.5303,7.4086,0.0,0.0,0.0,0.0,0.0,0.0,0.0,0.0,0.0,6.5595,6.2482,5.981,5.8118,0.0,0.0,5.8152,0.0,0.0,6.0554,6.1638,6.2408,6.2566,6.4189,6.5465,6.6419,0.0,0.0,7.1363,7.2308,7.307,7.3941,7.4873,7.5459,7.5644,7.6592,7.7016,7.7016,7.7016,7.7016,7.7016,7.7016,7.7416,7.8093,7.8801,7.9509,8.0186,8.0832,8.1079,8.1079,8.1079,8.1079,8.1079,6.3335,0.0,0.0,6.5194,0.0,0.0,6.8553,0.0,0.0,7.8574,8.2027,0.0,8.6475,8.7825,8.8469,8.8099,8.6994,0.0,0.0,0.0,0.0,8.124,7.8868,7.6833,7.5049,7.3178,0.0,6.7359,0.0,0.0,6.2944,6.1737,6.1668,6.253,0.0,6.6014,0.0,7.3947,7.7491,8.0295,8.0795,0.0,0.0,8.041,8.0309,8.0141,7.9735,7.96,7.9634,8.0073,8.0209,8.0209,8.0209,8.0209,8.0209,8.0209,7.9904,7.96,7.96,7.9295,7.8788,7.8044,7.7266,7.6487,7.5777,7.4695,7.4052,0.0,0.0,0.0,0.0,0.0,0.0,6.5324,6.2415,6.0114,0.0,0.0,0.0,0.0,5.8389,0.0,5.9539,6.0232,6.0987,6.1756,6.2915,6.4167,0.0,0.0,0.0,7.0901,7.2064,7.3057,7.3905,7.506,7.5619,7.5492,7.6629,7.7147,7.7016,7.7016,7.7016,7.7016,7.7016,7.757,7.8524,7.8924,7.9663,8.0555,8.0925,8.1079,8.1079,8.1079,8.1079,8.1079,0.0,0.0,0.0,0.0,0.0,0.0,0.0,7.454,0.0,8.1102,0.0,8.701,8.835,8.956,9.0213,0.0,0.0,8.7728,8.7085,8.5329,8.4158,8.4053,8.1687,7.9664,7.7975,7.5587,0.0,0.0,0.0,0.0,6.3703,6.2772,6.2393,6.253,0.0,0.0,0.0,7.5809,7.8901,8.0158,8.105,8.1102,8.0709,8.061,8.0578,8.0445,8.0344,8.0276,8.0209,8.0209,8.0209,8.0209,8.0209,8.0276,8.0344,8.0344,8.0412,8.0479,8.0378,8.0344,8.0175,7.9431,7.8754,7.8111,7.7468,7.6724,7.6352,7.7029,7.6048,7.4796,0.0,0.0,0.0,6.4478,0.0,0.0,0.0,0.0,0.0,0.0,0.0,0.0,5.9032,5.9032,5.9734,6.1458,6.1656,6.2616,0.0,0.0,0.0,6.9899,7.1465,7.2763,7.3901,0.0,7.587,7.5619,7.6856,7.7277,7.7016,7.7016,7.7016,7.7016,7.7108,7.7877,7.9109,7.917,7.994,8.1079,8.1079,8.1079,8.1079,8.1079,8.1079,8.1079,0.0,0.0,0.0,0.0,0.0,7.5507,7.8334,7.8401,7.9262,8.2229,8.517,0.0,8.835,8.9718,9.034,8.9929,8.9192,0.0,0.0,0.0,0.0,8.4422,8.2543,8.1076,8.0144,7.7278,7.4499,0.0,0.0,0.0,6.4462,6.2461,6.1841,6.253,0.0,0.0,7.2326,7.5913,0.0,7.9752,8.094,8.1297,8.12,8.0808,8.0984,8.1393,8.119,8.0716,8.0209,8.0209,8.0209,8.0209,8.0209,8.0615,8.1088,8.1088,8.1528,8.19,8.1257,8.1088,8.0919,8.0175,7.9904,7.9769,7.9634,7.9058,7.8551,7.8686,7.801,7.6961,7.5574,0.0,0.0,0.0,0.0,0.0,0.0,0.0,0.0,0.0,0.0,0.0,0.0,0.0,0.0,0.0,0.0,0.0,0.0,0.0,0.0,0.0,7.1409,0.0,0.0,0.0,7.6244,7.5901,7.6984,7.7277,7.7016,7.7016,7.7016,7.7046,7.76,7.8339,7.9139,7.9694,8.0371,8.1079,8.1079,8.1079,8.1079,8.1079,8.1079,8.1079,0.0,0.0,0.0,0.0,0.0,0.0,0.0,8.2893,0.0,8.5073,8.7108,8.8717,8.9419,9.0361,9.0819,9.0421,8.9726,8.8773,8.7921,8.6966,8.6289,8.5811,8.435,0.0,8.1845,7.9224,7.6361,7.3257,0.0,0.0,6.4669,6.2772,6.2117,6.2599,0.0,6.8428,0.0,0.0,0.0,7.9638,8.1095,8.173,8.1977,8.1551,8.173,8.2276,8.1969,8.1629,8.1359,8.1359,8.1359,8.1359,8.1359,8.1596,8.1866,8.1866,8.2137,8.234,8.1968,8.1866,8.1799,8.1426,8.1054,8.075,8.075,8.0209,7.9667,7.9667,7.9092,7.7874,7.554,7.2124,0.0,0.0,0.0,0.0,0.0,0.0,0.0,0.0,0.0,0.0,0.0,0.0,0.0,0.0,0.0,0.0,0.0,0.0,0.0,0.0,0.0,0.0,0.0,0.0,0.0,7.6026,7.7271,7.7538,7.7016,7.7016,7.7016,7.7046,7.7724,7.8432,7.917,8.0186,8.0802,8.1079,8.1079,8.1079,8.1079,8.1079,8.1079,8.1079,0.0,7.5227,0.0,0.0,7.9956,0.0,0.0,8.6861,8.7958,8.7701,8.8977,9.0039,9.0374,9.0883,9.1206,9.0897,9.0105,8.935,8.8899,8.7901,8.7178,8.7117,8.59,8.4737,8.3431,8.1017,7.812,0.0,0.0,0.0,0.0,6.3669,6.3117,0.0,0.0,0.0,0.0,0.0,7.8465,8.012,8.15,8.237,8.283,8.2535,8.2681,8.3126,8.2852,8.2746,8.2881,8.2881,8.2678,8.2408,8.2408,8.2509,8.2644,8.2644,8.2746,8.2847,8.2678,8.2644,8.2611,8.2441,8.1968,8.1494,8.1325,8.0851,8.0378,8.0242,7.9634,7.828,7.5574,7.2935,0.0,0.0,0.0,0.0,0.0,0.0,0.0,0.0,0.0,0.0,0.0,0.0,0.0,0.0,0.0,0.0,0.0,0.0,0.0,0.0,0.0,7.2203,7.3443,0.0,7.6335,7.5901,7.7271,7.7667,7.7016,7.7016,7.7108,7.7262,7.797,7.8739,7.9601,8.0648,8.1079,8.1079,8.1079,8.1079,8.1079,8.1079,8.1079,8.1079,0.0,0.0,0.0,0.0,0.0,0.0,0.0,8.9422,8.9788,8.8872,8.9678,9.0374,9.0374,9.1033,9.1358,9.0897,9.0222,8.9556,8.8987,8.8178,8.7526,8.7117,8.6061,8.5416,8.4984,8.2052,7.9672,0.0,0.0,0.0,0.0,6.5221,0.0,0.0,0.0,0.0,0.0,7.7292,7.9569,8.1672,8.2466,8.3259,8.3817,8.3586,8.3768,8.4114,8.3806,8.4039,8.4403,8.4403,8.3524,8.2408,8.2408,8.2881,8.3389,8.3389,8.3896,8.4268,8.3592,8.3389,8.3253,8.2577,8.2374,8.2137,8.1426,8.1224,8.0987,8.0344,7.9634,7.8619,7.6995,7.5337,7.351,0.0,0.0,0.0,0.0,0.0,0.0,0.0,0.0,0.0,0.0,6.052,0.0,0.0,0.0,0.0,0.0,0.0,0.0,6.6582,0.0,7.0671,7.1926,7.4319,7.5495,7.5492,7.6856,7.7408,7.7016,7.7016,7.7354,7.797,7.8678,7.9724,8.0894,8.1017,8.1079,8.1079,8.1079,8.1079,8.1079,8.1079,8.1079,8.1079,0.0,0.0,0.0,0.0,0.0,0.0,0.0,9.0631,9.107,9.0704,9.0997,9.1253,9.1253,9.1547,9.1508,9.113,9.0545,8.9976,8.9335,8.8596,8.7959,8.7526,8.6961,8.6289,8.5485,8.3824,8.1654,0.0,0.0,0.0,0.0,0.0,0.0,0.0,0.0,7.3602,7.5809,7.8568,8.0534,8.1914,8.3087,8.4052,8.4708,8.4411,8.4657,8.5207,8.483,8.4687,8.4853,8.464,8.4234,8.3727,8.3727,8.393,8.4167,8.4167,8.4403,8.4573,8.4268,8.4167,8.4099,8.3795,8.3389,8.2881,8.2137,8.1596,8.1088,8.0344,7.9634,7.8923,7.8348,7.6623,7.4965,0.0,0.0,0.0,0.0,0.0,0.0,0.0,0.0,0.0,0.0,0.0,0.0,0.0,0.0,0.0,0.0,0.0,0.0,6.6096,0.0,7.0199,7.1394,7.4074,7.5432,7.5492,7.6856,7.7277,7.7016,7.7016,7.7631,7.8709,7.9417,8.0217,8.1079,8.1079,8.1079,8.1079,8.1079,8.1079,8.1079,8.1079,8.1079,8.1079,8.4973,0.0,8.7266,0.0,8.8836,8.9715,9.0667,9.1363,9.1877,9.2134,9.217,9.206,9.184,9.1803,9.1657,9.1358,9.0939,9.0465,8.9929,8.93,8.8686,8.8051,8.7808,0.0,8.5929,8.5132,8.3478,8.0845,7.8327,0.0,0.0,0.0,0.0,0.0,7.4223,7.6016,7.7603,8.0189,8.1879,8.288,8.3949,8.4811,8.5535,8.5302,8.5545,8.589,8.5377,8.5202,8.5063,8.4747,8.464,8.464,8.464,8.464,8.464,8.464,8.464,8.464,8.464,8.464,8.464,8.464,8.4234,8.3625,8.2881,8.2306,8.1663,8.0716,7.9938,7.9363,7.916,7.7807,7.6487,7.5811,0.0,0.0,0.0,0.0,0.0,0.0,6.5967,6.414,6.2144,0.0,0.0,0.0,0.0,0.0,0.0,0.0,0.0,0.0,0.0,0.0,7.174,7.4168,7.5526,7.5802,7.6949,7.7277,7.7016,7.7447,7.8278,7.9417,8.0094,8.0648,8.1079,8.1079,8.1079,8.1079,8.1079,8.1079,8.1079,8.1079,8.1079,8.1079,8.7706,8.8289,8.9165,9.0191,9.0337,9.0667,9.1657,9.1803,9.2097,9.2978,9.3088,9.2758,9.1877,9.1803,9.173,9.1508,9.1282,9.1016,9.0509,9.0141,8.9471,0.0,0.0,8.7714,8.6657,8.5929,8.507,8.3949,0.0,0.0,7.7085,0.0,7.4568,7.612,7.7672,7.9189,8.0672,8.2224,8.3776,8.5156,8.519,8.5639,8.6294,8.6294,8.6093,8.589,8.5583,8.5273,8.5063,8.4747,8.464,8.464,8.464,8.464,8.464,8.464,8.464,8.464,8.464,8.464,8.464,8.464,8.4606,8.4403,8.3659,8.349,8.305,8.1562,8.0682,7.9972,7.9228,7.9092,7.8314,7.6082,0.0,0.0,0.0,0.0,0.0,6.9248,6.7049,6.5087,6.3632,0.0,0.0,0.0,0.0,0.0,0.0,0.0,0.0,6.6385,6.8646,0.0,7.2811,7.4539,7.5776,7.6515,7.7197,7.7277,7.7077,7.8462,7.9447,8.0124,8.0771,8.1048,8.1079,8.1079,8.1079,8.1079,8.1079,8.1079,8.1079,8.1079,8.1079,8.1079,8.9714,9.0337,9.0997,9.1327,9.184,9.2317,9.2648,9.3161,9.3602,9.3859,9.3932,9.3822,9.3529,9.3492,9.3417,0.0,9.3115,9.2706,0.0,9.1378,9.0552,8.9039,8.8775,8.8178,8.6985,8.6776,8.6061,8.4811,0.0,0.0,0.0,7.8775,7.8706,7.9258,8.0776,8.1741,8.2293,8.3811,8.4742,8.5225,8.5742,8.6087,8.6294,8.6294,8.6093,8.589,8.5618,8.5307,8.5063,8.4747,8.464,8.464,8.464,8.464,8.464,8.464,8.464,8.464,8.464,8.464,8.464,8.464,8.464,8.4437,8.3659,8.3118,8.2475,8.1494,8.1088,8.0716,8.0006,7.9431,7.872,7.7468,7.686,0.0,0.0,0.0,7.0567,6.8504,6.6745,6.5121,0.0,6.3091,0.0,0.0,0.0,0.0,0.0,0.0,0.0,0.0,6.9149,0.0,7.3156,7.4671,7.5776,7.6515,7.7197,7.7494,7.7724,7.8647,7.9447,8.0155,8.0802,8.1079,8.1079,8.1079,8.1079,8.1079,8.1079,8.1079,8.1079,8.1079,8.1079,8.1079,9.1546,9.217,9.2721,9.2721,9.3198,9.3565,9.3565,9.3969,9.441,9.4703,9.474,9.4887,9.518,9.518,0.0,9.4185,9.4149,9.3777,9.2998,9.2612,9.1876,9.0416,8.982,8.8876,8.7499,8.7256,0.0,8.5604,8.4846,8.3569,8.1914,8.1914,8.1914,8.1948,8.3225,8.3776,8.3845,8.5087,8.5604,8.5639,8.6122,8.6294,8.6294,8.6294,8.6093,8.589,8.5618,8.5307,8.5131,8.5085,8.5046,8.5114,8.5384,8.5486,8.5384,8.4809,8.464,8.464,8.464,8.464,8.464,8.464,8.464,8.4505,8.4031,8.3355,8.2678,8.2205,8.1663,8.1156,8.0682,8.0006,7.9194,7.8145,7.7367,7.6082,7.3815,0.0,7.0669,0.0,0.0,0.0,0.0,6.4918,6.4749,0.0,0.0,0.0,0.0,0.0,0.0,6.8764,7.0906,7.2876,7.4731,7.6003,7.7022,7.7526,7.7729,7.8019,7.8462,7.9139,7.9817,8.0494,8.0894,8.1079,8.1079,8.1079,8.1079,8.1079,8.1079,8.1079,8.1079,8.1079,8.1079,8.1079,9.3198,9.3786,0.0,0.0,9.4336,0.0,9.4373,9.441,9.474,9.5511,9.5584,9.5878,9.6612,9.6685,9.6098,9.4593,0.0,0.0,0.0,9.3919,9.3216,9.2279,9.1118,8.9837,8.8363,8.7666,8.6957,8.6294,8.5703,8.488,8.419,8.419,8.419,8.419,8.4949,8.5294,8.5328,8.6018,8.6294,8.6294,8.6294,8.6329,8.6398,8.6398,8.6196,8.6028,8.5754,8.5443,8.523,8.5729,8.5858,8.5993,8.667,8.6907,8.6636,8.5215,8.4776,8.4776,8.4776,8.4742,8.4708,8.4708,8.4674,8.464,8.464,8.4065,8.3558,8.3524,8.2408,8.1393,8.1291,8.0716,7.9769,7.8247,7.7367,7.6082,7.3815,7.2225,7.1075,0.0,0.0,0.0,0.0,6.7523,6.7117,0.0,0.0,0.0,0.0,0.0,6.9235,7.1221,7.3607,7.5555,7.7041,7.8419,7.9112,7.9132,7.8803,7.8862,7.917,7.9817,8.0463,8.1079,8.1079,8.1079,8.1079,8.1079,8.1079,8.1079,8.1079,8.1079,8.1079,8.1079,8.1079,8.1079,0.0,0.0,9.4299,9.4299,9.4813,9.5217,9.5217,9.5731,9.6208,9.6392,9.6428,9.6502,9.6685,9.6685,9.6539,9.6171,9.6135,9.5878,9.5254,9.4797,9.3877,9.2604,9.1951,9.1051,8.9783,8.8916,8.806,8.6922,8.6748,8.6443,8.6039,8.6039,8.594,8.5777,8.5949,8.6053,8.6053,8.6225,8.6294,8.6294,8.6294,8.6639,8.7156,8.7156,8.7195,8.7259,8.7188,8.687,8.6508,8.6569,8.6636,8.667,8.6839,8.6907,8.6839,8.6467,8.6366,8.6366,8.6366,8.596,8.552,8.552,8.5046,8.464,8.464,8.4471,8.42,8.3625,8.3219,8.2644,8.1494,8.1156,8.0344,7.8314,7.7367,7.6082,7.3815,7.2225,7.1244,0.0,7.0229,6.9857,7.0466,7.0364,7.0229,0.0,0.0,0.0,0.0,7.2599,7.2901,7.3272,7.5578,7.7315,7.8397,7.9236,7.9822,8.0237,7.9151,7.9211,8.0223,8.0168,8.0463,8.1079,8.1079,8.1079,8.1079,8.1079,8.1079,8.1079,8.1079,8.1079,8.1079,8.1079,8.1079,8.1079,9.485,9.5144,9.5401,9.5401,9.5768,9.6061,9.6061,9.6428,9.6685,9.6685,9.6685,9.6685,9.6685,9.6685,9.6685,9.6685,9.6685,9.6502,9.6098,9.5716,9.5065,9.4022,9.3278,9.237,9.1374,9.041,8.9565,8.8671,8.8671,8.8305,8.7569,8.7569,8.72,8.6494,8.6494,8.6601,8.6811,8.6811,8.7018,8.7363,8.7363,8.7605,8.795,8.7745,8.7674,8.7701,8.7595,8.7199,8.6974,8.7279,8.7414,8.7482,8.7786,8.7922,8.7922,8.7922,8.7448,8.6907,8.6907,8.6602,8.6298,8.6298,8.5723,8.5148,8.5148,8.4877,8.4505,8.4099,8.3727,8.3152,8.2002,8.1528,8.0547,7.8348,7.7063,7.5676,7.3747,7.2529,7.1819,7.1819,7.2056,7.2225,7.2293,7.2631,7.2834,7.2834,7.2834,0.0,7.4965,7.5986,7.6337,7.5903,7.7676,7.9232,8.0263,8.0815,8.1012,8.1051,8.0326,8.0129,8.0606,8.0538,8.074,8.1079,8.1079,8.1079,8.1079,8.1079,8.1079,8.1079,8.1079,8.1079,8.1079,8.1079,8.1079,8.1079,9.5694,9.6245,9.6685,9.6685,9.6685,9.6685,9.6685,9.6685,9.6685,9.6685,9.6685,9.6685,9.6685,9.6685,9.6685,9.6685,9.6685,9.6685,9.6685,9.6531,9.618,9.5704,9.4674,9.3769,9.3033,9.2014,9.128,9.0808,9.0715,9.0082,8.9012,8.8916,8.8313,8.7136,8.7136,8.7285,8.7672,8.7672,8.7984,8.8605,8.8605,8.8674,8.8743,8.8432,8.8152,8.8043,8.7721,8.743,8.7347,8.7955,8.8158,8.826,8.8869,8.9072,8.9072,8.9072,8.8192,8.7245,8.7245,8.7144,8.7042,8.6941,8.6433,8.596,8.596,8.5351,8.4809,8.4809,8.42,8.3456,8.2712,8.1968,8.0716,7.8517,7.686,7.5371,7.3849,0.0,7.2665,7.2868,7.4018,7.4627,7.4221,7.4762,7.5134,7.5134,7.5236,7.5912,7.7333,7.8686,7.9331,7.8956,7.9986,8.1034,8.2311,8.2476,8.2487,8.2078,8.1791,8.1408,8.0896,8.1076,8.1217,8.1079,8.1079,8.1079,8.1079,8.1079,8.1079,8.1079,8.1079,8.1079,8.1079,8.1079,8.1079,8.1079,9.6502,9.6612,9.6685,9.6685,9.6685,9.6685,9.6685,9.6685,9.6685,9.6685,9.6685,9.6685,9.6685,9.6685,9.6685,9.6685,9.6685,9.6685,9.6685,9.6531,9.6296,9.5939,9.5586,9.5145,9.4597,9.3632,9.2704,9.2058,9.1798,9.1372,9.0779,9.0352,8.9879,8.9326,8.913,8.8902,8.8704,8.8704,8.8671,8.8605,8.8605,8.8984,8.9536,8.9223,8.9316,8.9648,8.9287,8.8956,8.8767,8.8869,8.8903,8.8937,8.9038,8.9072,8.9072,8.9072,8.8937,8.8734,8.8734,8.8294,8.7685,8.7076,8.6839,8.6738,8.6738,8.6163,8.5587,8.5587,8.4979,8.42,8.3456,8.2746,8.1494,7.9295,7.7671,7.6183,7.4661,0.0,7.3781,7.5033,7.5371,7.598,7.7164,7.7401,7.7468,7.7468,7.8044,7.8788,7.9634,8.0479,8.1528,8.2641,8.2629,8.3147,8.4434,8.3729,8.3723,8.4543,8.3162,8.245,8.2419,8.1839,8.1323,8.1079,8.1079,8.1079,8.1079,8.1079,8.1079,8.1079,8.1079,8.1079,8.1079,8.1079,8.1079,8.1079,9.6685,9.6685,9.6685,9.6685,9.6685,9.6685,9.6685,9.6685,9.6685,9.6685,9.6685,9.6685,9.6685,9.6685,9.6685,9.6685,9.6685,9.6685,9.6685,9.6608,9.6531,9.6375,9.6216,9.5939,9.5576,9.5011,9.4565,9.4156,9.4036,9.3395,9.2442,9.2175,9.1417,9.0221,9.0029,8.9885,8.9567,8.9567,8.9605,8.9778,8.9778,8.9985,9.0295,8.98,8.9791,8.9881,8.944,8.9184,8.9072,8.9072,8.9072,8.9072,8.9072,8.9072,8.9072,8.9072,8.9072,8.9072,8.9072,8.8835,8.8497,8.8158,8.7786,8.7482,8.7482,8.6907,8.6264,8.5858,8.5486,8.4877,8.3727,8.2915,8.1832,8.0006,7.8111,0.0,0.0,7.4897,7.51,7.6217,7.7401,7.8382,7.9126,7.9532,7.9769,7.9769,8.0073,8.0615,8.1359,8.2069,8.2983,8.4065,8.4432,8.4865,8.5321,8.5424,8.5434,8.5385,8.4273,8.3383,8.2709,8.187,8.1461,8.1079,8.1079,8.1079,8.1079,8.1079,8.1079,8.1079,8.1079,8.1079,8.1079,8.1079,8.1079,8.1079,9.6685,9.6685,9.6685,9.6685,9.6685,9.6685,9.6685,9.6685,9.6685,9.6685,9.6685,9.6685,9.6685,9.6685,9.6685,9.6685,9.6685,9.6685,9.6685,9.6685,9.6685,9.6685,9.6531,9.6375,9.618,9.618,9.61,9.5939,9.5858,9.5285,9.4084,9.3999,9.3031,9.1467,9.1374,9.1064,9.0736,9.067,9.0779,9.0917,9.0917,9.0812,9.0707,9.0315,8.999,8.9881,8.944,8.9184,8.9072,8.9072,8.9072,8.9072,8.9072,8.9072,8.9072,8.9072,8.9072,8.9072,8.9072,8.9072,8.9072,8.9072,8.8666,8.826,8.826,8.7685,8.7008,8.6433,8.6027,8.5418,8.4234,8.3287,8.2171,8.0682,0.0,0.0,0.0,7.6386,7.6792,7.757,7.9329,8.0513,8.0682,8.1224,8.1562,8.1562,8.1697,8.2035,8.2644,8.3524,8.437,8.5148,8.5723,8.6129,8.6298,8.6825,8.6778,8.6125,8.5317,8.4187,8.2944,8.2141,8.1461,8.1079,8.1079,8.1079,8.1079,8.1079,8.1079,8.1079,8.1079,8.1079,8.1079,8.1079,8.1079,8.1079,9.6685,9.6685,9.6685,9.6685,9.6685,9.6685,9.6685,9.6685,9.6685,9.6685,9.6685,9.6685,9.6685,9.6685,9.6685,9.6685,9.6685,9.6685,9.6685,9.6685,9.6685,9.6685,9.6722,9.6685,9.6608,9.6608,9.6608,9.6608,9.6453,9.618,9.583,9.5384,9.4842,9.4248,9.38,9.332,9.263,9.2337,9.1875,9.1265,9.1265,9.1057,9.0812,9.0494,9.0207,8.999,8.9662,8.9295,8.9072,8.9072,8.9072,8.9072,8.9072,8.9072,8.9072,8.9072,8.9072,8.9072,8.9072,8.9072,8.9072,8.9072,8.9038,8.9004,8.9004,8.8429,8.7888,8.7854,8.6738,8.5757,8.5621,8.4403,8.2949,8.146,0.0,0.0,7.801,7.8416,7.9126,7.987,8.0682,8.1494,8.2171,8.2306,8.234,8.234,8.2949,8.3355,8.3422,8.4809,8.596,8.6738,8.6805,8.7144,8.782,8.7588,8.7505,8.7478,8.6282,8.4951,8.3571,8.2544,8.1765,8.1079,8.1079,8.1079,8.1079,8.1079,8.1079,8.1079,8.1079,8.1079,8.1079,8.1079,8.1079,8.1079,9.6685,9.6685,9.6685,9.6685,9.6685,9.6685,9.6685,9.6685,9.6685,9.6685,9.6685,9.6685,9.6685,9.7163,9.7419,9.7419,9.7897,9.819,9.819,9.819,9.775,9.6759,9.6685,9.6685,9.6685,9.6685,9.6685,9.6685,9.6608,9.6453,9.6216,9.602,9.5658,9.5036,9.4691,9.4069,9.3239,9.2797,9.221,9.1437,9.1368,9.1057,9.0812,9.0494,9.0315,9.0207,8.9628,8.9407,8.9295,8.9184,8.9072,8.9072,8.9072,8.9072,8.9072,8.9072,8.9072,8.9072,8.9072,8.9072,8.9072,8.9072,8.9072,8.9072,8.9072,8.8869,8.8531,8.8091,8.755,8.6873,8.596,8.4911,8.3862,8.2813,0.0,8.0682,8.0107,8.0276,8.075,8.1494,8.2205,8.2949,8.3693,8.3795,8.3998,8.4471,8.4776,8.5114,8.5587,8.6602,8.7279,8.7583,8.8023,8.8158,8.7989,8.8318,8.8237,8.7695,8.6798,8.5577,8.3961,8.2944,8.2172,8.1461,8.1186,8.1079,8.1079,8.1079,8.1079,8.1079,8.1079,8.1079,8.1079,8.1079,8.1079,8.1079,9.6685,9.6685,9.6685,9.6685,9.6685,9.6685,9.6685,9.6685,9.6795,9.7052,9.7089,9.7163,9.7419,9.7933,9.8264,9.8264,9.8778,9.9108,9.9108,9.9108,9.8631,9.7493,9.7456,9.7456,9.7456,9.7199,9.7089,9.7089,9.6832,9.6755,9.6819,9.6819,9.6691,9.6422,9.6135,9.5621,9.4693,9.4172,9.3502,9.2709,9.2372,9.1958,9.1643,9.1323,9.1216,9.1108,9.0673,9.0342,9.0231,9.0008,8.9726,8.9444,8.9444,8.9275,8.9072,8.9072,8.9072,8.9072,8.9072,8.9072,8.9072,8.9072,8.9072,8.9072,8.9072,8.9072,8.8937,8.8429,8.8158,8.7685,8.667,8.5858,8.5012,8.4031,8.3016,8.2171,8.1697,8.1832,8.2238,8.3016,8.3761,8.4505,8.5283,8.5351,8.5554,8.6095,8.6129,8.6467,8.7211,8.7719,8.8091,8.8328,8.8835,8.8835,8.8328,8.8835,8.8733,8.8012,8.7038,8.5948,8.4443,8.334,8.241,8.1734,8.1461,8.1186,8.1186,8.1217,8.1079,8.1079,8.1079,8.1079,8.1079,8.1079,8.1079,8.1079,9.6685,9.6685,9.6685,9.6722,9.6722,9.6722,9.6722,9.6722,9.7016,9.7787,9.7897,9.819,9.9035,9.9108,9.9108,9.9108,9.9145,9.9145,9.9145,9.9145,9.9145,9.9145,9.9108,9.9108,9.9108,9.83,9.7897,9.7897,9.7126,9.7126,9.7897,9.7897,9.8259,9.8789,9.8473,9.8057,9.7368,9.6958,9.6091,9.5089,9.4557,9.4043,9.3517,9.3196,9.2906,9.2688,9.2688,9.2356,9.1795,9.1795,9.1059,9.0222,9.0222,8.9715,8.9106,8.9106,8.9106,8.9106,8.9106,8.9072,8.9072,8.9072,8.9072,8.9072,8.9072,8.9072,8.9072,8.9072,8.8497,8.7989,8.7989,8.7414,8.6433,8.4877,8.464,8.4133,8.2644,8.3084,8.3795,8.4539,8.5317,8.6095,8.6839,8.6907,8.6907,8.6907,8.6941,8.7245,8.7955,8.7989,8.8328,8.9072,8.9072,8.9072,8.9072,8.9072,8.8959,8.8586,8.7275,8.6193,8.517,8.3831,8.2842,8.2172,8.1734,8.1597,8.1597,8.1217,8.1079,8.1079,8.1079,8.1079,8.1079,8.1079,8.1079,8.1079,9.6685,9.6685,9.6869,9.7419,9.753,9.7713,9.83,9.8374,9.8484,9.8704,9.8741,9.8851,9.9071,9.9622,9.9952,9.9952,10.0503,10.0796,10.0796,10.0796,10.0796,10.0796,9.9695,9.9108,9.9108,9.8851,9.8741,9.8741,9.8521,9.8521,9.8741,9.8741,9.8888,9.9029,9.8753,9.8509,9.8057,9.7456,9.6741,9.5866,9.5187,9.4623,9.4043,9.3623,9.3304,9.3196,9.2797,9.2578,9.2356,9.1908,9.1625,9.1342,9.1081,9.0797,9.0628,9.0628,9.029,8.9884,8.9884,8.9478,8.9072,8.9072,8.9072,8.9072,8.9072,8.9072,8.9072,8.9072,8.8903,8.8598,8.8091,8.782,8.7347,8.6399,8.623,8.6061,8.5621,8.5757,8.5993,8.6196,8.6433,8.667,8.6907,8.6907,8.711,8.7617,8.8158,8.8531,8.8734,8.8767,8.8869,8.9072,8.9072,8.9072,8.9072,8.9072,8.8959,8.862,8.7779,8.7071,8.6193,8.4571,8.3701,8.3177,8.2141,8.1597,8.1597,8.1217,8.1079,8.1079,8.1079,8.1079,8.1079,8.1079,8.1079,8.1079,9.764,9.764,9.7787,9.83,9.8374,9.8557,9.9035,9.9108,9.9218,9.9548,9.9585,9.9695,9.9989,10.0503,10.0796,10.0796,10.12,10.1494,10.1494,10.1494,10.1494,10.1494,10.0576,9.9989,9.9989,9.9732,9.9585,9.9585,9.9255,9.9255,9.9585,9.9585,9.9732,10.0026,9.9902,9.9704,9.9422,9.8917,9.8306,9.7545,9.679,9.6105,9.557,9.4914,9.4597,9.449,9.4094,9.3911,9.3691,9.302,9.2475,9.1941,9.1521,9.1305,9.1305,9.1305,9.0966,9.0628,9.0628,9.0087,8.9545,8.9545,8.9309,8.9072,8.9072,8.9072,8.9072,8.9072,8.9072,8.8937,8.8497,8.8429,8.8192,8.7448,8.7347,8.7245,8.6941,8.6907,8.7008,8.7313,8.7347,8.7448,8.7753,8.7753,8.7955,8.8395,8.8835,8.9072,8.9072,8.9072,8.9072,8.9072,8.9072,8.9072,8.9072,8.9072,8.8959,8.8847,8.8161,8.7544,8.7038,8.5453,8.4571,8.4058,8.2646,8.2005,8.1734,8.1354,8.1079,8.1079,8.1079,8.1079,8.1079,8.1079,8.1079,8.1079,9.9108,9.9108,9.9145,9.9181,9.9218,9.9255,9.9292,9.9328,9.9585,10.0283,10.0393,10.0686,10.1384,10.1494,10.1494,10.1494,10.1494,10.1494,10.1494,10.1494,10.1494,10.1494,10.1494,10.1494,10.1494,10.0796,10.0393,10.0393,9.9659,9.9695,10.0393,10.0393,10.0796,10.1494,10.1494,10.1413,10.1168,10.0845,10.0419,9.9714,9.8978,9.8212,9.7517,9.6903,9.6519,9.6307,9.5912,9.5585,9.54,9.4727,9.3563,9.2421,9.1711,9.1508,9.1508,9.1508,9.144,9.1406,9.1406,9.0865,9.029,9.029,8.9748,8.9173,8.9106,8.9072,8.9072,8.9072,8.9072,8.9072,8.9072,8.9072,8.8869,8.8192,8.8091,8.7854,8.7211,8.711,8.7347,8.8023,8.8091,8.8361,8.9004,8.9072,8.9072,8.9072,8.9072,8.9072,8.9072,8.9072,8.9072,8.9072,8.9072,8.9072,8.9072,8.9072,8.9072,8.9072,8.8539,8.8045,8.7629,8.6403,8.5453,8.4698,8.3309,8.2575,8.2172,8.1492,8.1217,8.1217,8.1079,8.1079,8.1079,8.1079,8.1079,8.1079,9.9108,9.9108,9.9292,9.9916,9.9989,10.0283,10.0907,10.098,10.098,10.12,10.12,10.1274,10.1494,10.1494,10.1494,10.1494,10.1494,10.1494,10.1494,10.1494,10.1494,10.1494,10.1494,10.1494,10.1494,10.1274,10.12,10.12,10.109,10.109,10.12,10.12,10.1274,10.1494,10.1494,10.1494,10.1376,10.1168,10.0918,10.0542,9.9804,9.9257,9.8825,9.7718,9.7212,9.7006,9.6093,9.5804,9.5585,9.4727,9.3937,9.33,9.3131,9.3098,9.3098,9.3098,9.2658,9.2184,9.2184,9.1643,9.1068,9.1068,9.0527,8.9816,8.9207,8.9072,8.9072,8.9072,8.9072,8.9072,8.9072,8.9072,8.9038,8.8869,8.8835,8.8801,8.8632,8.8598,8.8666,8.8835,8.8835,8.8903,8.9072,8.9072,8.9072,8.9072,8.9072,8.9072,8.9072,8.9072,8.9072,8.9072,8.9072,8.9072,8.9072,8.9072,8.9072,8.9072,8.8733,8.8506,8.8358,8.7038,8.6315,8.5825,8.4187,8.334,8.2975,8.187,8.1461,8.1461,8.1217,8.1079,8.1079,8.1079,8.1079,8.1079,10.0209,10.0209,10.0393,10.0796,10.0907,10.098,10.1384,10.1494,10.1494,10.1494,10.1494,10.1494,10.1494,10.1494,10.1494,10.1494,10.1494,10.1494,10.1494,10.1494,10.1494,10.1494,10.1494,10.1494,10.1494,10.1494,10.1494,10.1494,10.1494,10.1494,10.1494,10.1494,10.1494,10.1494,10.1494,10.1494,10.1494,10.1413,10.1168,10.0881,10.0419,9.9982,9.966,9.8694,9.8212,9.7817,9.6903,9.6093,9.551,9.4727,9.4155,9.3806,9.3689,9.3571,9.3571,9.3571,9.33,9.2962,9.2962,9.2421,9.1812,9.1812,9.1271,9.0527,8.9782,8.9342,8.9072,8.9072,8.9072,8.9072,8.9072,8.9072,8.9072,8.9072,8.9072,8.9072,8.9072,8.9072,8.9072,8.9072,8.9072,8.9072,8.9072,8.9072,8.9072,8.9072,8.9072,8.9072,8.9072,8.9072,8.9072,8.9072,8.9072,8.9072,8.9072,8.9072,8.9072,8.9072,8.8959,8.8847,8.8847,8.7662,8.6951,8.6315,8.4698,8.3733,8.3108,8.2005,8.1597,8.1597,8.1186,8.1079,8.1079,8.1079,8.1079,8.1079,10.1494,10.1494,10.1494,10.1494,10.1494,10.1494,10.1494,10.1494,10.1494,10.1494,10.1494,10.1494,10.1494,10.1494,10.1494,10.1494,10.1604,10.1677,10.1677,10.1788,10.1788,10.1677,10.1677,10.1604,10.1494,10.1494,10.1494,10.1494,10.1494,10.1494,10.1494,10.1494,10.1494,10.1494,10.1494,10.1494,10.1494,10.1494,10.1413,10.125,10.1002,10.0591,10.0246,9.975,9.9201,9.8694,9.7817,9.659,9.5289,9.4727,9.4385,9.3889,9.3689,9.3571,9.3571,9.3571,9.3571,9.3571,9.3571,9.3098,9.2624,9.2624,9.2049,9.1338,9.0729,8.9918,8.9275,8.9275,8.9173,8.9072,8.9072,8.9072,8.9072,8.9072,8.9072,8.9072,8.9072,8.9072,8.9072,8.9072,8.9072,8.9072,8.9072,8.9072,8.9072,8.9072,8.9072,8.9072,8.9072,8.9072,8.9072,8.9072,8.9072,8.9072,8.9072,8.9072,8.9072,8.9072,8.9072,8.9072,8.9072,8.8276,8.7544,8.6798,8.5203,8.409,8.334,8.2141,8.1734,8.1597,8.1217,8.1079,8.1079,8.1079,8.1079,8.1079,10.1494,10.1494,10.1494,10.1494,10.1494,10.1494,10.1494,10.1494,10.1494,10.1494,10.1494,10.1494,10.1494,10.1494,10.1494,10.1494,10.2118,10.2522,10.2522,10.3182,10.3293,10.2595,10.2522,10.2191,10.1494,10.1494,10.1494,10.1494,10.1494,10.1494,10.1494,10.1494,10.1494,10.1494,10.1494,10.1494,10.1494,10.1494,10.1494,10.1376,10.1213,10.1085,10.1038,10.0282,9.9804,9.9405,9.8176,9.6695,9.5365,9.5031,9.4466,9.3889,9.3689,9.3571,9.3571,9.3571,9.3571,9.3571,9.3571,9.3503,9.3436,9.3436,9.2827,9.2252,9.215,9.1068,9.0053,9.0053,8.9545,8.9072,8.9072,8.9072,8.9072,8.9072,8.9072,8.9072,8.9072,8.9072,8.9072,8.9072,8.9072,8.9072,8.9072,8.9072,8.9072,8.9072,8.9072,8.9072,8.9072,8.9072,8.9072,8.9072,8.9072,8.9072,8.9072,8.9072,8.9072,8.9072,8.9072,8.9072,8.9072,8.8733,8.8127,8.7427,8.6071,8.511,8.4411,8.2842,8.2172,8.2037,8.1354,8.1079,8.1079,8.1079,8.1079,8.1079,10.1494,10.1494,10.1494,10.1494,10.1494,10.1494,10.1494,10.1494,10.1494,10.1494,10.1494,10.1494,10.1494,10.1494,10.1677,10.2081,10.2485,10.2889,10.3293,10.3696,10.3696,10.3403,10.3403,10.3182,10.2815,10.2412,10.2191,10.2191,10.1677,10.1494,10.1494,10.1494,10.1494,10.1494,10.1494,10.1494,10.1494,10.1494,10.1494,10.1494,10.1413,10.1368,10.1332,10.0918,10.0506,10.0158,9.8563,9.7177,9.5986,9.5365,9.4806,9.427,9.3923,9.3689,9.3571,9.3571,9.3571,9.3571,9.3571,9.3571,9.3571,9.3571,9.3334,9.3064,9.3064,9.2218,9.1203,9.0391,8.9951,8.9579,8.9173,8.9072,8.9072,8.9072,8.9072,8.9072,8.9072,8.9072,8.9072,8.9072,8.9072,8.9072,8.9072,8.9072,8.9072,8.9072,8.9072,8.9072,8.9072,8.9072,8.9072,8.9072,8.9072,8.9072,8.9072,8.9072,8.9072,8.9072,8.9072,8.9072,8.9072,8.8733,8.8243,8.7695,8.6315,8.5203,8.4379,8.2842,8.2037,8.1734,8.1354,8.1079,8.1079,8.1079,8.1079,8.1079]},{"header":{"parameterUnit":"m.s-1","parameterCategory":1,"la1":30.6,"la2":28.766,"lo1":-90.7593,"lo2":-88.6598,"dy":0.0162,"dx":0.0183,"nx":116,"ny":114,"refTime":"2024-03-31T06:00:00:Z","depth":0,"parameterNumber":3,"parameterNumberName":"V-component_of_WINDS"},"data":[0.0,0.0,0.0,0.0,0.0,0.0,0.0,0.0,0.0,0.0,0.0,0.0,0.0,0.0,0.0,0.0,0.0,0.0,0.0,0.0,0.0,0.0,0.0,0.0,0.0,0.0,0.0,0.0,0.0,0.0,0.0,0.0,0.0,0.0,0.0,0.0,0.0,0.0,0.0,0.0,0.0,0.0,0.0,0.0,0.0,0.0,0.0,0.0,0.0,0.0,0.0,0.0,0.0,0.0,0.0,0.0,0.0,0.0,0.0,0.0,0.0,0.0,0.0,0.0,0.0,0.0,0.0,0.0,0.0,0.0,0.0,0.0,0.0,0.0,0.0,0.0,0.0,0.0,0.0,0.0,0.0,0.0,0.0,0.0,0.0,0.0,0.0,0.0,0.0,0.0,0.0,0.0,0.0,0.0,0.0,0.0,0.0,0.0,0.0,0.0,0.0,0.0,0.0,0.0,0.0,0.0,0.0,0.0,0.0,0.0,0.0,0.0,0.0,0.0,0.0,0.0,0.0,0.0,0.0,0.0,0.0,0.0,0.0,0.0,0.0,0.0,0.0,0.0,0.0,0.0,0.0,0.0,0.0,0.0,0.0,0.0,0.0,0.0,0.0,0.0,0.0,0.0,0.0,0.0,0.0,0.0,0.0,0.0,0.0,0.0,0.0,0.0,0.0,0.0,0.0,0.0,0.0,0.0,0.0,0.0,0.0,0.0,0.0,0.0,0.0,0.0,0.0,0.0,0.0,0.0,0.0,0.0,0.0,0.0,0.0,0.0,0.0,0.0,0.0,0.0,0.0,0.0,0.0,0.0,0.0,0.0,0.0,0.0,0.0,0.0,0.0,0.0,0.0,0.0,0.0,0.0,0.0,0.0,0.0,0.0,0.0,0.0,0.0,0.0,0.0,0.0,0.0,0.0,0.0,0.0,0.0,0.0,0.0,0.0,0.0,0.0,0.0,0.0,0.0,0.0,0.0,0.0,0.0,0.0,0.0,0.0,0.0,0.0,0.0,0.0,0.0,0.0,0.0,0.0,0.0,0.0,0.0,0.0,0.0,0.0,0.0,0.0,0.0,0.0,0.0,0.0,0.0,0.0,0.0,0.0,0.0,0.0,0.0,0.0,0.0,0.0,0.0,0.0,0.0,0.0,0.0,0.0,0.0,0.0,0.0,0.0,0.0,0.0,0.0,0.0,0.0,0.0,0.0,0.0,0.0,0.0,0.0,0.0,0.0,0.0,0.0,0.0,0.0,0.0,0.0,0.0,0.0,0.0,0.0,0.0,0.0,0.0,0.0,0.0,0.0,0.0,0.0,0.0,0.0,0.0,0.0,0.0,0.0,0.0,0.0,0.0,0.0,0.0,0.0,0.0,0.0,0.0,0.0,0.0,0.0,0.0,0.0,0.0,0.0,0.0,0.0,0.0,0.0,0.0,0.0,0.0,0.0,0.0,0.0,0.0,0.0,0.0,0.0,0.0,0.0,0.0,0.0,0.0,0.0,0.0,0.0,0.0,0.0,0.0,0.0,0.0,0.0,0.0,0.0,0.0,0.0,0.0,0.0,0.0,0.0,0.0,0.0,0.0,0.0,0.0,0.0,0.0,0.0,0.0,0.0,0.0,0.0,0.0,0.0,0.0,0.0,0.0,0.0,0.0,0.0,0.0,0.0,0.0,0.0,0.0,0.0,0.0,0.0,0.0,0.0,0.0,0.0,0.0,0.0,0.0,0.0,0.0,0.0,0.0,0.0,0.0,0.0,0.0,0.0,0.0,0.0,0.0,0.0,0.0,0.0,0.0,0.0,0.0,0.0,0.0,0.0,0.0,0.0,0.0,0.0,0.0,0.0,0.0,0.0,0.0,0.0,0.0,0.0,0.0,0.0,0.0,0.0,0.0,0.0,0.0,0.0,0.0,0.0,0.0,0.0,0.0,0.0,0.0,0.0,0.0,0.0,0.0,0.0,0.0,0.0,0.0,0.0,0.0,0.0,0.0,0.0,0.0,0.0,0.0,0.0,0.0,0.0,0.0,0.0,0.0,0.0,0.0,0.0,0.0,0.0,0.0,0.0,0.0,0.0,0.0,0.0,0.0,0.0,0.0,0.0,0.0,0.0,0.0,0.0,0.0,0.0,0.0,0.0,0.0,0.0,0.0,0.0,0.0,0.0,0.0,0.0,0.0,0.0,0.0,0.0,0.0,0.0,0.0,0.0,0.0,0.0,0.0,0.0,0.0,0.0,0.0,0.0,0.0,0.0,0.0,0.0,0.0,0.0,0.0,0.0,0.0,0.0,0.0,0.0,0.0,0.0,0.0,0.0,0.0,0.0,0.0,0.0,0.0,0.0,0.0,0.0,0.0,0.0,0.0,0.0,0.0,0.0,0.0,0.0,0.0,0.0,0.0,0.0,0.0,0.0,0.0,0.0,0.0,0.0,0.0,0.0,0.0,0.0,0.0,0.0,0.0,0.0,0.0,0.0,0.0,0.0,0.0,0.0,0.0,0.0,0.0,0.0,0.0,0.0,0.0,0.0,0.0,0.0,0.0,0.0,0.0,0.0,0.0,0.0,0.0,0.0,0.0,0.0,0.0,0.0,0.0,0.0,0.0,0.0,0.0,0.0,0.0,0.0,0.0,0.0,0.0,0.0,0.0,0.0,0.0,0.0,0.0,0.0,0.0,0.0,0.0,0.0,0.0,0.0,0.0,0.0,0.0,0.0,0.0,0.0,0.0,0.0,0.0,0.0,0.0,0.0,0.0,0.0,0.0,0.0,0.0,0.0,0.0,0.0,0.0,0.0,0.0,0.0,0.0,0.0,0.0,0.0,0.0,0.0,0.0,0.0,0.0,0.0,0.0,0.0,0.0,0.0,0.0,0.0,0.0,0.0,0.0,0.0,0.0,0.0,0.0,0.0,0.0,0.0,0.0,0.0,0.0,0.0,0.0,0.0,0.0,0.0,0.0,0.0,0.0,0.0,0.0,0.0,0.0,0.0,0.0,0.0,0.0,0.0,0.0,0.0,0.0,0.0,0.0,0.0,0.0,0.0,0.0,0.0,0.0,0.0,0.0,0.0,0.0,0.0,0.0,0.0,0.0,0.0,0.0,0.0,0.0,0.0,0.0,0.0,0.0,0.0,0.0,0.0,0.0,0.0,0.0,0.0,0.0,0.0,0.0,0.0,0.0,0.0,0.0,0.0,0.0,0.0,0.0,0.0,0.0,0.0,0.0,0.0,0.0,0.0,0.0,0.0,0.0,0.0,0.0,0.0,0.0,0.0,0.0,0.0,0.0,0.0,0.0,0.0,0.0,0.0,0.0,0.0,0.0,0.0,0.0,0.0,0.0,0.0,0.0,0.0,0.0,0.0,0.0,0.0,0.0,0.0,0.0,0.0,0.0,0.0,0.0,0.0,0.0,0.0,0.0,0.0,0.0,0.0,0.0,0.0,0.0,0.0,0.0,0.0,0.0,0.0,0.0,0.0,0.0,0.0,0.0,0.0,0.0,0.0,0.0,0.0,0.0,0.0,0.0,0.0,0.0,0.0,0.0,0.0,0.0,0.0,0.0,0.0,0.0,0.0,0.0,0.0,0.0,0.0,0.0,0.0,0.0,0.0,0.0,0.0,0.0,0.0,0.0,0.0,0.0,0.0,0.0,0.0,0.0,0.0,0.0,0.0,0.0,0.0,0.0,0.0,0.0,0.0,0.0,0.0,0.0,0.0,0.0,0.0,0.0,0.0,0.0,0.0,0.0,0.0,0.0,0.0,0.0,0.0,0.0,0.0,0.0,0.0,0.0,0.0,0.0,0.0,0.0,0.0,0.0,0.0,0.0,0.0,0.0,0.0,0.0,0.0,0.0,0.0,0.0,0.0,0.0,0.0,0.0,0.0,0.0,0.0,0.0,0.0,0.0,0.0,0.0,0.0,0.0,0.0,0.0,0.0,0.0,0.0,0.0,0.0,0.0,0.0,0.0,0.0,0.0,0.0,0.0,0.0,0.0,0.0,0.0,0.0,0.0,0.0,0.0,0.0,0.0,0.0,0.0,0.0,0.0,0.0,0.0,0.0,0.0,0.0,0.0,0.0,0.0,0.0,0.0,0.0,0.0,0.0,0.0,0.0,0.0,0.0,0.0,0.0,0.0,0.0,0.0,0.0,0.0,0.0,0.0,0.0,0.0,0.0,0.0,0.0,0.0,0.0,0.0,0.0,0.0,0.0,0.0,0.0,0.0,0.0,0.0,0.0,0.0,0.0,0.0,0.0,0.0,0.0,0.0,0.0,0.0,0.0,0.0,0.0,0.0,0.0,0.0,0.0,0.0,0.0,0.0,0.0,0.0,0.0,0.0,0.0,0.0,0.0,0.0,0.0,0.0,0.0,0.0,0.0,0.0,0.0,0.0,0.0,0.0,0.0,0.0,0.0,0.0,0.0,0.0,0.0,0.0,0.0,0.0,0.0,0.0,0.0,0.0,0.0,0.0,0.0,0.0,0.0,0.0,0.0,0.0,0.0,0.0,0.0,0.0,0.0,0.0,0.0,0.0,0.0,0.0,0.0,0.0,0.0,0.0,0.0,0.0,0.0,0.0,0.0,0.0,0.0,0.0,0.0,0.0,0.0,0.0,0.0,0.0,0.0,0.0,0.0,0.0,0.0,0.0,0.0,0.0,0.0,0.0,0.0,0.0,0.0,0.0,0.0,0.0,0.0,0.0,0.0,0.0,0.0,0.0,0.0,0.0,0.0,0.0,0.0,0.0,0.0,0.0,0.0,0.0,0.0,0.0,0.0,0.0,0.0,0.0,0.0,0.0,0.0,0.0,0.0,0.0,0.0,0.0,0.0,0.0,0.0,0.0,0.0,0.0,0.0,0.0,0.0,0.0,0.0,0.0,0.0,0.0,0.0,0.0,0.0,0.0,0.0,0.0,0.0,0.0,0.0,0.0,0.0,0.0,0.0,0.0,0.0,0.0,0.0,0.0,0.0,0.0,0.0,0.0,0.0,0.0,0.0,0.0,0.0,0.0,0.0,0.0,0.0,0.0,0.0,0.0,0.0,0.0,0.0,0.0,0.0,0.0,0.0,0.0,0.0,0.0,0.0,0.0,0.0,0.0,0.0,0.0,0.0,0.0,0.0,0.0,0.0,0.0,0.0,0.0,0.0,0.0,0.0,0.0,0.0,0.0,0.0,0.0,0.0,0.0,0.0,0.0,0.0,0.0,0.0,0.0,0.0,0.0,0.0,0.0,0.0,0.0,0.0,0.0,0.0,0.0,0.0,0.0,0.0,0.0,0.0,0.0,0.0,0.0,0.0,0.0,0.0,0.0,0.0,0.0,0.0,0.0,0.0,0.0,0.0,0.0,0.0,0.0,0.0,0.0,0.0,0.0,0.0,0.0,0.0,0.0,0.0,0.0,0.0,0.0,0.0,0.0,0.0,0.0,0.0,0.0,0.0,0.0,0.0,0.0,0.0,0.0,0.0,0.0,0.0,0.0,0.0,0.0,0.0,0.0,0.0,0.0,0.0,0.0,0.0,0.0,0.0,0.0,0.0,0.0,0.0,0.0,0.0,0.0,0.0,0.0,0.0,0.0,0.0,0.0,0.0,0.0,0.0,0.0,0.0,0.0,0.0,0.0,0.0,0.0,0.0,0.0,0.0,0.0,0.0,0.0,0.0,0.0,0.0,0.0,0.0,0.0,0.0,0.0,0.0,0.0,0.0,0.0,0.0,0.0,0.0,0.0,0.0,0.0,0.0,0.0,0.0,0.0,0.0,0.0,0.0,0.0,0.0,0.0,0.0,0.0,0.0,0.0,0.0,0.0,0.0,0.0,0.0,0.0,0.0,0.0,0.0,0.0,0.0,0.0,0.0,0.0,0.0,0.0,0.0,0.0,0.0,0.0,0.0,0.0,0.0,0.0,0.0,0.0,0.0,0.0,0.0,0.0,0.0,0.0,0.0,0.0,0.0,0.0,0.0,0.0,0.0,0.0,0.0,0.0,0.0,0.0,0.0,0.0,0.0,0.0,0.0,0.0,0.0,0.0,0.0,0.0,0.0,0.0,0.0,0.0,0.0,0.0,0.0,0.0,0.0,0.0,0.0,0.0,0.0,0.0,0.0,0.0,-3.5982,0.0,0.0,0.0,0.0,0.0,0.0,0.0,0.0,0.0,0.0,0.0,0.0,0.0,0.0,0.0,0.0,0.0,0.0,0.0,0.0,0.0,0.0,0.0,0.0,-2.6445,-2.7077,-2.7621,-2.7162,-2.6979,-2.7196,0.0,0.0,0.0,0.0,0.0,-2.6192,-2.6586,-2.6804,-2.6822,-2.7708,-2.8349,-2.8848,-2.8144,-2.7051,-2.5664,0.0,0.0,0.0,0.0,0.0,0.0,0.0,0.0,0.0,0.0,0.0,0.0,0.0,0.0,0.0,0.0,0.0,0.0,0.0,0.0,0.0,0.0,0.0,0.0,0.0,0.0,0.0,0.0,0.0,0.0,0.0,0.0,0.0,0.0,0.0,0.0,0.0,0.0,0.0,0.0,0.0,0.0,0.0,0.0,0.0,0.0,0.0,0.0,0.0,0.0,0.0,0.0,0.0,0.0,0.0,0.0,0.0,0.0,0.0,0.0,0.0,0.0,0.0,0.0,0.0,0.0,0.0,0.0,0.0,0.0,0.0,-3.7488,0.0,0.0,0.0,0.0,0.0,0.0,0.0,0.0,0.0,0.0,0.0,0.0,0.0,0.0,0.0,0.0,0.0,0.0,0.0,0.0,0.0,-2.5119,-2.5899,-2.6565,-2.7221,-2.7796,-2.7486,-2.7402,-2.7559,-2.7363,0.0,0.0,0.0,-2.7439,-2.76,-2.8344,-2.876,-2.9084,-3.0142,-3.123,-3.2187,-3.2266,-3.0976,-2.8555,-2.8027,0.0,0.0,0.0,0.0,0.0,0.0,0.0,0.0,0.0,0.0,0.0,0.0,0.0,0.0,0.0,0.0,0.0,0.0,0.0,0.0,0.0,0.0,0.0,0.0,0.0,0.0,0.0,0.0,0.0,0.0,0.0,0.0,0.0,0.0,0.0,0.0,0.0,0.0,0.0,0.0,0.0,0.0,0.0,0.0,0.0,0.0,0.0,0.0,0.0,0.0,0.0,0.0,0.0,0.0,0.0,0.0,0.0,0.0,0.0,0.0,0.0,0.0,0.0,0.0,-4.5139,-4.5536,-4.5893,-4.6335,-4.6453,-4.3334,-4.1387,-4.0502,0.0,0.0,0.0,0.0,0.0,0.0,0.0,0.0,0.0,0.0,0.0,0.0,0.0,0.0,0.0,0.0,0.0,0.0,0.0,0.0,-2.5484,-2.6585,-2.7176,-2.818,-2.958,-2.8996,-2.8984,-2.9726,-2.875,-2.8231,-2.8463,-2.7815,-2.768,-2.8387,-2.9,-2.962,-3.0432,-3.2568,-3.3965,-3.4883,-3.5254,-3.5215,-3.4726,-3.209,-3.0813,-3.052,0.0,0.0,0.0,0.0,0.0,0.0,0.0,0.0,0.0,0.0,0.0,0.0,0.0,0.0,0.0,0.0,0.0,0.0,0.0,0.0,0.0,0.0,0.0,0.0,0.0,0.0,0.0,0.0,0.0,0.0,0.0,0.0,0.0,0.0,0.0,0.0,0.0,0.0,0.0,0.0,0.0,-3.9474,-3.9165,0.0,0.0,0.0,0.0,0.0,0.0,0.0,0.0,0.0,0.0,0.0,0.0,0.0,0.0,-4.4232,-4.5355,-4.6452,-4.7369,-4.8234,-4.8935,-4.9349,-4.9806,-5.0301,-5.0555,-4.9987,0.0,-4.3631,-4.2574,0.0,0.0,0.0,0.0,0.0,0.0,0.0,0.0,0.0,0.0,0.0,0.0,0.0,0.0,0.0,0.0,0.0,0.0,0.0,0.0,0.0,-2.8545,-2.9512,-3.0701,-3.0839,-3.0801,-3.0937,-3.0195,-2.9643,-2.9481,-2.9387,-2.95,-2.9789,-3.0944,-3.2351,-3.3981,-3.572,-3.7051,-3.793,-3.8359,-3.8555,-3.8496,-3.7168,-3.5422,-3.3271,-3.2173,0.0,0.0,0.0,0.0,0.0,0.0,0.0,0.0,0.0,0.0,0.0,0.0,0.0,0.0,0.0,0.0,0.0,0.0,0.0,0.0,0.0,0.0,0.0,0.0,0.0,0.0,0.0,0.0,0.0,0.0,0.0,0.0,0.0,0.0,0.0,0.0,0.0,0.0,0.0,-3.9368,-4.0243,-4.0621,-4.0129,-3.9709,0.0,0.0,0.0,0.0,0.0,0.0,0.0,0.0,0.0,-4.4781,-4.6154,-4.7464,-4.8562,-4.9691,-5.0668,-5.1607,-5.2283,-5.2815,-5.3246,-5.3492,-5.3735,-5.4022,-5.4022,-5.2453,-4.9621,-4.7254,-4.5206,-4.3445,0.0,0.0,0.0,0.0,-4.1586,-4.2904,0.0,0.0,0.0,0.0,0.0,0.0,0.0,0.0,0.0,0.0,0.0,0.0,-2.8965,-3.0156,-3.1348,-3.2559,-3.2754,-3.2734,-3.2519,-3.1917,-3.1347,-3.0797,-3.1197,-3.1511,-3.1634,-3.3428,-3.5295,-3.7253,-3.87,-3.9785,-4.0566,-4.1094,-4.1348,-4.1328,-4.123,-3.9288,-3.6008,-3.4963,-3.3498,-3.1984,0.0,0.0,0.0,0.0,0.0,0.0,0.0,0.0,0.0,0.0,0.0,0.0,0.0,0.0,0.0,0.0,0.0,0.0,0.0,0.0,0.0,0.0,0.0,0.0,0.0,0.0,0.0,0.0,0.0,0.0,0.0,0.0,0.0,0.0,0.0,0.0,0.0,-4.0457,-4.1044,-4.208,-4.1392,-4.075,0.0,0.0,0.0,0.0,0.0,0.0,-4.5158,-4.7221,-4.8435,-4.8564,-5.0253,-5.1693,-5.2543,-5.3326,-5.4279,-5.5139,-5.5411,-5.5881,-5.6202,-5.6202,-5.635,-5.6646,-5.6646,-5.5922,-5.4533,-5.1368,-4.8935,-4.7042,-4.5742,-4.469,-4.4218,-4.4881,-4.5645,-4.6475,0.0,0.0,0.0,0.0,0.0,0.0,0.0,0.0,0.0,0.0,0.0,-2.9004,-3.1133,-3.2148,-3.3516,-3.5605,-3.5039,-3.4746,-3.5176,-3.3887,-3.3034,-3.2626,-3.2642,-3.2965,-3.3633,-3.6119,-3.7967,-3.9043,-4.0781,-4.1875,-4.2324,-4.3144,-4.3535,-4.3516,-4.3125,-4.1406,-3.8878,-3.755,-3.599,-3.439,-3.2996,0.0,0.0,0.0,0.0,0.0,0.0,0.0,0.0,0.0,0.0,0.0,0.0,0.0,0.0,0.0,0.0,0.0,0.0,0.0,0.0,0.0,0.0,0.0,0.0,0.0,0.0,0.0,0.0,0.0,0.0,0.0,0.0,0.0,0.0,0.0,0.0,0.0,0.0,-4.3185,-4.3378,0.0,0.0,0.0,0.0,-4.6391,-4.7361,-4.8488,-5.0044,-5.1141,-5.195,-5.2525,-5.3883,-5.5014,-5.5631,-5.5979,-5.6601,-5.7123,-5.7148,-5.7324,-5.7826,-5.7826,-5.7801,-5.7801,-5.7801,-5.7474,-5.6573,-5.4035,-5.2164,-5.069,-4.9878,-4.9634,-4.9878,-4.9523,-5.0272,-5.1184,0.0,0.0,0.0,0.0,0.0,-2.3281,-2.373,-2.4394,-2.541,-2.7012,-2.8555,-3.0449,-3.2891,-3.418,-3.5508,-3.7109,-3.7207,-3.6914,-3.625,-3.5505,-3.4487,-3.3478,-3.3901,-3.4862,-3.648,-3.8648,-4.0156,-4.0879,-4.2617,-4.3555,-4.3711,-4.4277,-4.4551,-4.4551,-4.4394,-4.3574,-4.2327,-3.9916,-3.8062,-3.6509,-3.5189,-3.3905,0.0,0.0,0.0,0.0,0.0,0.0,0.0,0.0,0.0,0.0,0.0,0.0,0.0,0.0,0.0,0.0,0.0,0.0,0.0,0.0,0.0,0.0,0.0,0.0,0.0,0.0,0.0,0.0,0.0,0.0,0.0,0.0,0.0,0.0,0.0,0.0,0.0,-4.4583,-4.4751,0.0,0.0,-4.5849,-4.7045,-4.927,-5.0149,-5.1303,-5.2858,-5.4521,-5.5534,-5.5757,-5.7099,-5.8074,-5.8669,-5.8848,-5.9278,-5.9829,-5.9829,-5.9829,-6.001,-6.001,-6.001,-5.9985,-5.9608,-5.9131,-5.8529,-5.7249,-5.5576,-5.3736,-5.2883,-5.2322,-5.2164,-5.2025,-5.2288,-5.2625,0.0,0.0,0.0,0.0,0.0,-2.3496,-2.3926,-2.498,-2.6348,-2.8086,-2.9922,-3.207,-3.4668,-3.6113,-3.7402,-3.8691,-3.9062,-3.875,-3.7598,-3.7132,-3.6226,-3.4839,-3.5706,-3.7217,-3.9172,-4.0813,-4.2053,-4.2891,-4.4336,-4.5117,-4.5254,-4.5683,-4.5879,-4.5879,-4.5723,-4.543,-4.4883,-4.2598,-4.0523,-3.8491,-3.7421,-3.6177,-3.4819,0.0,0.0,0.0,0.0,0.0,0.0,0.0,0.0,0.0,0.0,0.0,0.0,0.0,0.0,0.0,0.0,0.0,0.0,0.0,0.0,0.0,0.0,0.0,0.0,0.0,0.0,0.0,0.0,0.0,0.0,0.0,0.0,0.0,0.0,0.0,-4.489,-4.6917,-4.7141,-4.7377,-4.831,-4.892,-5.0101,-5.2065,-5.3277,-5.4377,-5.5732,-5.7448,-5.8374,-5.8374,-5.9428,-6.0236,-6.0613,-6.0613,-6.0788,-6.119,-6.119,-6.119,-6.119,-6.119,-6.119,-6.1165,-6.0788,-6.0412,-6.0035,-5.9483,-5.8378,-5.6972,-5.5726,-5.5151,-5.4852,-5.4852,-5.4852,-5.4852,0.0,0.0,0.0,0.0,0.0,-2.3945,-2.4394,-2.5918,-2.7637,-2.9375,-3.1484,-3.3828,-3.6426,-3.7871,-3.9141,-4.043,-4.0547,-4.0176,-3.9258,-3.8708,-3.7966,-3.7084,-3.8162,-3.9677,-4.1554,-4.2486,-4.3706,-4.5058,-4.5918,-4.6543,-4.6953,-4.7383,-4.7578,-4.7558,-4.7129,-4.6719,-4.6289,-4.5449,-4.3379,-4.0566,-3.9957,-3.8384,-3.6635,0.0,0.0,0.0,0.0,0.0,0.0,0.0,0.0,0.0,0.0,0.0,0.0,0.0,0.0,0.0,0.0,0.0,0.0,0.0,0.0,0.0,0.0,0.0,0.0,0.0,0.0,0.0,0.0,0.0,0.0,0.0,0.0,0.0,-4.4253,-4.5295,-4.7162,-4.9772,-5.0362,-5.0906,-5.1697,-5.2664,-5.3787,-5.5115,-5.6575,-5.7722,-5.878,-5.9809,-6.0362,-6.0362,-6.0939,-6.124,-6.124,-6.124,-6.124,-6.124,-6.124,-6.124,-6.124,-6.124,-6.124,-6.124,-6.1215,-6.1215,-6.1165,-6.0588,-6.0337,-6.0186,-5.8554,-5.7926,-5.7926,-5.7901,-5.7901,-5.775,0.0,0.0,0.0,-2.3555,-2.3711,-2.416,-2.5215,-2.6309,-2.7851,-3.0215,-3.2383,-3.4707,-3.7305,-3.9023,-4.0254,-4.0937,-4.1269,-4.0801,-3.9297,-3.9131,-3.8846,-3.8462,-3.9738,-4.1111,-4.2506,-4.4119,-4.5346,-4.5957,-4.6816,-4.7285,-4.7402,-4.7519,-4.7578,-4.7578,-4.7461,-4.7522,-4.7721,-4.7188,-4.6273,-4.5038,-4.2604,-4.0624,-3.9131,0.0,0.0,0.0,0.0,0.0,0.0,0.0,0.0,0.0,0.0,0.0,0.0,0.0,0.0,0.0,0.0,0.0,0.0,0.0,0.0,0.0,0.0,0.0,0.0,0.0,0.0,0.0,0.0,0.0,0.0,0.0,0.0,-4.5785,-4.6191,-4.7601,-4.9322,-5.1079,-5.2065,-5.3058,-5.4319,-5.5025,-5.6342,-5.8359,-5.8887,-5.9441,-6.0462,-6.1165,-6.1542,-6.1542,-6.2094,-6.237,-6.237,-6.237,-6.237,-6.237,-6.237,-6.237,-6.237,-6.237,-6.237,-6.2345,-6.1943,-6.1793,-6.1743,-6.1165,-6.0939,-6.0788,-5.9131,-5.8504,-5.8453,-5.8052,-5.7901,-5.7851,0.0,0.0,0.0,-2.3711,-2.3945,-2.4434,-2.5566,-2.6914,-2.8613,-3.0859,-3.334,-3.5742,-3.7949,-3.9746,-4.0898,-4.1152,-4.1562,-4.1211,-3.9844,-3.9746,-3.9955,-4.0223,-4.1483,-4.2781,-4.41,-4.5542,-4.6504,-4.7109,-4.7598,-4.793,-4.8125,-4.8307,-4.8488,-4.8488,-4.8669,-4.8751,-4.8932,-4.8851,-4.8561,-4.7784,-4.6037,-4.3738,-4.1424,-4.1436,-4.0713,-3.9563,-3.8954,-3.8528,-3.8139,-3.71,0.0,0.0,0.0,0.0,0.0,0.0,0.0,0.0,0.0,0.0,0.0,0.0,0.0,0.0,0.0,0.0,0.0,0.0,0.0,0.0,0.0,0.0,0.0,0.0,-4.7051,-4.8534,-4.9456,-5.0318,-5.1649,-5.3576,-5.4775,-5.5758,-5.7266,-5.7813,-5.857,-6.0005,-6.0438,-6.1031,-6.1517,-6.2044,-6.2345,-6.2345,-6.2672,-6.2822,-6.2822,-6.2822,-6.2822,-6.2822,-6.2822,-6.2822,-6.2822,-6.2822,-6.2822,0.0,-6.2496,-6.2345,-6.2295,-6.1768,-6.1542,0.0,0.0,0.0,0.0,0.0,-5.8428,-5.8252,0.0,0.0,0.0,-2.3789,-2.4199,-2.4805,-2.5742,-2.7578,-2.9512,-3.1348,-3.4141,-3.6601,-3.832,-4.0059,-4.1074,-4.1035,-4.1406,-4.1328,-4.0566,-4.0605,-4.1074,-4.1973,-4.3242,-4.4512,-4.5781,-4.6641,-4.7441,-4.8203,-4.8262,-4.866,-4.9032,-4.9584,-4.9768,-4.9971,-5.0337,-5.0297,-5.0114,-5.0454,-5.0319,-4.9538,-4.9887,-4.7441,-4.3376,-4.3265,-4.2596,-4.1395,-4.0409,-4.0173,-4.0297,-3.9332,0.0,0.0,0.0,0.0,0.0,0.0,0.0,0.0,0.0,0.0,0.0,0.0,0.0,0.0,0.0,0.0,0.0,0.0,0.0,0.0,0.0,0.0,0.0,0.0,-4.9614,-5.1681,-5.3345,-5.3312,-5.4183,-5.6707,-5.7618,-5.8533,-5.9859,-6.0441,-6.0626,-6.0701,-6.1657,-6.2094,-6.2094,0.0,0.0,0.0,0.0,-6.2822,-6.2822,-6.2822,-6.2822,-6.2822,-6.2822,-6.2822,-6.2822,-6.2822,-6.2822,-6.2822,-6.2822,-6.2822,-6.2797,-6.2295,-6.2069,-6.1893,-6.0839,-6.0387,-6.0261,-5.9759,-5.9257,-5.8805,0.0,0.0,0.0,-2.4219,-2.4648,-2.5352,-2.6582,-2.7715,-2.9277,-3.1719,-3.4062,-3.6172,-3.7871,-3.9609,-4.0508,-4.0176,-4.0527,-4.0703,-4.0527,-4.1172,-4.209,-4.3281,-4.459,-4.5742,-4.666,-4.7519,-4.8047,-4.8203,-4.8921,-4.9505,-5.0114,-5.0479,-5.1227,-5.1951,-5.1951,-5.227,-5.2524,-5.2703,-5.2386,-5.19,-5.19,-4.9651,-4.6351,-4.627,-4.5251,-4.3695,-4.3069,-4.2515,-4.2004,-4.0801,-4.0386,-4.0171,-3.8561,-3.7909,0.0,0.0,0.0,0.0,0.0,0.0,0.0,0.0,0.0,0.0,0.0,0.0,0.0,0.0,0.0,0.0,0.0,0.0,0.0,-4.9734,-5.1776,-5.3886,-5.5929,-5.6741,-5.7311,-5.7594,-5.8656,-5.9971,-6.0961,-6.1198,-6.1534,-6.2308,-6.2596,-6.2672,-6.2672,-6.2772,0.0,-6.2822,-6.2822,-6.2822,-6.2822,-6.2822,-6.2822,-6.2822,0.0,0.0,-6.2822,-6.2822,-6.2822,-6.2822,-6.2822,-6.2822,-6.2822,-6.2722,-6.2395,-6.1943,-6.1266,-6.0738,-6.0311,-6.0186,-5.9809,-5.9357,0.0,0.0,0.0,-2.4668,-2.4922,-2.5508,-2.6816,-2.793,-2.9394,-3.1562,-3.3711,-3.5527,-3.6836,-3.8269,-3.92,-3.922,-4.0007,-4.0621,-4.1113,-4.2168,-4.334,-4.4629,-4.5937,-4.6914,-4.7558,-4.8203,-4.8535,-4.8535,-4.9301,-4.9768,-5.0297,-5.1227,-5.2132,-5.2851,-5.3387,-5.3744,-5.39,-5.39,-5.3593,-5.3223,-5.3223,-5.1667,-4.9479,-4.8475,-4.6979,-4.5257,-4.4359,-4.3759,-4.3022,-4.2035,-4.1575,-4.1224,-3.9941,-3.9333,-3.9064,0.0,0.0,0.0,0.0,0.0,0.0,0.0,0.0,0.0,0.0,0.0,0.0,0.0,0.0,-4.397,-4.5895,0.0,-4.9859,-5.1897,-5.4156,-5.6015,-5.736,-5.896,-5.981,-5.965,-6.028,-6.0986,-6.2045,-6.2095,-6.2358,-6.2797,-6.2822,-6.2822,-6.2822,-6.2822,-6.2822,-6.2822,-6.2822,-6.2822,-6.2822,-6.2822,-6.2822,-6.2822,-6.2822,-6.2822,-6.2822,-6.2822,-6.2822,-6.2822,-6.2822,-6.2822,-6.2822,-6.2822,-6.2672,-6.2395,-6.2119,-6.1492,-6.0713,-6.0412,-6.0136,-5.9859,0.0,0.0,0.0,-2.5019,-2.5137,-2.5605,-2.6836,-2.7949,-2.9336,-3.1152,-3.3027,-3.457,-3.5547,-3.6602,-3.757,-3.8085,-3.9394,-4.065,-4.1739,-4.3027,-4.4453,-4.5859,-4.707,-4.7891,-4.832,-4.8672,-4.8867,-4.8867,-4.942,-4.9991,-5.0783,-5.2076,-5.3199,-5.4002,-5.4805,-5.5115,-5.5115,-5.5027,-5.463,-5.4099,-5.3922,-5.2975,-5.1621,-4.9978,-4.8351,-4.6755,-4.527,-4.4403,-4.3962,-4.2843,-4.2268,-4.1693,-4.0913,-4.0371,-4.0076,-3.9687,-3.9597,0.0,0.0,0.0,0.0,0.0,0.0,0.0,0.0,0.0,-4.1594,-4.3206,-4.4921,-4.6365,-4.8021,-5.0245,-5.2284,-5.3911,-5.6192,-5.7999,-5.864,-6.0292,-6.1559,-6.1658,-6.1683,-6.202,-6.2797,-6.2822,-6.2822,-6.2822,-6.2822,-6.2822,-6.2822,-6.2822,-6.2822,-6.2822,-6.2822,-6.2822,-6.2822,-6.2822,-6.2822,-6.2822,-6.2822,-6.2822,-6.2822,-6.2822,-6.2822,-6.2822,-6.2822,-6.2822,-6.2822,-6.2822,-6.2822,-6.2822,-6.2822,-6.2295,-6.1441,-6.0864,-6.0588,-6.0412,0.0,0.0,0.0,-2.5137,-2.5391,-2.5957,-2.6875,-2.7461,-2.8555,-3.0684,-3.1836,-3.293,-3.416,-3.4989,-3.5884,-3.7104,-3.8465,-3.988,-4.1598,-4.3347,-4.5058,-4.6719,-4.7656,-4.834,-4.8769,-4.8828,-4.8867,-4.8867,-4.9787,-5.0905,-5.2371,-5.3282,-5.4964,-5.6977,-5.6732,-5.6708,-5.7214,-5.626,-5.5357,-5.4454,-5.3544,-5.2629,-5.1626,-5.0632,-4.9641,-4.8545,-4.6885,-4.5804,-4.5263,-4.3599,-4.2704,-4.2189,-4.0971,-4.0773,-4.1131,-4.0996,-4.1001,-4.1044,-4.064,-3.9241,0.0,-3.7984,-3.8123,-3.8745,0.0,0.0,-4.295,-4.4686,-4.615,-4.7866,-5.0261,-5.1963,-5.3538,-5.5516,-5.7531,-5.9135,-6.0179,-6.1246,-6.2195,-6.2509,-6.2559,-6.2747,-6.2822,-6.2822,-6.2822,-6.2822,-6.2822,-6.2822,-6.2822,-6.2822,-6.2822,-6.2822,-6.2822,-6.2822,-6.2822,-6.2822,-6.2822,-6.2822,-6.2822,-6.2822,-6.2822,-6.2822,-6.2822,-6.2822,-6.2822,-6.2822,-6.2822,-6.2822,-6.2822,-6.2822,-6.2822,-6.2747,-6.2571,-6.2019,-6.1517,-6.0989,0.0,0.0,0.0,-2.5488,-2.582,-2.6328,-2.6914,-2.7598,-2.8535,-2.9941,-3.0879,-3.1719,-3.25,-3.3808,-3.5194,-3.6476,-3.7924,-3.9745,-4.1835,-4.3503,-4.5273,-4.7226,-4.7891,-4.8418,-4.8848,-4.8867,-4.8984,-4.9258,-4.9981,-5.0755,-5.1921,-5.3215,-5.4765,-5.6231,-5.6596,-5.6866,-5.6952,-5.6066,-5.4893,-5.3722,-5.2851,-5.1626,-5.0597,-4.9855,-4.923,-4.8469,-4.7213,-4.6023,0.0,-4.4152,-4.3326,-4.2531,-4.2059,-4.201,-4.2209,-4.2257,-4.2504,-4.2555,-4.188,-4.0382,0.0,0.0,-3.9093,-3.9467,-4.1074,-4.2343,-4.3469,-4.534,-4.715,-4.8942,-5.0513,-5.287,-5.5063,0.0,-5.864,-6.0263,-6.1221,-6.1958,-6.2446,-6.2345,-6.2621,-6.2822,-6.2822,-6.2822,-6.2822,-6.2822,-6.2822,-6.2822,-6.2822,-6.2822,-6.2973,-6.3324,-6.3324,-6.3475,-6.3776,-6.3776,-6.3776,-6.3776,-6.3475,-6.3324,-6.3324,-6.2973,-6.2822,-6.2822,-6.2822,-6.2822,-6.2822,-6.2822,-6.2822,-6.2822,-6.2822,-6.2822,-6.2772,-6.222,-6.1868,-6.1592,0.0,0.0,0.0,0.0,0.0,-2.6797,-2.6992,-2.7637,-2.8418,-2.9277,-3.0059,-3.0858,-3.1505,-3.2835,-3.4248,-3.5722,-3.7339,-3.9312,-4.1693,-4.3268,-4.5117,-4.7129,-4.7851,-4.8359,-4.8672,-4.8789,-4.9023,-4.9336,-4.9993,-5.0643,-5.1645,-5.3075,-5.4314,-5.5527,-5.613,-5.6346,-5.6264,-5.5417,-5.4173,-5.2629,-5.1646,-5.0498,-4.9392,-4.8777,-4.8127,-4.7712,-4.6987,-4.6031,-4.4919,-4.4169,-4.3372,-4.2787,-4.2583,-4.246,-4.2677,-4.284,-4.3264,-4.3339,-4.2343,0.0,0.0,-4.0125,-3.984,-4.0225,-4.1861,-4.2787,-4.3889,-4.5613,-4.7508,-4.9318,-5.068,-5.3302,0.0,-5.7546,-5.9404,-6.0861,-6.1918,-6.2345,-6.2446,-6.2044,-6.222,-6.2446,-6.2596,-6.2747,-6.2822,-6.2822,-6.2822,-6.2898,-6.3048,-6.3073,-6.3324,-6.3877,-6.3902,-6.4078,-6.4454,-6.4454,-6.4454,-6.4454,-6.4078,-6.3827,-6.3676,-6.3099,-6.2822,-6.2822,-6.2822,-6.2822,-6.2822,-6.2822,-6.2822,-6.2822,-6.2822,-6.2822,-6.2772,-6.237,-6.2245,-6.2144,0.0,0.0,0.0,0.0,0.0,-2.748,-2.709,-2.7402,-2.7988,-2.8828,-2.9336,-3.0167,-3.1592,-3.223,-3.3211,-3.4734,-3.6261,-3.8127,-4.0793,-4.2624,-4.4512,-4.6269,-4.7539,-4.8223,-4.8223,-4.8633,-4.8867,-4.8887,-4.9835,-5.0643,-5.1645,-5.2653,-5.4215,-5.5932,-5.5464,-5.5202,-5.528,-5.4262,-5.3071,-5.1688,-5.0376,-4.9492,-4.8952,-4.7568,-4.6683,-4.6208,-4.6132,-4.5677,-4.5105,-4.3521,-4.275,-4.2364,-4.1898,-4.1979,-4.2283,-4.2694,-4.3018,-4.3057,-4.1727,0.0,-4.0625,-4.0407,-4.0364,-4.0742,-4.205,-4.2973,-4.4017,-4.5257,-4.6732,-4.8401,-5.1126,-5.3013,-5.513,-5.7958,-5.965,-6.0861,-6.1918,-6.2019,-6.2019,-6.1994,-6.1542,-6.1441,0.0,-6.2521,-6.2822,-6.2822,-6.2822,-6.3073,-6.3626,-6.3676,-6.3902,-6.4429,-6.4454,-6.4454,-6.4454,-6.4454,-6.4454,-6.4454,-6.4454,-6.4178,-6.3676,-6.3099,-6.2822,-6.2822,-6.2822,-6.2822,-6.2822,-6.2822,-6.2822,-6.2822,-6.2822,-6.2822,-6.2822,-6.2822,-6.2797,-6.2722,0.0,0.0,0.0,0.0,0.0,0.0,-2.748,-2.7812,-2.8184,-2.8476,-2.9121,0.0,0.0,0.0,0.0,0.0,-3.5906,-3.7746,-4.0306,-4.1975,-4.3718,-4.5768,-4.6564,-4.722,-4.7798,-4.8255,-4.8613,-4.8912,-4.9465,-5.004,-5.0643,-5.1289,-5.2135,-5.3197,-5.324,-5.3486,-5.3394,-5.2699,-5.1655,-5.0355,-4.957,-4.8353,-4.724,-4.6588,-4.5756,-4.4639,0.0,-4.3959,-4.3883,-4.2967,-4.2282,-4.186,-4.1993,-4.2346,-4.2812,-4.3572,-4.3417,-4.2861,-4.2812,0.0,-4.1235,-4.1854,-4.1742,-4.1563,-4.2562,-4.36,-4.44,-4.5028,-4.6972,-4.8756,-4.9716,-5.1854,-5.4065,-5.6382,-5.8016,-5.9823,-6.1384,-6.1832,-6.1868,-6.1492,-6.1617,0.0,0.0,0.0,0.0,-6.2797,-6.2822,-6.3073,-6.3651,-6.3701,-6.4103,-6.4982,-6.5007,-6.5183,-6.5559,-6.5559,-6.5559,-6.5559,-6.5183,-6.4731,-6.4178,-6.3651,-6.34,-6.3375,-6.2998,-6.2822,-6.2822,-6.2822,-6.2822,-6.2822,-6.2822,-6.2822,-6.2822,-6.2822,-6.2822,-6.2797,0.0,0.0,0.0,0.0,0.0,0.0,0.0,0.0,0.0,0.0,0.0,0.0,0.0,0.0,0.0,0.0,0.0,-3.6689,-3.9068,-4.0599,-4.2356,-4.4583,-4.5717,-4.6634,-4.7223,-4.7984,-4.8515,-4.881,-4.9187,-4.9412,-4.9691,-5.029,-5.0755,-5.1125,-5.1677,-5.178,-5.1548,-5.1005,-4.9853,-4.849,-4.7714,-4.6703,-4.546,-4.4946,-4.4019,0.0,-4.1878,-4.1593,-4.1971,-4.182,-4.1797,-4.1661,-4.1914,-4.2372,-4.2883,-4.3539,-4.313,-4.2672,-4.3078,-4.252,-4.1983,-4.2705,-4.2566,-4.2441,-4.3144,-4.3672,-4.4119,-4.4581,-4.6182,-4.7592,-4.8402,-5.0409,-5.2717,-5.5357,-5.7285,-5.9281,-6.1359,-6.1857,-6.1868,-6.1517,-6.1617,0.0,0.0,0.0,0.0,-6.2797,-6.3023,-6.3375,-6.3927,-6.4153,-6.468,-6.5559,-6.5584,-6.576,-6.6112,-6.6112,-6.6112,-6.6112,-6.5559,-6.5107,-6.4731,-6.4028,-6.3701,-6.3651,-6.3073,-6.2822,-6.2822,-6.2822,-6.2822,-6.2822,-6.2822,-6.2822,-6.2822,-6.2822,-6.2822,-6.2822,0.0,0.0,0.0,0.0,0.0,0.0,0.0,0.0,0.0,0.0,0.0,0.0,0.0,0.0,0.0,0.0,0.0,0.0,-3.7278,-3.8888,-4.0652,-4.2546,-4.4749,-4.6037,-4.656,-4.7743,-4.8459,-4.8609,-4.8752,-4.8716,-4.8841,-4.9207,-4.9631,-5.003,-5.0457,-5.0372,-4.9399,-4.9005,-4.7714,-4.6095,-4.5242,-4.4588,-4.3914,-4.2697,-4.1744,-4.1027,-3.9422,-3.8912,-3.9272,-4.0341,-4.1076,-4.1535,-4.1581,-4.2038,-4.256,-4.2704,-4.2601,-4.2415,-4.2648,-4.2522,-4.2517,-4.2903,-4.3116,-4.3203,-4.3594,-4.334,-4.3372,-4.418,-4.4437,-4.5022,0.0,0.0,-5.124,-5.4831,-5.7132,-5.9207,-6.1471,-6.1832,-6.1994,0.0,0.0,0.0,0.0,0.0,0.0,-6.2797,0.0,-6.3927,-6.4429,-6.4982,-6.5534,-6.6086,-6.6112,-6.6112,-6.6112,-6.6112,-6.6112,-6.6112,-6.5584,-6.5333,-6.5308,-6.4254,-6.3751,-6.3701,-6.3124,-6.2847,-6.2822,-6.2822,-6.2822,-6.2822,-6.2822,-6.2822,-6.2822,-6.2822,-6.2822,-6.2822,0.0,0.0,0.0,0.0,0.0,0.0,0.0,0.0,0.0,0.0,0.0,0.0,0.0,0.0,0.0,0.0,0.0,0.0,-3.6065,-3.7482,-3.9081,-4.1053,-4.2352,-4.3571,-4.4668,-4.5748,-4.6464,-4.6963,-4.7318,-4.7326,-4.7166,-4.7258,-4.738,-4.7223,-4.7345,-4.7095,-4.6555,-4.6216,-4.5123,-4.3874,-4.364,-4.2561,-4.1294,-4.1235,-4.0256,-3.8969,-3.8357,-3.7783,-3.7395,-3.8425,0.0,0.0,0.0,-4.1633,-4.2281,-4.2783,-4.2693,-4.2732,-4.3256,-4.3089,-4.2883,-4.3438,-4.3568,-4.3496,-4.3281,-4.3396,-4.348,-4.3318,-4.3812,-4.46,0.0,0.0,0.0,-5.1994,-5.4532,0.0,-5.9585,-6.0636,0.0,0.0,0.0,-6.1521,-6.1994,-6.237,0.0,0.0,-6.3375,-6.3927,-6.4429,-6.4982,-6.5534,-6.6086,-6.6112,-6.6112,-6.6112,-6.6112,-6.6112,-6.6112,-6.5961,-6.5911,-6.5886,-6.5183,-6.4655,-6.4254,-6.3701,-6.3224,-6.2822,-6.2822,-6.2822,-6.2822,-6.2822,-6.2822,-6.2822,-6.2822,-6.2822,-6.2822,0.0,0.0,0.0,0.0,0.0,0.0,0.0,0.0,0.0,0.0,0.0,0.0,0.0,0.0,0.0,0.0,0.0,0.0,0.0,-3.5868,-3.7278,-3.9101,-4.0435,-4.174,-4.2985,-4.4013,-4.4776,-4.5288,-4.5367,-4.5162,-4.5084,-4.5269,-4.5116,-4.4625,-4.5016,-4.4816,-4.4132,-4.3499,-4.2581,0.0,0.0,-4.0025,-3.8989,-3.8938,-3.815,-3.7033,-3.6642,-3.6248,0.0,0.0,0.0,-4.0166,-4.0847,-4.1711,-4.23,-4.2707,0.0,-4.3218,-4.3755,-4.3619,-4.3431,-4.3883,-4.3719,-4.332,-4.2891,-4.2645,-4.2421,-4.2116,-4.2269,0.0,-4.37,0.0,0.0,0.0,0.0,0.0,-5.8831,-6.0081,-6.1039,0.0,-6.1694,0.0,-6.237,-6.2873,-6.3199,0.0,-6.3726,-6.4153,-6.4454,-6.5208,-6.5785,-6.6112,-6.6112,-6.6112,-6.6112,-6.6112,-6.6112,-6.6112,-6.6112,-6.6112,-6.6086,-6.5534,-6.5107,-6.4806,0.0,-6.3726,-6.3199,-6.3199,-6.3048,-6.2822,-6.2822,-6.2822,-6.2822,-6.2822,-6.2822,-6.2822,0.0,0.0,0.0,0.0,0.0,0.0,0.0,0.0,0.0,0.0,-3.1094,-3.1055,0.0,0.0,0.0,0.0,0.0,0.0,0.0,0.0,-3.5348,-3.7156,-3.8777,-4.0037,-4.1239,-4.2407,-4.3167,-4.3666,-4.3219,-4.2948,-4.2653,-4.3034,-4.2869,-4.2251,-4.3067,-4.2835,-4.1647,-4.0914,-3.9875,-3.8548,-3.7908,-3.7292,-3.6893,0.0,-3.5972,-3.5489,-3.4956,-3.4858,0.0,0.0,-3.8326,-3.974,-4.0814,-4.177,-4.2666,-4.2796,-4.3245,-4.3759,-4.431,-4.4218,-4.3965,-4.4316,-4.3769,-4.3008,-4.2461,-4.166,-4.1012,-4.0773,0.0,-4.0453,-4.1989,-4.3456,-4.5631,-4.9661,0.0,-5.5085,-5.8361,-5.9709,-6.0744,-6.1837,-6.2002,-6.2191,-6.2948,-6.34,-6.3726,-6.3776,-6.4279,-6.458,-6.458,-6.5559,-6.6112,-6.6112,-6.6112,-6.6112,-6.6112,-6.6112,-6.6112,-6.6112,-6.6112,-6.6112,-6.6086,-6.5609,-6.5358,-6.5258,0.0,0.0,-6.3802,-6.3802,-6.345,-6.2948,-6.2948,-6.2898,-6.2822,-6.2822,-6.2822,-6.2822,0.0,0.0,0.0,0.0,0.0,0.0,0.0,0.0,0.0,0.0,-3.2168,-3.1953,0.0,0.0,0.0,0.0,0.0,0.0,0.0,0.0,0.0,-3.5769,-3.6792,-3.7824,-3.9073,-4.0061,-4.0828,-4.1556,-4.1556,-4.1293,-4.0738,-4.0913,-4.0394,-3.9571,-3.9737,-3.9302,-3.8604,-3.8187,-3.7351,-3.6455,-3.6261,-3.5746,-3.5012,-3.526,0.0,0.0,-3.3855,0.0,0.0,0.0,-3.7485,-3.9265,-4.0634,-4.1684,-4.2544,-4.326,-4.3858,-4.435,-4.4739,-4.4805,-4.4726,-4.4473,-4.3984,-4.3301,-4.2168,-4.1207,0.0,0.0,-3.9009,-3.8952,-3.9857,-4.1067,0.0,-4.6936,0.0,0.0,0.0,0.0,-5.883,0.0,0.0,0.0,0.0,0.0,0.0,0.0,0.0,0.0,-6.5157,-6.576,-6.6112,-6.6112,-6.6112,-6.6112,-6.6112,-6.6112,-6.6112,-6.6112,-6.6112,-6.6112,-6.6112,-6.6011,-6.571,-6.5283,-6.5183,0.0,-6.4329,-6.4329,-6.4028,-6.355,-6.355,-6.3249,-6.2822,-6.2822,-6.2822,-6.2822,0.0,0.0,0.0,0.0,0.0,0.0,0.0,-3.2598,-3.3301,-3.373,-3.3828,-3.3496,-3.2598,-3.25,-3.2402,0.0,0.0,0.0,0.0,0.0,0.0,0.0,0.0,0.0,-3.6967,-3.7675,0.0,0.0,0.0,-3.8883,-3.8226,0.0,-3.8081,-3.7164,-3.741,-3.7105,-3.6374,-3.611,-3.5468,-3.4854,-3.4724,-3.4359,-3.3985,0.0,0.0,0.0,0.0,0.0,0.0,0.0,-3.6858,-3.8326,-4.0187,-4.1401,-4.2507,-4.3431,-4.4218,-4.4719,-4.5195,-4.5195,-4.498,-4.4766,-4.3711,-4.2441,-4.1367,0.0,0.0,0.0,-3.7591,-3.7657,-3.88,0.0,0.0,0.0,0.0,0.0,0.0,0.0,0.0,0.0,0.0,0.0,0.0,0.0,0.0,0.0,0.0,0.0,-6.5308,-6.581,-6.6112,-6.6112,-6.6112,-6.6112,-6.6112,-6.6112,-6.6112,-6.6112,-6.6112,-6.6112,-6.6112,-6.6112,-6.5961,-6.571,-6.571,0.0,-6.4906,-6.4906,-6.458,-6.4078,-6.3802,-6.3525,-6.3249,-6.2948,-6.2822,-6.2822,0.0,0.0,0.0,0.0,0.0,0.0,-3.2226,-3.3379,-3.4394,-3.4902,-3.5469,-3.5215,-3.3652,-3.3242,-3.2891,0.0,0.0,0.0,0.0,0.0,0.0,0.0,0.0,0.0,0.0,0.0,0.0,0.0,0.0,0.0,0.0,0.0,0.0,0.0,0.0,-3.5416,-3.4692,-3.4437,-3.4112,0.0,0.0,-3.3418,0.0,0.0,0.0,0.0,0.0,0.0,0.0,0.0,-3.6445,-3.7519,-3.959,-4.1133,-4.2363,-4.3398,-4.4277,-4.5,-4.5527,-4.543,-4.5117,-4.4941,-4.3398,-4.166,-4.0625,-3.8935,0.0,-3.6869,-3.6365,-3.6391,-3.7978,0.0,0.0,0.0,0.0,0.0,0.0,0.0,0.0,0.0,0.0,0.0,0.0,0.0,0.0,0.0,0.0,0.0,0.0,-6.5886,-6.6112,-6.6112,-6.6112,-6.6112,-6.6112,-6.6112,-6.6112,-6.6112,-6.6112,-6.6112,-6.6112,-6.6112,-6.6112,-6.6112,-6.6112,0.0,0.0,-6.5459,-6.5132,-6.4605,-6.4203,-6.3952,-6.3776,-6.3224,-6.2998,-6.2998,0.0,0.0,0.0,0.0,0.0,0.0,-3.2617,-3.3828,-3.4941,-3.5781,-3.6621,-3.6758,-3.582,-3.4668,-3.3769,0.0,0.0,0.0,0.0,0.0,0.0,0.0,0.0,0.0,0.0,0.0,0.0,0.0,0.0,0.0,0.0,0.0,0.0,0.0,0.0,0.0,0.0,-3.3476,0.0,0.0,0.0,0.0,0.0,0.0,0.0,0.0,0.0,0.0,0.0,0.0,0.0,-3.7031,-3.8769,-4.0234,-4.1601,-4.3223,0.0,0.0,-4.5449,-4.5644,-4.543,-4.4648,-4.3398,-4.1953,-4.0312,0.0,-3.7093,-3.6241,-3.54,-3.518,-3.6309,-3.7278,0.0,0.0,0.0,-4.7069,0.0,0.0,0.0,0.0,0.0,0.0,0.0,0.0,0.0,0.0,0.0,0.0,0.0,-6.6086,-6.6112,-6.6112,-6.6112,-6.6112,-6.6112,-6.6112,-6.6112,-6.6112,-6.6112,-6.6112,-6.6112,-6.6112,-6.6112,-6.6112,-6.6112,0.0,0.0,-6.6036,-6.571,-6.5208,-6.5157,-6.4831,-6.4329,-6.3802,-6.3626,-6.3525,0.0,0.0,0.0,0.0,0.0,0.0,-3.3047,-3.4492,-3.5801,-3.668,-3.7305,-3.7344,-3.6504,-3.5488,-3.459,-3.3867,0.0,0.0,0.0,0.0,0.0,0.0,0.0,0.0,0.0,0.0,0.0,-3.4952,0.0,0.0,0.0,0.0,0.0,0.0,0.0,0.0,0.0,0.0,0.0,0.0,0.0,0.0,0.0,0.0,0.0,0.0,0.0,0.0,0.0,0.0,0.0,0.0,-3.7207,-3.8223,0.0,0.0,-4.3457,-4.3848,-4.498,-4.5098,-4.4766,-4.4141,-4.2812,-4.1289,-3.9805,0.0,-3.6367,-3.5574,-3.4794,-3.4445,-3.5396,-3.6355,-3.7852,0.0,-4.2767,0.0,-4.9138,0.0,0.0,0.0,0.0,0.0,0.0,0.0,0.0,0.0,0.0,0.0,0.0,-6.6112,-6.6112,-6.6112,-6.6112,-6.6112,-6.6112,-6.6112,-6.6112,-6.6112,-6.6112,-6.6112,-6.6112,-6.6112,-6.6112,-6.6112,-6.6112,0.0,0.0,-6.6112,-6.5986,-6.576,-6.5434,-6.5157,-6.4906,-6.4354,-6.4153,-6.4078,0.0,0.0,0.0,0.0,0.0,-3.2402,-3.3125,-3.4707,-3.6094,-3.6816,-3.7402,-3.7461,-3.6758,-3.5898,-3.5098,-3.4316,-3.375,0.0,0.0,0.0,0.0,0.0,0.0,0.0,0.0,0.0,-3.4152,-3.4448,-3.4525,0.0,0.0,0.0,0.0,0.0,0.0,0.0,0.0,0.0,0.0,0.0,0.0,0.0,0.0,0.0,0.0,0.0,0.0,0.0,0.0,0.0,0.0,0.0,0.0,0.0,0.0,0.0,-4.2422,-4.2793,-4.4101,-4.4238,-4.3906,-4.3437,-4.2148,-4.0644,0.0,0.0,-3.5762,-3.5146,-3.4408,-3.4061,-3.4752,-3.5581,-3.6922,-3.9626,-4.1693,-4.4289,-4.8043,-5.0925,0.0,0.0,0.0,0.0,0.0,0.0,0.0,0.0,0.0,0.0,0.0,-6.6112,-6.6112,-6.6112,-6.6112,-6.6112,-6.6112,-6.6112,-6.6112,-6.6112,-6.6112,-6.6112,-6.6112,-6.6112,-6.6112,-6.6112,0.0,0.0,0.0,-6.6112,-6.6112,-6.6061,-6.5685,-6.5534,-6.5459,-6.4906,-6.4705,-6.463,0.0,0.0,0.0,0.0,0.0,-3.2305,-3.2734,-3.4277,-3.5547,-3.5976,-3.6777,-3.7148,-3.6719,-3.5898,-3.5195,-3.4726,-3.3906,0.0,0.0,0.0,0.0,0.0,0.0,0.0,0.0,0.0,-3.4062,-3.4082,-3.4492,-3.4687,-3.4687,-3.4258,0.0,0.0,0.0,0.0,0.0,0.0,0.0,0.0,0.0,0.0,0.0,0.0,0.0,0.0,0.0,0.0,0.0,0.0,0.0,0.0,0.0,-3.5703,-3.6621,-3.9668,-4.0859,-4.1465,-4.2754,-4.3105,-4.2988,-4.2558,-4.1465,-4.0176,0.0,0.0,-3.5762,-3.4883,-3.4023,-3.3681,-3.4497,-3.4953,-3.6193,-3.9009,-4.1486,-4.4084,-4.7507,-5.0853,0.0,0.0,0.0,0.0,0.0,0.0,0.0,0.0,0.0,0.0,0.0,0.0,-6.6112,-6.6112,-6.6112,-6.6112,-6.6112,-6.6112,-6.6112,-6.6112,-6.6112,-6.6112,-6.6112,-6.6112,-6.6112,0.0,0.0,0.0,0.0,-6.6112,-6.6112,-6.6112,-6.6112,-6.6112,-6.6036,-6.5484,-6.5283,-6.5208,0.0,0.0,0.0,0.0,0.0,0.0,-3.2676,-3.3769,-3.4746,-3.5488,-3.6074,-3.6269,-3.584,-3.5273,-3.4746,-3.4316,-3.375,0.0,0.0,0.0,0.0,0.0,0.0,0.0,0.0,-3.3848,-3.4375,-3.498,-3.5117,-3.5469,-3.6035,-3.5312,-3.498,-3.4941,0.0,0.0,0.0,0.0,0.0,0.0,0.0,0.0,0.0,0.0,0.0,0.0,0.0,0.0,0.0,0.0,0.0,0.0,0.0,0.0,0.0,-3.6914,-3.8574,-4.0039,-4.1055,-4.1543,-4.168,-4.123,-4.0371,-3.9277,-3.7988,0.0,-3.5332,-3.4453,-3.3828,-3.3457,-3.3721,-3.4348,-3.5679,-3.7904,-4.0167,-4.2869,-4.6529,0.0,0.0,0.0,0.0,0.0,0.0,0.0,0.0,0.0,0.0,0.0,0.0,0.0,-6.6112,-6.6112,-6.6112,-6.6112,-6.6112,-6.6112,-6.6112,-6.6112,-6.6112,-6.6112,-6.6112,-6.6112,0.0,0.0,0.0,0.0,0.0,-6.6112,-6.6112,-6.6112,-6.6112,-6.6112,-6.6086,-6.5911,-6.586,-6.5785,0.0,0.0,0.0,0.0,0.0,0.0,-3.2226,-3.3184,-3.4023,-3.457,-3.5156,-3.543,-3.5156,-3.4726,-3.4355,-3.4101,-3.3672,0.0,0.0,0.0,0.0,0.0,0.0,0.0,-3.3672,-3.4258,-3.5,-3.5879,-3.6191,-3.6699,-3.7363,-3.6523,-3.6035,-3.582,-3.4785,-3.4219,0.0,0.0,0.0,0.0,0.0,0.0,-3.3418,0.0,0.0,0.0,0.0,0.0,0.0,0.0,0.0,0.0,0.0,0.0,0.0,0.0,-3.6465,-3.8027,-3.9219,-3.9863,-4.0137,-3.9863,-3.9141,-3.8242,-3.7285,0.0,-3.4941,-3.4219,-3.373,-3.3418,-3.3418,-3.4121,-3.5376,-3.7319,-3.9661,-4.2492,-4.6455,0.0,0.0,0.0,0.0,0.0,0.0,0.0,0.0,0.0,0.0,0.0,0.0,0.0,-6.6112,-6.6112,-6.6112,-6.6112,-6.6112,-6.6112,-6.6112,-6.6112,-6.6112,-6.6112,-6.6112,-6.6112,0.0,0.0,0.0,0.0,0.0,-6.6112,-6.6112,-6.6112,-6.6112,-6.6112,-6.6112,-6.6112,-6.6112,-6.6061,0.0,0.0,0.0,0.0,0.0,0.0,0.0,-3.2519,-3.3301,-3.3379,-3.4062,-3.457,-3.4609,-3.4258,-3.4023,-3.4023,-3.3652,0.0,0.0,0.0,0.0,0.0,0.0,0.0,-3.4062,-3.4941,-3.582,-3.6719,-3.7559,-3.8203,-3.8652,-3.7793,-3.7187,-3.6738,-3.5391,-3.4531,0.0,0.0,0.0,0.0,-3.3476,-3.3457,0.0,0.0,0.0,0.0,0.0,0.0,0.0,0.0,0.0,0.0,0.0,0.0,0.0,0.0,0.0,0.0,0.0,-3.8027,-3.8437,-3.8437,-3.7812,-3.709,-3.668,-3.5586,0.0,0.0,0.0,-3.3437,-3.3457,-3.4141,-3.5396,-3.736,-3.982,-4.2942,-4.6793,0.0,0.0,0.0,0.0,0.0,0.0,0.0,0.0,0.0,0.0,0.0,0.0,0.0,-6.6112,-6.6112,-6.6112,-6.6112,-6.6112,-6.6112,-6.6112,-6.6112,-6.6112,-6.6112,-6.6112,-6.6112,0.0,0.0,0.0,0.0,0.0,-6.6112,-6.6112,-6.6112,-6.6112,-6.6112,-6.6112,-6.6112,-6.6112,-6.6112,0.0,0.0,0.0,0.0,0.0,0.0,0.0,0.0,0.0,0.0,-3.3125,-3.3359,-3.3691,-3.3633,-3.3574,0.0,0.0,0.0,0.0,0.0,0.0,0.0,0.0,0.0,-3.4062,-3.4941,-3.5976,-3.7148,-3.8008,-3.8828,-3.957,-3.8691,-3.8223,-3.8047,-3.6426,-3.5273,0.0,0.0,0.0,0.0,-3.3926,-3.3711,0.0,0.0,0.0,0.0,-3.3418,-3.3418,0.0,0.0,0.0,0.0,0.0,0.0,0.0,0.0,-3.3965,-3.4473,-3.4863,0.0,-3.7129,-3.7129,-3.6719,-3.6211,0.0,-3.4922,0.0,0.0,0.0,0.0,0.0,-3.4355,-3.5362,-3.738,-3.963,-4.2475,-4.6497,0.0,0.0,0.0,0.0,0.0,0.0,0.0,0.0,0.0,0.0,0.0,0.0,0.0,-6.6112,-6.6112,-6.6112,-6.6112,-6.6112,-6.6112,-6.6112,-6.6112,-6.6112,-6.6112,-6.6112,-6.6112,0.0,0.0,0.0,0.0,-6.6112,-6.6112,-6.6112,-6.6112,-6.6112,-6.6112,-6.6112,-6.6112,-6.6112,-6.6112,0.0,0.0,0.0,0.0,0.0,0.0,0.0,0.0,0.0,0.0,-3.2676,-3.2949,-3.3379,-3.3418,-3.3418,0.0,0.0,0.0,0.0,0.0,0.0,0.0,0.0,-3.3711,-3.4336,-3.5234,-3.6406,-3.7891,-3.875,-3.9726,-4.0742,-3.9883,-3.9375,-3.9082,-3.6973,-3.5527,0.0,0.0,0.0,-3.4082,-3.4082,0.0,0.0,0.0,0.0,0.0,-3.3418,-3.3418,0.0,-3.3926,-3.3789,-3.3496,0.0,0.0,0.0,0.0,-3.3594,-3.3828,-3.4023,-3.4902,-3.5762,-3.5762,-3.5449,-3.5078,-3.4844,-3.4258,0.0,0.0,0.0,0.0,0.0,0.0,0.0,-3.858,-4.0779,-4.4059,0.0,0.0,0.0,0.0,0.0,0.0,0.0,0.0,0.0,0.0,0.0,0.0,0.0,0.0,-6.6112,-6.6112,-6.6112,-6.6112,-6.6112,-6.6112,-6.6112,-6.6112,-6.6112,-6.6112,-6.6112,-6.6112,-6.6112,0.0,0.0,0.0,-6.6112,-6.6112,-6.6112,-6.6112,-6.6112,-6.6112,-6.6112,-6.6112,-6.6112,-6.6112,0.0,0.0,0.0,0.0,0.0,0.0,0.0,0.0,0.0,0.0,0.0,0.0,0.0,0.0,0.0,0.0,0.0,0.0,0.0,0.0,0.0,0.0,-3.3516,-3.3926,-3.4785,-3.5723,-3.7051,-3.8769,-3.9668,-4.0703,-4.1875,-4.1016,-4.0254,-3.9492,-3.7226,-3.5723,-3.4902,-3.4902,-3.4609,-3.416,-3.416,0.0,0.0,0.0,0.0,0.0,0.0,0.0,0.0,-3.3926,-3.3789,-3.3496,-3.3945,0.0,0.0,0.0,0.0,0.0,-3.3945,-3.4336,-3.4629,-3.4766,-3.4531,-3.4277,-3.4277,0.0,0.0,0.0,0.0,0.0,0.0,0.0,0.0,0.0,0.0,0.0,0.0,0.0,0.0,0.0,0.0,0.0,0.0,0.0,0.0,0.0,0.0,0.0,0.0,0.0,0.0,-6.6112,-6.6112,-6.6112,-6.6112,-6.6112,-6.6112,-6.6112,-6.6112,-6.6112,-6.6112,-6.6112,-6.6112,0.0,0.0,0.0,-6.6112,-6.6112,-6.6112,-6.6112,-6.6112,-6.6112,-6.6112,-6.6112,-6.6112,-6.6112,0.0,0.0,0.0,0.0,0.0,0.0,0.0,0.0,0.0,0.0,0.0,0.0,0.0,0.0,0.0,0.0,0.0,0.0,0.0,0.0,0.0,-3.3965,-3.3965,-3.4394,-3.5273,-3.6484,-3.7949,-3.9687,-4.0547,-4.1445,-4.2305,-4.1465,-4.0059,-3.8184,-3.7441,-3.6621,-3.582,-3.582,-3.5351,-3.4609,-3.4609,0.0,0.0,0.0,0.0,0.0,0.0,0.0,0.0,-3.3926,-3.3789,-3.3496,-3.3945,0.0,0.0,0.0,0.0,0.0,-3.3945,-3.4121,-3.4355,-3.5098,-3.5234,-3.5195,-3.5195,-3.4824,0.0,0.0,0.0,0.0,0.0,0.0,0.0,0.0,0.0,0.0,0.0,0.0,0.0,0.0,0.0,0.0,0.0,0.0,0.0,0.0,0.0,0.0,0.0,0.0,0.0,-6.6112,-6.6112,-6.6112,-6.6112,-6.6112,-6.6112,-6.6112,-6.6112,-6.6112,-6.6112,-6.6112,-6.6112,0.0,0.0,-6.6112,-6.6112,-6.6112,-6.6112,-6.6112,-6.6112,-6.6112,-6.6112,-6.6112,-6.6112,-6.6112,0.0,0.0,0.0,0.0,0.0,0.0,0.0,0.0,0.0,0.0,0.0,0.0,0.0,0.0,0.0,0.0,0.0,0.0,0.0,0.0,-3.3965,-3.4394,-3.5098,-3.5664,-3.6074,-3.7344,-3.8848,-4.0586,-4.1445,-4.2422,-4.3457,-4.2129,-4.0469,-3.8555,-3.7461,-3.6484,-3.5664,-3.541,-3.4941,-3.4355,0.0,0.0,0.0,0.0,0.0,0.0,0.0,0.0,0.0,0.0,-3.3789,-3.3496,-3.3945,0.0,0.0,0.0,0.0,0.0,-3.4238,-3.4414,-3.4629,-3.5508,-3.5371,-3.5078,-3.5332,0.0,0.0,0.0,0.0,0.0,0.0,0.0,0.0,0.0,0.0,0.0,0.0,0.0,0.0,0.0,0.0,0.0,0.0,0.0,0.0,0.0,0.0,0.0,0.0,0.0,0.0,0.0,-6.6112,-6.6112,-6.6112,-6.6112,-6.6112,-6.6112,-6.6112,-6.6112,-6.6112,-6.6112,-6.6112,-6.6112,0.0,-6.6112,-6.6112,-6.6112,-6.6112,-6.6112,-6.6112,-6.6112,-6.6112,-6.6112,-6.6112,-6.6112,0.0,0.0,0.0,0.0,0.0,0.0,0.0,0.0,0.0,0.0,0.0,0.0,0.0,0.0,0.0,0.0,0.0,0.0,0.0,-3.3828,-3.4316,-3.4844,-3.6113,-3.6914,-3.7109,-3.8476,-4.0039,-4.1758,-4.2519,-4.3301,-4.4062,-4.2519,-4.082,-3.8984,-3.748,-3.6289,-3.5371,-3.5019,-3.4551,-3.4082,0.0,0.0,0.0,0.0,0.0,0.0,0.0,0.0,0.0,0.0,0.0,0.0,0.0,0.0,0.0,-3.3418,-3.3418,-3.3594,-3.4355,-3.4629,-3.4902,-3.5801,-3.5586,-3.5273,-3.5742,0.0,0.0,0.0,0.0,0.0,0.0,0.0,0.0,0.0,0.0,0.0,0.0,0.0,0.0,0.0,0.0,0.0,0.0,0.0,0.0,0.0,0.0,0.0,0.0,0.0,0.0,0.0,-6.6112,-6.6112,-6.6112,-6.6112,-6.6112,-6.6112,-6.6112,-6.6112,-6.6112,-6.6112,-6.6112,-6.6112,-6.6112,-6.6112,-6.6112,-6.6112,-6.6112,-6.6112,-6.6112,-6.6112,-6.6112,-6.6112,-6.6112,-6.6112,0.0,0.0,0.0,0.0,0.0,0.0,0.0,0.0,0.0,0.0,0.0,0.0,0.0,0.0,0.0,0.0,0.0,0.0,0.0,-3.3828,-3.4453,-3.5312,-3.6562,-3.7617,-3.8418,-4.0117,-4.1816,-4.3516,-4.4023,-4.3887,-4.3144,-4.2226,-4.0664,-3.8574,-3.7656,-3.6562,-3.5391,-3.5351,-3.4863,-3.4082,-3.4082,0.0,0.0,0.0,0.0,0.0,0.0,0.0,0.0,0.0,0.0,0.0,0.0,0.0,-3.3418,-3.3418,-3.3418,-3.3516,-3.3984,-3.4394,-3.4902,-3.5801,-3.6269,0.0,-3.707,-3.7461,0.0,-3.8809,0.0,0.0,0.0,0.0,0.0,0.0,0.0,0.0,0.0,0.0,0.0,0.0,0.0,0.0,0.0,0.0,0.0,0.0,0.0,0.0,0.0,0.0,0.0,0.0,0.0,-6.6112,-6.6112,-6.6112,-6.6112,-6.6112,-6.6112,-6.6112,-6.6112,-6.6112,-6.6112,-6.6112,-6.6112,-6.6112,-6.6112,-6.6112,-6.6112,-6.6112,-6.6112,-6.6112,-6.6112,-6.6112,-6.6112,-6.6112,0.0,0.0,0.0,0.0,0.0,0.0,0.0,0.0,0.0,0.0,0.0,0.0,0.0,0.0,0.0,0.0,0.0,0.0,0.0,-3.3828,-3.4473,-3.5351,-3.6621,-3.8086,-3.9746,-4.1211,-4.2793,-4.4531,-4.5234,-4.5,-4.3867,-4.2461,-4.0781,-3.8906,-3.7519,-3.6348,-3.5351,-3.4805,-3.4375,-3.4043,-3.3769,-3.3574,0.0,0.0,0.0,0.0,0.0,0.0,0.0,0.0,-3.3418,-3.3418,-3.3418,-3.3418,-3.3418,-3.3418,-3.3418,-3.3574,-3.4277,-3.457,-3.498,-3.6133,-3.6934,0.0,0.0,-3.8652,-3.9394,-4.0254,-4.0715,0.0,0.0,0.0,0.0,0.0,0.0,0.0,0.0,0.0,0.0,0.0,0.0,0.0,0.0,0.0,0.0,0.0,0.0,0.0,0.0,0.0,0.0,0.0,0.0,-6.6112,-6.6112,-6.6112,-6.6112,-6.6112,-6.6112,-6.6112,-6.6112,-6.6112,-6.6112,-6.6112,-6.6112,-6.6112,-6.6112,-6.6112,-6.6112,-6.6112,-6.6112,-6.6112,-6.6112,-6.6112,-6.6112,-6.6112,0.0,0.0,0.0,0.0,0.0,0.0,0.0,0.0,0.0,0.0,0.0,0.0,0.0,0.0,0.0,0.0,0.0,0.0,-3.3418,-3.3828,-3.4394,-3.5137,-3.6406,-3.7988,-3.9863,-4.1308,-4.3086,-4.5234,-4.582,-4.5371,-4.3945,-4.2344,-4.0742,-3.9141,-3.7695,-3.6523,-3.5547,-3.4941,-3.4453,-3.4043,-3.375,-3.3535,0.0,0.0,0.0,0.0,0.0,0.0,0.0,0.0,-3.3418,-3.3418,-3.3418,-3.3418,-3.3418,-3.3418,-3.3418,-3.3574,-3.4316,-3.4707,-3.5234,0.0,0.0,0.0,-3.9434,-4.0059,-4.082,-4.1953,0.0,0.0,0.0,0.0,0.0,0.0,0.0,0.0,0.0,0.0,0.0,0.0,0.0,0.0,0.0,0.0,0.0,0.0,0.0,0.0,0.0,0.0,0.0,0.0,0.0,-6.6112,-6.6112,-6.6112,-6.6112,-6.6112,-6.6112,-6.6112,-6.6112,-6.6112,-6.6112,-6.6112,-6.6112,-6.6112,-6.6112,-6.6112,-6.6112,-6.6112,-6.6112,-6.6112,-6.6112,-6.6112,-6.6112,-6.6112,0.0,0.0,0.0,0.0,0.0,0.0,0.0,0.0,-3.3038,-3.3292,-3.3418,0.0,0.0,0.0,0.0,0.0,0.0,0.0,-3.3418,-3.3828,-3.4258,-3.4668,-3.5957,-3.7266,-3.8535,-4.0293,-4.2656,-4.5664,-4.5644,-4.4766,-4.3047,-4.1758,-4.0469,-3.918,-3.832,-3.7226,-3.6035,-3.6016,-3.5273,-3.4082,-3.4082,-3.3809,-3.3437,0.0,0.0,0.0,0.0,0.0,0.0,0.0,-3.3418,-3.3418,-3.3418,-3.3418,-3.3418,-3.3418,-3.3418,-3.3516,-3.3965,-3.4726,0.0,0.0,0.0,0.0,-4.1504,-4.1816,-4.2305,-4.4043,0.0,0.0,0.0,0.0,0.0,0.0,0.0,0.0,0.0,0.0,0.0,0.0,0.0,0.0,0.0,0.0,0.0,0.0,0.0,0.0,0.0,0.0,0.0,0.0,-6.6086,-6.6086,-6.6112,-6.6112,-6.6112,-6.6112,-6.6112,-6.6112,-6.6112,-6.6112,-6.6112,-6.6112,-6.6112,-6.6112,-6.6112,-6.6112,-6.6112,-6.6112,-6.6112,-6.6112,-6.6112,-6.6112,-6.6112,-6.6112,0.0,0.0,0.0,0.0,0.0,0.0,0.0,0.0,-3.2931,-3.3038,-3.3292,0.0,0.0,0.0,0.0,0.0,0.0,0.0,-3.3418,-3.3535,-3.3809,-3.4238,-3.5234,-3.6504,-3.8086,-4.041,-4.25,-4.4297,-4.3984,-4.3418,-4.2598,-4.1308,-4.0351,-3.9648,-3.8769,-3.7832,-3.6875,-3.6269,-3.5625,-3.4941,-3.4316,-3.4004,-3.3848,0.0,0.0,0.0,0.0,0.0,0.0,0.0,0.0,0.0,-3.3418,-3.3418,-3.3418,-3.3418,-3.3633,-3.3965,-3.4394,0.0,0.0,0.0,0.0,0.0,0.0,-4.2715,0.0,0.0,0.0,0.0,0.0,0.0,0.0,0.0,0.0,0.0,0.0,0.0,0.0,0.0,0.0,0.0,0.0,0.0,0.0,0.0,0.0,0.0,0.0,0.0,0.0,0.0,-6.4957,-6.5132,-6.5534,-6.5534,-6.5735,-6.6112,-6.6112,-6.6112,-6.6112,-6.6112,-6.6112,-6.6112,-6.6112,-6.6112,-6.6112,-6.6112,-6.6112,-6.6112,-6.6112,-6.6112,-6.6112,-6.6112,-6.6112,-6.6112,0.0,0.0,0.0,0.0,0.0,0.0,0.0,0.0,-3.2549,-3.2676,-3.3038,-3.3165,0.0,0.0,0.0,0.0,0.0,0.0,-3.3165,-3.3165,-3.3281,-3.3425,-3.4386,-3.5782,-3.7637,-3.9551,-4.082,-4.1406,-4.2031,-4.209,-4.1641,-4.0703,-4.0234,-4.0098,-3.9219,-3.834,-3.75,-3.6816,-3.6094,-3.5351,-3.4805,-3.4394,-3.4043,0.0,0.0,0.0,0.0,0.0,0.0,0.0,0.0,0.0,-3.3418,-3.3418,-3.3418,-3.3418,-3.373,-3.4199,-3.4805,0.0,0.0,0.0,0.0,0.0,0.0,0.0,0.0,0.0,0.0,0.0,0.0,0.0,0.0,0.0,0.0,0.0,0.0,0.0,0.0,0.0,0.0,0.0,0.0,0.0,0.0,0.0,0.0,0.0,0.0,0.0,0.0,0.0,-6.4312,-6.4462,-6.4957,-6.4957,-6.5132,-6.5118,-6.5343,-6.5442,-6.5271,-6.5839,-6.6112,-6.6112,-6.6112,-6.6112,-6.6112,-6.6112,-6.6112,-6.6112,-6.6112,-6.6112,-6.6112,-6.6112,-6.6112,-6.6112,0.0,0.0,-2.9104,-2.9452,0.0,0.0,0.0,0.0,-3.2038,-3.2294,-3.2676,-3.2804,0.0,0.0,0.0,0.0,0.0,0.0,-3.2931,-3.2804,-3.2676,-3.2478,-3.3704,-3.5182,-3.7207,-3.8008,-3.8184,-3.7754,-3.9844,-4.0703,-4.0332,-4.0,-4.0078,-4.0488,-3.9629,-3.8789,-3.7949,-3.7461,-3.6543,-3.5449,-3.5371,-3.4844,-3.4121,-3.4082,0.0,0.0,0.0,0.0,0.0,0.0,0.0,0.0,-3.332,-3.3359,-3.3418,-3.3379,-3.373,-3.4316,0.0,0.0,0.0,0.0,0.0,0.0,0.0,0.0,0.0,0.0,0.0,0.0,0.0,0.0,0.0,0.0,0.0,0.0,0.0,0.0,0.0,0.0,0.0,0.0,0.0,0.0,0.0,0.0,0.0,0.0,0.0,0.0,0.0,0.0,-6.3657,-6.3851,-6.4212,-6.4212,-6.4069,0.0,-6.4303,-6.421,-6.3915,-6.5345,-6.594,-6.594,-6.594,-6.594,-6.594,-6.594,-6.6112,-6.6112,-6.6112,-6.6112,-6.6112,-6.6112,-6.6112,-6.6112,0.0,0.0,-2.9012,-2.9085,0.0,0.0,0.0,0.0,0.0,-3.2038,0.0,0.0,0.0,0.0,0.0,0.0,0.0,0.0,-3.2549,-3.2549,-3.2554,-3.2876,-3.4432,-3.5664,-3.6797,-3.6992,-3.6875,-3.6426,-3.791,-3.875,-3.9004,-3.9238,-3.9766,-4.0508,-3.998,-3.9258,-3.8359,-3.7266,-3.6445,-3.582,-3.5137,-3.4726,-3.4531,-3.4199,-3.3809,0.0,0.0,0.0,0.0,0.0,0.0,0.0,-3.2539,-3.2891,-3.3359,-3.3027,-3.3711,-3.4687,0.0,0.0,0.0,0.0,0.0,0.0,0.0,0.0,0.0,0.0,0.0,0.0,0.0,0.0,0.0,0.0,0.0,0.0,0.0,0.0,0.0,0.0,0.0,0.0,0.0,0.0,0.0,0.0,0.0,0.0,0.0,0.0,0.0,-6.2041,-6.2017,-6.2189,-6.2801,-6.2801,-6.3023,0.0,-6.3422,-6.3668,-6.3915,-6.463,-6.505,-6.505,-6.505,-6.505,-6.505,-6.5421,-6.5594,-6.5594,-6.594,-6.6112,-6.6112,-6.6112,-6.6112,-6.6112,0.0,0.0,0.0,0.0,0.0,0.0,0.0,0.0,0.0,0.0,0.0,0.0,0.0,0.0,0.0,0.0,-3.2005,-3.1992,-3.1865,-3.2053,-3.2577,-3.3293,-3.4413,-3.5258,-3.6055,-3.625,-3.5937,-3.5078,-3.6172,-3.7148,-3.7988,-3.8809,-3.957,-4.0195,-3.9766,-3.8965,-3.7891,-3.6816,-3.5976,-3.5351,-3.4883,-3.457,-3.4355,-3.3926,-3.3496,-3.3066,-3.2656,0.0,0.0,0.0,0.0,0.0,0.0,0.0,-3.3125,-3.3105,-3.3848,-3.4844,0.0,0.0,0.0,0.0,0.0,0.0,0.0,0.0,0.0,0.0,0.0,0.0,0.0,0.0,0.0,0.0,0.0,0.0,0.0,0.0,0.0,0.0,0.0,0.0,0.0,0.0,0.0,0.0,0.0,0.0,0.0,-6.0507,-6.0674,-6.1174,-6.1174,-6.1463,-6.1924,-6.1924,-6.1904,-6.2005,-6.2274,-6.2812,-6.3248,-6.4282,-6.4702,-6.4702,-6.4702,-6.4702,-6.4702,-6.4876,-6.5075,-6.5075,-6.5594,-6.5767,-6.5767,-6.594,-6.6112,-6.6112,0.0,0.0,0.0,0.0,0.0,0.0,0.0,0.0,0.0,0.0,0.0,0.0,0.0,0.0,0.0,0.0,0.0,0.0,-3.1276,-3.1615,-3.245,-3.3388,-3.3956,-3.4567,-3.514,-3.5547,-3.5156,-3.4082,-3.4883,-3.5898,-3.7109,-3.8379,-3.9258,-3.9766,-3.9297,-3.8418,-3.7246,-3.6309,-3.5449,-3.4687,-3.4609,-3.4375,-3.4023,-3.3594,-3.3164,-3.2734,-3.2226,-3.2051,-3.2051,-3.1973,0.0,0.0,0.0,0.0,-3.2754,-3.3105,-3.3809,-3.4687,0.0,0.0,0.0,0.0,0.0,0.0,0.0,0.0,0.0,0.0,0.0,0.0,0.0,0.0,0.0,0.0,0.0,0.0,0.0,0.0,0.0,0.0,0.0,0.0,0.0,0.0,0.0,0.0,0.0,0.0,-6.0171,-6.0171,-6.0339,-6.0674,-6.0674,-6.0841,-6.1199,-6.1365,-6.1008,-6.0674,-6.1207,-6.1764,-6.2336,-6.3787,-6.4454,-6.4527,-6.4527,-6.4527,-6.4527,-6.4527,-6.4527,-6.4702,-6.5075,-6.5248,-6.5421,-6.5767,-6.6112,-6.6112,0.0,0.0,0.0,0.0,0.0,0.0,0.0,0.0,0.0,0.0,-3.0314,-3.0401,0.0,0.0,-3.0328,-3.0328,-3.0365,-3.0549,-3.0899,0.0,0.0,-3.2749,-3.3388,-3.3993,-3.439,-3.4362,-3.4238,-3.4082,-3.4551,-3.5273,-3.6211,-3.75,-3.8516,-3.9277,-3.8848,-3.8144,-3.7226,-3.5996,-3.5176,-3.4668,-3.4297,-3.4121,-3.4023,-3.3594,-3.3164,-3.2695,-3.1894,-3.1601,-3.1543,-3.1191,-3.1309,0.0,0.0,0.0,-3.2266,-3.2324,-3.293,-3.3867,0.0,0.0,0.0,0.0,0.0,0.0,0.0,0.0,0.0,0.0,0.0,0.0,0.0,0.0,0.0,0.0,0.0,0.0,0.0,0.0,0.0,0.0,0.0,0.0,0.0,0.0,0.0,0.0,0.0,0.0,-6.0171,-6.0171,-6.0171,-6.0339,-6.0339,-6.0339,-6.0339,-6.0339,-6.0339,-6.0339,-6.087,-6.1207,-6.1205,-6.2389,-6.3088,-6.3498,-6.3498,-6.3498,-6.3498,-6.3851,-6.4026,-6.4202,-6.4527,-6.5075,-6.5421,-6.5421,-6.5767,-6.6112,0.0,0.0,0.0,0.0,0.0,0.0,0.0,0.0,0.0,0.0,0.0,-2.9855,0.0,-2.9654,-2.9525,-2.9525,-2.9727,-3.002,-3.0424,-3.1011,-3.1561,-3.2152,-3.2954,-3.3574,-3.3835,-3.3791,-3.3708,-3.3456,-3.4115,-3.489,-3.5762,-3.695,-3.8027,-3.8828,-3.8398,-3.7598,-3.6504,-3.5449,-3.4609,-3.3965,-3.3789,-3.3711,-3.3652,-3.3223,-3.2949,-3.2676,-3.1816,-3.1523,-3.1445,-3.1035,-3.1016,-3.1172,-3.123,0.0,0.0,0.0,-3.2598,0.0,0.0,0.0,0.0,0.0,0.0,0.0,0.0,0.0,0.0,0.0,0.0,0.0,0.0,0.0,0.0,0.0,0.0,0.0,0.0,0.0,0.0,0.0,0.0,0.0,0.0,0.0,0.0,0.0,0.0,-6.0171,-6.0171,-6.0171,-6.0171,-6.0171,-6.0171,-6.0171,-6.0171,-6.0171,-6.0171,-6.0171,-6.0412,-6.0676,-6.0989,-6.147,-6.2119,-6.2937,-6.3225,-6.3346,-6.3346,-6.3498,-6.3675,-6.3675,-6.4178,-6.4527,-6.5075,-6.5248,-6.5767,-6.6112,0.0,0.0,0.0,0.0,0.0,0.0,0.0,0.0,0.0,0.0,0.0,0.0,0.0,0.0,0.0,0.0,-2.925,-2.9599,-3.002,-3.0424,-3.0935,-3.1577,-3.2298,-3.2781,-3.3135,-3.3264,-3.311,-3.2804,-3.3758,-3.4623,-3.5508,-3.6755,-3.7754,-3.8555,-3.8008,-3.7109,-3.5957,-3.5078,-3.4199,-3.3418,-3.3418,-3.3496,-3.3535,-3.3105,-3.2949,-3.2851,-3.2109,-3.1777,-3.1641,-3.1328,-3.1133,-3.1113,-3.1426,-3.1445,0.0,0.0,0.0,0.0,0.0,0.0,0.0,0.0,0.0,0.0,0.0,0.0,0.0,0.0,0.0,0.0,0.0,0.0,0.0,0.0,0.0,0.0,0.0,0.0,0.0,0.0,0.0,0.0,0.0,0.0,0.0,0.0,0.0,-6.0171,-6.0171,-6.0171,-6.0171,-6.0171,-6.0171,-6.0171,-6.0171,-6.0171,-6.0171,-6.0171,-6.0171,-6.0388,-6.0772,-6.0893,-6.1494,-6.2408,-6.2913,-6.3225,-6.3346,-6.3346,-6.3346,-6.3346,-6.3675,-6.4178,-6.4702,-6.5075,-6.5594,-6.6112,0.0,0.0,0.0,0.0,0.0,0.0,0.0,0.0,0.0,0.0,0.0,0.0,-2.9012,-2.8993,-2.8975,-2.8975,-2.9012,-2.9177,-2.958,-3.0002,-3.0406,-3.0809,-3.1206,0.0,-3.1947,-3.2332,-3.2441,-3.2422,-3.3647,-3.4623,-3.5508,-3.6755,-3.7754,-3.8535,-3.7695,-3.6836,-3.5957,-3.5078,-3.4199,-3.3418,-3.3418,-3.3672,-3.3984,-3.3555,-3.3379,-3.332,-3.2891,-3.248,-3.2129,-3.2109,-3.1836,-3.1484,-3.1504,-3.125,-3.0996,0.0,0.0,0.0,0.0,0.0,0.0,0.0,0.0,0.0,0.0,0.0,0.0,0.0,0.0,0.0,0.0,0.0,0.0,0.0,0.0,0.0,0.0,0.0,0.0,0.0,0.0,0.0,0.0,0.0,0.0,0.0,0.0,-6.0171,-6.0171,-6.0171,-6.0171,-6.0171,-6.0171,-6.0171,-6.0171,-6.0171,-6.0171,-6.0171,-6.0171,-6.0195,-6.0219,-6.0724,-6.1277,-6.1879,-6.2408,-6.2889,-6.3346,-6.3346,-6.3346,-6.3346,-6.3346,-6.3851,-6.4702,-6.4702,-6.5223,-6.6112,0.0,0.0,0.0,0.0,0.0,0.0,0.0,0.0,0.0,0.0,0.0,0.0,0.0,-2.8975,-2.8975,-2.8975,-2.8975,-2.9048,-2.9195,-2.958,-2.9855,-3.0002,-3.0631,-3.0959,-3.1127,-3.1495,-3.1626,-3.1626,-3.2857,-3.3955,-3.4795,-3.5917,-3.6934,-3.7754,-3.7715,-3.7226,-3.6406,-3.5801,-3.5039,-3.4238,-3.4238,-3.4512,-3.4902,-3.4746,-3.4863,0.0,0.0,0.0,0.0,-3.2851,-3.2285,-3.1894,-3.1601,-3.123,-3.0918,-3.1074,-3.1621,-3.248,0.0,0.0,0.0,0.0,0.0,0.0,0.0,0.0,0.0,0.0,0.0,0.0,0.0,0.0,0.0,0.0,0.0,0.0,0.0,0.0,0.0,0.0,0.0,0.0,0.0,0.0,0.0,0.0,0.0,0.0,-6.0171,-6.0171,-6.0171,-6.0171,-6.0171,-6.0171,-6.0171,-6.0171,-6.0171,-6.0171,-6.0171,-6.0171,-6.0171,-6.0364,-6.0748,-6.1301,-6.1855,-6.2552,-6.3346,-6.3346,-6.3346,-6.3346,-6.3346,-6.3675,-6.4353,-6.4527,-6.505,-6.5767,0.0,0.0,0.0,0.0,0.0,-2.9287,-2.9012,-2.8975,-2.903,-2.9159,0.0,0.0,0.0,0.0,-2.9342,-2.9195,-2.9177,-2.9122,-2.8993,-2.9232,-2.9434,-2.9562,-3.0082,-3.0408,-3.0556,-3.0816,-3.0965,-3.0965,-3.2166,-3.3048,-3.388,-3.5124,-3.6035,-3.6875,-3.7148,-3.6973,-3.6426,-3.5996,-3.5371,-3.4707,-3.4707,-3.5059,-3.5605,0.0,0.0,0.0,0.0,0.0,0.0,0.0,-3.3281,-3.2715,-3.2129,-3.1465,-3.0898,-3.0898,-3.1191,-3.1758,-3.291,0.0,0.0,0.0,0.0,0.0,0.0,0.0,0.0,0.0,0.0,0.0,0.0,0.0,0.0,0.0,0.0,0.0,0.0,0.0,0.0,0.0,0.0,0.0,0.0,0.0,0.0,0.0,0.0,0.0,-6.0171,-6.0171,-6.0171,-6.0171,-6.0171,-6.0171,-6.0171,-6.0171,-6.0171,-6.0171,-6.0171,-6.0171,-6.0171,-6.0171,-6.046,-6.0989,-6.1566,-6.2287,-6.3105,-6.3274,-6.3346,-6.3346,-6.3346,-6.3498,-6.4026,-6.4353,-6.4702,-6.5248,0.0,0.0,-2.9452,-2.9085,-2.9012,-2.9012,-2.9012,-2.9012,-2.9159,-2.9544,0.0,0.0,0.0,0.0,0.0,-2.9635,-2.958,-2.9415,-2.903,-2.8993,-2.9159,-2.9544,-2.9562,-2.9745,-3.0167,-3.0167,-3.0185,-3.0185,-3.1336,-3.2316,-3.3028,-3.4241,-3.5278,-3.5957,-3.5976,-3.5976,-3.5957,-3.5566,-3.5137,-3.4726,0.0,-3.5273,-3.6055,0.0,0.0,0.0,-3.6738,-3.6465,0.0,0.0,0.0,0.0,-3.3066,-3.1914,-3.0918,-3.0918,-3.1191,-3.1699,0.0,0.0,0.0,0.0,0.0,0.0,0.0,0.0,0.0,0.0,0.0,0.0,0.0,0.0,0.0,0.0,0.0,0.0,0.0,0.0,0.0,0.0,0.0,0.0,0.0,0.0,0.0,0.0,0.0,-5.9642,-6.0171,-6.0171,-6.0171,-6.0171,-6.0171,-6.0171,-6.0171,-6.0171,-6.0171,-6.0171,-6.0171,-6.0171,-6.0171,-6.0171,-6.046,-6.0965,-6.1542,-6.2071,-6.26,-6.3129,-6.3346,-6.3346,-6.3346,-6.3498,-6.4026,-6.4026,-6.4353,-6.4702,0.0,-2.9489,-2.9635,-2.9837,-2.9855,-2.9855,-2.9855,-2.9855,-2.991,0.0,0.0,0.0,-3.0185,-3.0204,-3.0277,-3.0442,-2.991,-2.9525,-2.9415,-2.914,-2.903,-2.914,-2.914,-2.9195,-2.9324,-2.9599,-2.9745,-2.9745,-3.0631,-3.1346,-3.1757,-3.2944,-3.3811,-3.4236,-3.479,-3.5059,-3.5098,-3.5625,0.0,-3.5254,-3.5879,-3.6445,0.0,0.0,0.0,0.0,0.0,-3.8164,0.0,0.0,-3.6191,-3.5117,0.0,-3.1875,-3.1348,-3.1348,-3.1426,-3.1699,-3.2559,0.0,0.0,0.0,0.0,0.0,0.0,0.0,0.0,0.0,0.0,0.0,0.0,0.0,0.0,0.0,0.0,0.0,0.0,0.0,0.0,0.0,0.0,0.0,0.0,0.0,0.0,0.0,-5.8477,-5.9158,-5.9642,-6.0003,-6.0171,-6.0171,-6.0171,-6.0171,-6.0171,-6.0171,-6.0171,-6.0171,-6.0171,-6.0171,-6.0171,-6.0171,-6.0243,-6.0436,-6.0965,-6.1518,-6.2095,-6.2985,-6.3346,-6.3346,-6.3346,-6.3346,-6.3498,-6.3851,-6.4026,-6.4178,-2.9489,-2.9562,-2.9709,-3.013,-3.0332,-3.0442,-3.0442,-3.0589,-3.0754,0.0,0.0,0.0,-3.1176,-3.1194,-3.1157,-3.1047,-3.0607,-3.0112,-2.9599,-2.936,-2.9232,-2.9232,-2.9232,-2.9305,-2.9489,-2.9544,-2.9562,-2.9562,-3.0063,-3.0426,-3.0792,-3.1827,-3.242,-3.2796,-3.3408,-3.375,-3.3945,-3.4648,0.0,0.0,-3.6133,0.0,0.0,-3.8027,-3.873,0.0,0.0,0.0,-3.9355,-3.8398,-3.7168,0.0,0.0,0.0,0.0,-3.1836,-3.1797,-3.1934,-3.2617,-3.2969,-3.3359,0.0,0.0,0.0,-3.6934,-3.8184,0.0,0.0,0.0,0.0,0.0,0.0,0.0,0.0,0.0,0.0,0.0,0.0,0.0,0.0,0.0,0.0,0.0,0.0,0.0,-5.7251,-5.8134,-5.8818,-5.9473,-6.0003,-6.0171,-6.0171,-6.0171,-6.0171,-6.0171,-6.0171,-6.0171,-6.0171,-6.0171,-6.0171,-6.0171,-6.0171,-6.0171,-6.0195,-6.0724,-6.1277,-6.1855,-6.2696,-6.3153,-6.3346,-6.3346,-6.3346,-6.3346,-6.3675,-6.3675,-6.3675,0.0,-2.9672,-2.9855,-3.0314,-3.0736,-3.0992,-3.0992,-3.1322,-3.1689,0.0,-3.2111,-3.2313,-3.2753,-3.2716,-3.2368,-3.1653,-3.1451,-3.0901,-2.9782,-2.9672,-2.9635,-2.9635,-2.9635,-2.9819,-3.0185,-2.9837,-2.9617,-2.9562,-2.9562,-2.9683,-3.0027,-3.0785,-3.1237,-3.1623,-3.2027,-3.2402,-3.2812,-3.3184,-3.4121,-3.5371,-3.5937,-3.6934,0.0,0.0,-3.9336,0.0,-4.0117,-4.0137,-4.0078,-3.9473,-3.793,0.0,0.0,0.0,0.0,0.0,-3.2422,-3.248,-3.2891,-3.3008,-3.3184,-3.3945,0.0,0.0,-3.5781,-3.6641,-3.7617,0.0,0.0,0.0,0.0,0.0,0.0,0.0,0.0,0.0,0.0,0.0,0.0,0.0,0.0,0.0,0.0,-5.2576,-5.4171,-5.6896,-5.7676,-5.8383,-5.9233,-5.9955,-6.0171,-6.0171,-6.0171,-6.0171,-6.0171,-6.0171,-6.0171,-6.0171,-6.0171,-6.0171,-6.0171,-6.0171,-6.0171,-6.0195,-6.0676,-6.1229,-6.1831,-6.2312,-6.2841,-6.3346,-6.3346,-6.3346,-6.3346,-6.3346,-6.3346,-6.3346,-3.0057,-3.0332,-3.0791,-3.1524,-3.1983,-3.2239,-3.2239,-3.2606,-3.2771,-3.2514,-3.2771,-3.3266,-3.3963,-3.3486,-3.3028,-3.2881,-3.1946,-3.1139,-3.0589,-3.0259,-3.0075,-3.0075,-3.0075,-3.0112,-3.0204,-3.0112,-2.991,-2.9562,-2.9562,-2.9415,-2.9223,-3.0009,-3.0438,-3.0819,-3.1527,-3.2157,-3.2793,-3.2871,-3.3652,-3.4961,-3.6445,0.0,-3.9043,-3.9844,-4.0684,-4.1426,-4.1426,-4.1641,-4.1699,0.0,-3.8769,-3.7324,0.0,0.0,0.0,0.0,0.0,0.0,0.0,0.0,0.0,0.0,0.0,0.0,-3.5488,-3.6445,-3.7363,0.0,0.0,0.0,0.0,0.0,0.0,0.0,0.0,0.0,0.0,0.0,0.0,0.0,0.0,0.0,0.0,-5.1387,-5.2823,-5.4506,-5.6767,-5.8207,-5.8375,-5.9595,-6.0171,-6.0171,-6.0171,-6.0171,-6.0171,-6.0171,-6.0171,-6.0171,-6.0171,-6.0171,-6.0171,-6.0171,-6.0171,-6.0171,-6.0291,-6.0893,-6.1807,-6.1903,-6.2504,-6.3346,-6.3346,-6.3346,-6.3346,-6.3346,-6.3346,-6.3346,-3.0461,-3.0662,-3.1047,-3.1873,-3.2514,-3.2973,-3.3175,-3.3725,-3.4055,-3.3835,-3.4,-3.4275,-3.4678,-3.4226,-3.3684,-3.3284,-3.2367,-3.1552,-3.0865,-3.0465,-3.0372,-3.0497,-3.0497,-3.0589,-3.0791,-3.0589,-3.0296,-2.9892,-2.9672,-2.936,-2.8993,-2.9554,-2.9886,-3.0143,-3.092,-3.1706,-3.2273,-3.2805,-3.3984,-3.543,-3.6309,0.0,-3.9004,-4.0098,-4.1055,-4.1836,-4.2031,-4.2109,-4.1953,-4.0898,-3.9648,0.0,0.0,-3.6367,-3.5644,0.0,-3.5059,-3.4824,0.0,0.0,0.0,-3.498,0.0,0.0,0.0,-3.5371,0.0,0.0,0.0,0.0,0.0,0.0,0.0,0.0,0.0,0.0,0.0,0.0,0.0,0.0,0.0,0.0,0.0,-5.0047,-5.1788,-5.4364,-5.6161,-5.7308,-5.7666,-5.8569,-5.9212,-5.9378,-5.9642,-5.9786,-5.9786,-6.0051,-6.0171,-6.0171,-6.0171,-6.0171,-6.0171,-6.0171,-6.0171,-6.0171,-6.0171,-6.0796,-6.1807,-6.1807,-6.2408,-6.3346,-6.3346,-6.3346,-6.3346,-6.3346,-6.3346,-6.3346,-3.0607,-3.0736,-3.1047,-3.1873,-3.268,-3.334,-3.3651,-3.4458,-3.5064,-3.5137,-3.521,-3.5247,-3.5247,-3.4812,-3.4361,-3.3567,-3.2767,-3.188,-3.1037,-3.0735,-3.061,-3.0901,-3.0901,-3.1047,-3.1377,-3.0992,-3.0589,-3.0204,-2.9782,-2.936,-2.8993,-2.9331,-2.9487,-2.9699,-3.0591,-3.1309,-3.1969,-3.2971,0.0,-3.6035,0.0,-3.7266,-3.9082,-4.0391,-4.1367,-4.2109,-4.2519,-4.2402,-4.1973,-4.1465,0.0,-3.9434,-3.8574,-3.7773,0.0,0.0,0.0,0.0,0.0,0.0,0.0,0.0,0.0,-3.4512,0.0,0.0,0.0,0.0,0.0,0.0,0.0,0.0,0.0,0.0,0.0,0.0,0.0,0.0,0.0,0.0,0.0,0.0,0.0,-4.8877,-5.0929,-5.412,-5.5184,-5.5966,-5.6984,-5.7644,-5.8092,-5.8608,-5.9113,-5.9378,-5.9378,-5.9907,-6.0171,-6.0171,-6.0171,-6.0171,-6.0171,-6.0171,-6.0171,-6.0171,-6.0171,-6.0724,-6.1638,-6.1758,-6.2336,-6.3201,-6.3298,-6.3346,-6.3346,-6.3346,-6.3346,-6.3346,-3.0259,-3.0552,-3.1047,-3.1873,-3.268,-3.3248,-3.3285,-3.4275,-3.5155,-3.5504,-3.5852,-3.6072,-3.6072,-3.5776,-3.5154,-3.4379,0.0,0.0,-3.1846,0.0,-3.1299,-3.1322,-3.1304,-3.1322,-3.1377,-3.0992,-3.0589,-3.0204,-2.9782,-2.936,-2.8975,-2.8975,-2.9416,-3.0027,-3.0541,0.0,0.0,0.0,-3.4502,0.0,-3.6445,-3.8086,0.0,-4.1719,-4.2519,-4.2988,-4.3418,-4.3281,-4.2812,0.0,-4.1387,-4.0801,0.0,-3.9316,-3.8828,0.0,0.0,0.0,0.0,0.0,0.0,0.0,-3.6152,0.0,0.0,0.0,0.0,0.0,0.0,0.0,0.0,0.0,0.0,0.0,0.0,0.0,0.0,0.0,0.0,0.0,0.0,0.0,0.0,0.0,-4.9166,-5.0753,-5.2906,-5.4577,-5.5903,-5.7265,-5.8092,-5.8608,-5.9113,-5.9378,-5.9378,-5.9907,-6.0171,-6.0171,-6.0171,-6.0171,-6.0171,-6.0171,-6.0171,-6.0171,-6.0171,-6.0508,-6.1085,-6.1566,-6.2119,-6.272,-6.3177,-6.3346,-6.3346,-6.3346,-6.3346,-6.3346,-3.0112,-3.0516,-3.0974,-3.1543,-3.2313,-3.3028,-3.3486,-3.4587,-3.5504,-3.5907,-3.6311,-3.6417,0.0,0.0,0.0,0.0,0.0,0.0,0.0,0.0,-3.1738,-3.1763,-3.1744,-3.1634,-3.1377,-3.0992,-3.0589,-3.0204,-2.9782,-2.936,-2.8993,-2.9214,-2.9536,-2.986,-3.0872,0.0,-3.2728,0.0,0.0,0.0,0.0,0.0,0.0,-4.1504,-4.2422,-4.3457,-4.3633,-4.3437,-4.3027,0.0,-4.1933,0.0,0.0,0.0,0.0,0.0,0.0,0.0,0.0,0.0,0.0,0.0,0.0,0.0,0.0,0.0,-3.4336,0.0,0.0,0.0,0.0,0.0,0.0,0.0,0.0,0.0,0.0,0.0,0.0,0.0,0.0,0.0,0.0,0.0,0.0,0.0,-5.06,-5.2581,-5.448,-5.5527,-5.6715,-5.767,-5.8199,-5.8608,-5.8921,-5.945,-5.9883,-6.0171,-6.0171,-6.0171,-6.0171,-6.0171,-6.0171,-6.0171,-6.0171,-6.0484,-6.1013,-6.1566,-6.2095,-6.2648,-6.3153,-6.3346,-6.3346,-6.3346,-6.3346,-6.3346,-2.9892,-3.0351,-3.0754,-3.1157,-3.1891,-3.2771,-3.3817,-3.4774,-3.565,-3.6162,0.0,0.0,-3.6236,-3.6464,0.0,0.0,0.0,-3.385,0.0,0.0,-3.2325,0.0,0.0,0.0,0.0,-3.103,-3.0573,-3.0204,-2.9892,-2.9544,-2.9159,-2.9562,-2.9855,-3.0112,0.0,-3.2468,-3.3289,0.0,0.0,-3.799,-3.9658,-4.0763,-4.1523,-4.166,-4.2539,-4.3711,-4.3711,-4.3516,-4.3223,-4.3125,-4.2461,0.0,-4.1562,0.0,0.0,0.0,0.0,0.0,-4.0176,0.0,0.0,0.0,0.0,0.0,0.0,0.0,0.0,0.0,0.0,0.0,0.0,0.0,0.0,0.0,0.0,0.0,0.0,0.0,0.0,0.0,0.0,0.0,0.0,0.0,0.0,-4.6996,-4.8824,-5.0861,-5.3249,-5.4516,-5.5605,-5.6804,-5.7454,-5.8055,-5.8584,-5.9113,-5.9642,-6.0171,-6.0171,-6.0171,-6.0171,-6.0171,-6.0171,-6.0171,-6.0171,-6.0388,-6.0796,-6.1518,-6.2023,-6.2432,-6.3081,-6.3346,-6.3346,-6.3346,-6.3346,-6.3346,-2.9507,-2.9929,-3.0351,-3.0736,-3.1488,-3.2551,-3.4147,-3.4794,-3.5316,0.0,0.0,0.0,0.0,0.0,0.0,0.0,0.0,-3.428,-3.4273,0.0,-3.2858,0.0,0.0,0.0,0.0,0.0,-3.0592,-3.0204,-3.0185,-2.9965,-2.9562,-2.9984,-3.0589,-3.1359,-3.2184,-3.3484,-3.4985,-3.6216,-3.767,-3.9221,-3.9682,-4.0781,-4.2441,0.0,-4.3301,-4.3711,-4.3711,0.0,0.0,-4.3223,-4.3047,0.0,0.0,0.0,0.0,0.0,0.0,0.0,0.0,0.0,0.0,-3.9375,0.0,0.0,0.0,0.0,-3.4316,0.0,0.0,0.0,0.0,0.0,-3.5391,-3.541,-3.5039,0.0,0.0,0.0,0.0,0.0,0.0,0.0,0.0,0.0,0.0,-4.5486,-4.7641,-5.0113,-5.2659,-5.4585,-5.5755,-5.6251,-5.7261,-5.8055,-5.8584,-5.9113,-5.9642,-6.0171,-6.0171,-6.0171,-6.0171,-6.0171,-6.0171,-6.0171,-6.0171,-6.0171,-6.0291,-6.135,-6.1807,-6.1927,-6.2937,-6.3346,-6.3346,-6.3346,-6.3346,-6.3346,-2.9578,-3.0189,-3.0626,-3.0772,0.0,-3.1997,-3.3345,-3.4342,0.0,0.0,0.0,0.0,0.0,0.0,-3.7453,0.0,0.0,-3.6164,-3.6234,-3.5227,0.0,0.0,0.0,-3.3037,0.0,0.0,0.0,0.0,0.0,-3.0387,-3.0002,-3.0406,-3.0864,-3.1433,0.0,-3.3835,0.0,0.0,0.0,0.0,0.0,-4.3351,-4.4062,0.0,0.0,-4.375,-4.4043,-4.416,0.0,-4.4316,-4.418,-4.3926,-4.3769,-4.3516,-4.3242,-4.3105,-4.2871,0.0,0.0,0.0,-4.1152,-4.0293,0.0,0.0,0.0,0.0,0.0,0.0,0.0,0.0,0.0,0.0,-3.6797,-3.5937,-3.5449,-3.5,0.0,0.0,0.0,0.0,0.0,0.0,0.0,0.0,0.0,-4.246,-4.536,-4.8133,-5.0352,-5.2928,-5.4704,-5.5731,-5.6741,-5.755,-5.8079,-5.8608,-5.9137,-5.9642,-6.0003,-6.0171,-6.0171,-6.0171,-6.0171,-6.0171,-6.0171,-6.0171,-6.0267,-6.135,-6.1807,-6.1903,-6.2937,-6.3346,-6.3346,-6.3346,-6.3346,-6.3346,-2.9511,-2.9978,-3.0538,0.0,0.0,0.0,0.0,0.0,0.0,0.0,-3.6481,0.0,-3.6257,0.0,-3.797,0.0,-3.7608,-3.7434,-3.7836,-3.6713,0.0,-3.5277,-3.4661,0.0,0.0,0.0,0.0,0.0,0.0,-3.1377,-3.0846,-3.1249,-3.1653,-3.2074,0.0,0.0,0.0,0.0,-3.9813,0.0,0.0,-4.4616,0.0,0.0,-4.3945,-4.4219,0.0,-4.4629,-4.4668,-4.4941,-4.4844,-4.4629,-4.4629,-4.4414,-4.418,-4.418,-4.3984,-4.3769,-4.3769,-4.3262,0.0,-4.1641,-4.0332,0.0,-3.8379,0.0,0.0,0.0,0.0,0.0,0.0,0.0,-3.7734,-3.6465,-3.5762,-3.5039,0.0,-3.3848,0.0,0.0,0.0,0.0,0.0,0.0,-3.9656,-4.0862,-4.3564,-4.6308,0.0,0.0,-5.3495,-5.5002,-5.6032,-5.6909,-5.779,-5.8319,-5.8872,-5.9402,-5.9931,-6.0171,-6.0171,-6.0171,-6.0171,-6.0171,-6.0171,-6.0291,-6.0532,-6.1422,-6.1903,-6.2167,-6.3009,-6.3346,-6.3346,-6.3346,-6.3346,-6.3346,-2.9077,-2.9608,0.0,0.0,-3.1891,0.0,0.0,0.0,-3.495,0.0,-3.6273,-3.6434,-3.5707,-3.6924,-3.7887,-3.8224,-3.8154,0.0,-3.9025,-3.7946,0.0,0.0,-3.5656,-3.5019,-3.4599,0.0,0.0,0.0,0.0,0.0,-3.2074,-3.2404,-3.2808,-3.3248,-3.4018,0.0,-3.6952,-3.8548,-4.0124,-4.1863,-4.3709,-4.4585,-4.5098,-4.5078,-4.5078,-4.5078,-4.5058,-4.5058,-4.5058,-4.5078,-4.5078,-4.5078,-4.5078,-4.5078,-4.5078,-4.5078,-4.5078,-4.5058,-4.5058,-4.4746,-4.4219,-4.3359,0.0,0.0,0.0,0.0,-3.8476,0.0,0.0,0.0,0.0,0.0,-3.8242,-3.6934,-3.5957,-3.4902,-3.3613,-3.3418,0.0,0.0,0.0,0.0,0.0,-3.6622,-3.8205,-4.0634,-4.2479,-4.4695,0.0,0.0,-5.2178,-5.4004,-5.5026,-5.6232,-5.7742,-5.8319,-5.8848,-5.9353,-5.9907,-6.0171,-6.0171,-6.0171,-6.0171,-6.0171,-6.0171,-6.0484,-6.1013,-6.1566,-6.2119,-6.2648,-6.3153,-6.3346,-6.3346,-6.3346,-6.3346,-6.3346,-2.9932,-3.1015,-3.1989,0.0,-3.26,-3.3278,0.0,0.0,0.0,0.0,-3.5954,-3.6342,-3.6021,-3.7071,-3.8245,-3.8981,-3.9151,0.0,0.0,0.0,0.0,-3.9208,-3.817,-3.7525,-3.7108,-3.6408,0.0,-3.4403,0.0,0.0,-3.29,-3.2404,-3.2533,-3.3248,0.0,0.0,-3.6952,-3.8548,-4.0787,-4.3304,-4.4701,-4.528,0.0,0.0,-4.5976,-4.5937,-4.5625,-4.5508,-4.5566,-4.5879,-4.5976,-4.5976,-4.5976,-4.5976,-4.5976,-4.5976,-4.5762,-4.5508,-4.5508,-4.5195,-4.4726,-4.4199,-4.3476,-4.2773,0.0,0.0,0.0,0.0,0.0,0.0,0.0,0.0,0.0,-3.7871,-3.6074,-3.4531,-3.3555,0.0,0.0,-3.3574,0.0,0.0,-3.4961,-3.6127,-3.7129,-3.8153,-4.05,-4.2921,-4.5011,0.0,0.0,-5.2565,-5.4241,-5.5564,-5.6226,-5.7452,-5.8163,-5.8307,-5.9571,-6.0171,-6.0171,-6.0171,-6.0171,-6.0171,-6.0171,-6.0484,-6.1013,-6.1566,-6.2119,-6.2648,-6.3153,-6.3346,-6.3346,-6.3346,-6.3346,-6.3346,-2.9534,0.0,0.0,-3.2861,0.0,0.0,-3.4179,0.0,0.0,-3.5189,-3.5879,0.0,-3.5598,-3.6828,-3.8009,-3.8764,-3.9417,0.0,0.0,0.0,0.0,-4.0948,-4.0185,-3.936,-3.9068,-3.8094,0.0,-3.5815,0.0,0.0,-3.3468,-3.2826,-3.279,-3.3248,0.0,-3.51,0.0,-3.9318,-4.1637,-4.3597,-4.4555,0.0,0.0,-4.5958,-4.6133,-4.6269,-4.6035,-4.5957,-4.5976,-4.623,-4.6308,-4.6308,-4.6308,-4.6308,-4.6308,-4.6308,-4.6133,-4.5957,-4.5957,-4.5781,-4.5488,-4.5058,-4.4609,-4.416,-4.375,-4.3125,-4.2754,0.0,0.0,0.0,0.0,0.0,0.0,-3.7715,-3.6035,-3.4707,0.0,0.0,0.0,0.0,-3.3711,0.0,-3.4375,-3.5126,-3.5924,-3.6924,-3.8555,-4.0682,0.0,0.0,0.0,-5.1277,-5.3325,-5.4803,-5.5691,-5.7077,-5.7762,-5.7927,-5.9332,-6.0003,-6.0171,-6.0171,-6.0171,-6.0171,-6.0171,-6.0604,-6.135,-6.1662,-6.2239,-6.2937,-6.3225,-6.3346,-6.3346,-6.3346,-6.3346,-6.3346,0.0,0.0,0.0,0.0,0.0,0.0,0.0,-3.5355,0.0,-3.5264,0.0,-3.6041,-3.5025,-3.6412,-3.7598,0.0,0.0,-4.0443,-4.1537,-4.1849,-4.2189,-4.2136,-4.1622,-4.103,-4.0808,-3.9558,0.0,0.0,0.0,0.0,-3.3872,-3.3376,-3.3175,-3.3248,0.0,0.0,0.0,-4.0308,-4.2395,-4.3522,-4.4007,-4.4725,-4.5431,-4.5607,-4.5821,-4.6211,-4.6387,-4.6348,-4.6308,-4.6308,-4.6308,-4.6308,-4.6308,-4.6348,-4.6387,-4.6387,-4.6426,-4.6465,-4.6406,-4.6387,-4.6289,-4.5859,-4.5469,-4.5098,-4.4726,-4.4297,-4.4082,-4.4473,-4.3906,-4.3183,0.0,0.0,0.0,-3.7226,0.0,0.0,0.0,0.0,0.0,0.0,0.0,0.0,-3.4082,-3.4082,-3.4662,-3.6202,-3.6864,-3.8371,0.0,0.0,0.0,-4.9859,-5.2161,-5.4088,-5.5436,0.0,-5.7432,-5.7762,-5.8974,-5.9835,-6.0171,-6.0171,-6.0171,-6.0171,-6.0243,-6.0845,-6.1807,-6.1855,-6.2456,-6.3346,-6.3346,-6.3346,-6.3346,-6.3346,-6.3346,-6.3346,0.0,0.0,0.0,0.0,0.0,-3.541,-3.4672,-3.4906,-3.5083,-3.5116,-3.5279,0.0,-3.5025,-3.6021,-3.7189,-3.8173,-3.9478,0.0,0.0,0.0,0.0,-4.348,-4.3198,-4.2882,-4.2389,-4.0873,-3.9612,0.0,0.0,0.0,-3.4275,-3.3211,-3.2881,-3.3248,0.0,0.0,-3.8456,-4.0363,0.0,-4.2628,-4.3718,-4.437,-4.4548,-4.5255,-4.5818,-4.6285,-4.6639,-4.6601,-4.6308,-4.6308,-4.6308,-4.6308,-4.6308,-4.6543,-4.6816,-4.6816,-4.707,-4.7285,-4.6914,-4.6816,-4.6719,-4.6289,-4.6133,-4.6055,-4.5976,-4.5644,-4.5351,-4.543,-4.5039,-4.4433,-4.3633,0.0,0.0,0.0,0.0,0.0,0.0,0.0,0.0,0.0,0.0,0.0,0.0,0.0,0.0,0.0,0.0,0.0,0.0,0.0,0.0,0.0,-5.0701,0.0,0.0,0.0,-5.6934,-5.7456,-5.8806,-5.9835,-6.0171,-6.0171,-6.0171,-6.0195,-6.0628,-6.1205,-6.1831,-6.2263,-6.2793,-6.3346,-6.3346,-6.3346,-6.3346,-6.3346,-6.3346,-6.3346,0.0,0.0,0.0,0.0,0.0,0.0,0.0,-3.4548,0.0,-3.4588,-3.4973,-3.4946,-3.4325,-3.5139,-3.6004,-3.6992,-3.8549,-4.0223,-4.1232,-4.3123,-4.4204,-4.4195,-4.4379,0.0,-4.3518,-4.2124,-4.0602,-3.8951,0.0,0.0,-3.4385,-3.3376,-3.3028,-3.3285,0.0,-3.6384,0.0,0.0,0.0,-4.2344,-4.3346,-4.4145,-4.451,-4.5205,-4.6006,-4.6549,-4.7087,-4.7129,-4.6973,-4.6973,-4.6973,-4.6973,-4.6973,-4.7109,-4.7266,-4.7266,-4.7422,-4.7539,-4.7324,-4.7266,-4.7226,-4.7012,-4.6797,-4.6621,-4.6621,-4.6308,-4.5996,-4.5996,-4.5664,-4.4961,-4.3613,-4.1641,0.0,0.0,0.0,0.0,0.0,0.0,0.0,0.0,0.0,0.0,0.0,0.0,0.0,0.0,0.0,0.0,0.0,0.0,0.0,0.0,0.0,0.0,0.0,0.0,0.0,-5.729,-5.8493,-5.9497,-6.0171,-6.0171,-6.0171,-6.0195,-6.0724,-6.1277,-6.1855,-6.2648,-6.3129,-6.3346,-6.3346,-6.3346,-6.3346,-6.3346,-6.3346,-6.3346,0.0,-3.3101,0.0,0.0,-3.4766,0.0,0.0,-3.4434,-3.4205,-3.4326,-3.4601,-3.4563,-3.3789,-3.4433,-3.5011,-3.5805,-3.7553,-3.9315,-4.0513,-4.2635,-4.418,-4.4388,-4.4955,-4.4818,-4.4361,-4.3078,-4.1537,0.0,0.0,0.0,0.0,-3.3853,-3.356,0.0,0.0,0.0,0.0,0.0,-4.1721,-4.2601,-4.3334,-4.4028,-4.4739,-4.528,-4.6067,-4.6791,-4.7354,-4.7773,-4.7851,-4.7851,-4.7734,-4.7578,-4.7578,-4.7637,-4.7715,-4.7715,-4.7773,-4.7832,-4.7734,-4.7715,-4.7695,-4.7598,-4.7324,-4.7051,-4.6953,-4.668,-4.6406,-4.6328,-4.5976,-4.5195,-4.3633,-4.2109,0.0,0.0,0.0,0.0,0.0,0.0,0.0,0.0,0.0,0.0,0.0,0.0,0.0,0.0,0.0,0.0,0.0,0.0,0.0,0.0,0.0,-5.174,-5.336,0.0,-5.6485,-5.7456,-5.8493,-5.9327,-6.0171,-6.0171,-6.0243,-6.0364,-6.0917,-6.1518,-6.2191,-6.3009,-6.3346,-6.3346,-6.3346,-6.3346,-6.3346,-6.3346,-6.3346,-6.3346,0.0,0.0,0.0,0.0,0.0,0.0,0.0,-3.3879,-3.3794,-3.4115,-3.3976,-3.3789,-3.3789,-3.4036,-3.4612,-3.5805,-3.7371,-3.894,-4.0319,-4.2059,-4.34,-4.4388,-4.4562,-4.4702,-4.5187,-4.3628,-4.2362,0.0,0.0,0.0,0.0,-3.4678,0.0,0.0,0.0,0.0,0.0,-4.1097,-4.2307,-4.3426,-4.3848,-4.427,-4.4801,-4.5148,-4.5957,-4.6865,-4.7415,-4.8032,-4.873,-4.873,-4.8223,-4.7578,-4.7578,-4.7851,-4.8144,-4.8144,-4.8437,-4.8652,-4.8262,-4.8144,-4.8066,-4.7676,-4.7558,-4.7422,-4.7012,-4.6894,-4.6758,-4.6387,-4.5976,-4.5391,-4.4453,-4.3496,-4.2441,0.0,0.0,0.0,0.0,0.0,0.0,0.0,0.0,0.0,0.0,-3.4941,0.0,0.0,0.0,0.0,0.0,0.0,0.0,-4.4279,0.0,-4.9715,-5.2258,-5.4743,-5.6632,-5.7927,-5.8974,-5.9666,-6.0171,-6.0171,-6.0436,-6.0917,-6.147,-6.2287,-6.3201,-6.3298,-6.3346,-6.3346,-6.3346,-6.3346,-6.3346,-6.3346,-6.3346,-6.3346,0.0,0.0,0.0,0.0,0.0,0.0,0.0,-3.366,-3.3598,-3.3687,-3.3571,-3.3439,-3.3439,-3.3547,-3.4214,-3.521,-3.6583,-3.7961,-3.9541,-4.1078,-4.2426,-4.34,-4.3832,-4.4204,-4.4738,-4.3869,-4.296,0.0,0.0,0.0,0.0,0.0,0.0,0.0,0.0,-3.9135,-4.0308,-4.1776,-4.2821,-4.3554,-4.4178,-4.4691,-4.504,-4.5593,-4.6204,-4.6746,-4.7507,-4.8158,-4.8497,-4.8867,-4.8633,-4.834,-4.834,-4.8457,-4.8594,-4.8594,-4.873,-4.8828,-4.8652,-4.8594,-4.8555,-4.8379,-4.8144,-4.7851,-4.7422,-4.7109,-4.6816,-4.6387,-4.5976,-4.5566,-4.5234,-4.4238,-4.3281,0.0,0.0,0.0,0.0,0.0,0.0,0.0,0.0,0.0,0.0,0.0,0.0,0.0,0.0,0.0,0.0,0.0,0.0,-4.4373,0.0,-4.9842,-5.2588,-5.4812,-5.6585,-5.7927,-5.8974,-5.9835,-6.0171,-6.0171,-6.0652,-6.1494,-6.2047,-6.2672,-6.3346,-6.3346,-6.3346,-6.3346,-6.3346,-6.3346,-6.3346,-6.3346,-6.3346,-6.3346,-3.3044,0.0,-3.3936,0.0,-3.4101,-3.3766,-3.3674,-3.3479,-3.344,-3.3534,-3.3547,-3.3507,-3.3427,-3.3414,-3.3814,-3.4612,-3.5593,-3.678,-3.8173,-3.9526,-4.0885,-4.2234,-4.2827,0.0,-4.4732,-4.4317,-4.3687,-4.2986,-4.1647,0.0,0.0,0.0,0.0,0.0,-3.9465,-4.0418,-4.1262,-4.2637,-4.3536,-4.4068,-4.4636,-4.5095,-4.548,-4.5834,-4.6206,-4.6635,-4.7569,-4.796,-4.8127,-4.8682,-4.8867,-4.8867,-4.8867,-4.8867,-4.8867,-4.8867,-4.8867,-4.8867,-4.8867,-4.8867,-4.8867,-4.8867,-4.8633,-4.8281,-4.7851,-4.7519,-4.7148,-4.6601,-4.6152,-4.582,-4.5703,-4.4922,-4.416,-4.3769,0.0,0.0,0.0,0.0,0.0,0.0,-3.8086,-3.7031,-3.5879,0.0,0.0,0.0,0.0,0.0,0.0,0.0,0.0,0.0,0.0,0.0,-5.2843,-5.4882,-5.6655,-5.8165,-5.9045,-5.9835,-6.0171,-6.0508,-6.1157,-6.2047,-6.2576,-6.3009,-6.3346,-6.3346,-6.3346,-6.3346,-6.3346,-6.3346,-6.3346,-6.3346,-6.3346,-6.3346,-3.3448,-3.3891,-3.4004,-3.3721,-3.3776,-3.3674,-3.336,-3.3414,-3.3521,-3.3841,-3.3881,-3.3761,-3.344,-3.3414,-3.3614,-3.4214,-3.4812,-3.5394,-3.6568,-3.7568,-3.9136,0.0,0.0,-4.3018,-4.5111,-4.4732,-4.4521,-4.4636,0.0,0.0,-4.0987,0.0,-3.9648,-4.0473,-4.1299,-4.2106,-4.2894,-4.3719,-4.4545,-4.5278,-4.5297,-4.5535,-4.5883,-4.5883,-4.6259,-4.6635,-4.7196,-4.7755,-4.8127,-4.8682,-4.8867,-4.8867,-4.8867,-4.8867,-4.8867,-4.8867,-4.8867,-4.8867,-4.8867,-4.8867,-4.8867,-4.8867,-4.8848,-4.873,-4.8301,-4.8203,-4.7949,-4.709,-4.6582,-4.6172,-4.5742,-4.5664,-4.5215,-4.3926,0.0,0.0,0.0,0.0,0.0,-3.998,-3.8711,-3.7578,-3.6738,0.0,0.0,0.0,0.0,0.0,0.0,0.0,0.0,-4.3939,-4.6739,0.0,-5.2901,-5.4905,-5.6843,-5.8712,-5.9235,-5.9835,-6.0219,-6.1301,-6.2071,-6.26,-6.3105,-6.3322,-6.3346,-6.3346,-6.3346,-6.3346,-6.3346,-6.3346,-6.3346,-6.3346,-6.3346,-6.3346,-3.3097,-3.3327,-3.3571,-3.3466,-3.3654,-3.3829,-3.3721,-3.3908,-3.4068,-3.4162,-3.4189,-3.4148,-3.4042,-3.4028,-3.4232,0.0,-3.5046,-3.5355,0.0,-3.6919,-3.8204,-4.0109,-4.0691,-4.2059,-4.456,-4.4453,-4.4562,-4.5095,0.0,0.0,0.0,-4.1886,-4.1849,-4.2142,-4.2949,-4.3463,-4.3756,-4.4563,-4.5058,-4.5315,-4.559,-4.5773,-4.5883,-4.5883,-4.6259,-4.6635,-4.7215,-4.7774,-4.8127,-4.8682,-4.8867,-4.8867,-4.8867,-4.8867,-4.8867,-4.8867,-4.8867,-4.8867,-4.8867,-4.8867,-4.8867,-4.8867,-4.8867,-4.875,-4.8301,-4.7988,-4.7617,-4.7051,-4.6816,-4.6601,-4.6191,-4.5859,-4.5449,-4.4726,-4.4375,0.0,0.0,0.0,-4.0742,-3.9551,-3.8535,-3.7598,0.0,-3.6426,0.0,0.0,0.0,0.0,0.0,0.0,0.0,0.0,-4.7525,0.0,-5.3886,-5.5253,-5.6843,-5.8712,-5.9235,-6.0002,-6.0724,-6.1446,-6.2071,-6.2624,-6.3129,-6.3346,-6.3346,-6.3346,-6.3346,-6.3346,-6.3346,-6.3346,-6.3346,-6.3346,-6.3346,-6.3346,-3.332,-3.3547,-3.3748,-3.3748,-3.3921,-3.4055,-3.4055,-3.4202,-3.4362,-3.4469,-3.4482,-3.4536,-3.4643,-3.4643,0.0,-3.4747,-3.4733,-3.5062,-3.5466,-3.6248,-3.7354,-3.9314,-3.999,-4.168,-4.4583,-4.4459,0.0,-4.5517,-4.5113,-4.4435,-4.3554,-4.3554,-4.3554,-4.3573,-4.4251,-4.4545,-4.4581,-4.5242,-4.5517,-4.5535,-4.5792,-4.5883,-4.5883,-4.5883,-4.6259,-4.6635,-4.7215,-4.7774,-4.8165,-4.8877,-4.9101,-4.9141,-4.9297,-4.9355,-4.9297,-4.8965,-4.8867,-4.8867,-4.8867,-4.8867,-4.8867,-4.8867,-4.8867,-4.8789,-4.8516,-4.8125,-4.7734,-4.7461,-4.7148,-4.6855,-4.6582,-4.6191,-4.5723,-4.5117,-4.4668,-4.3926,-4.2617,0.0,-4.0801,0.0,0.0,0.0,0.0,-3.748,-3.7383,0.0,0.0,0.0,0.0,0.0,0.0,-4.5299,-4.8278,-5.1266,-5.4046,-5.522,-5.6475,-5.8155,-5.9375,-6.0408,-6.1301,-6.1831,-6.236,-6.2889,-6.3201,-6.3346,-6.3346,-6.3346,-6.3346,-6.3346,-6.3346,-6.3346,-6.3346,-6.3346,-6.3346,-6.3346,-3.3921,-3.4135,0.0,0.0,-3.4336,0.0,-3.4349,-3.4362,-3.4482,-3.4763,-3.479,-3.4897,-3.5164,-3.5191,-3.4977,-3.4429,0.0,0.0,0.0,-3.5349,-3.6954,-3.8933,-3.9856,-4.1653,-4.4781,-4.4428,-4.4786,-4.5883,-4.533,-4.5132,-4.4765,-4.4765,-4.4765,-4.4765,-4.5168,-4.5352,-4.537,-4.5737,-4.5883,-4.5883,-4.5883,-4.5902,-4.5938,-4.5938,-4.6315,-4.6709,-4.729,-4.785,-4.8467,-4.9247,-4.957,-4.9648,-5.0039,-5.0176,-5.0019,-4.9199,-4.8945,-4.8945,-4.8945,-4.8926,-4.8906,-4.8906,-4.8887,-4.8867,-4.8867,-4.8535,-4.8242,-4.8223,-4.7578,-4.6992,-4.6933,-4.6601,-4.6055,-4.5176,-4.4668,-4.3926,-4.2617,-4.1699,-4.1035,0.0,0.0,0.0,0.0,-3.8984,-3.875,0.0,0.0,0.0,0.0,0.0,-4.3263,-4.6252,-4.8951,-5.1444,-5.3694,-5.4655,-5.5911,-5.7493,-5.9382,-6.0787,-6.1855,-6.236,-6.2865,-6.3346,-6.3346,-6.3346,-6.3346,-6.3346,-6.3346,-6.3346,-6.3346,-6.3346,-6.3346,-6.3346,-6.3346,-6.3346,0.0,0.0,-3.4322,-3.4322,-3.4509,-3.4656,-3.4656,-3.4843,-3.5017,-3.5084,-3.5097,-3.5124,-3.5191,-3.5191,-3.5137,-3.5004,-3.499,-3.4897,-3.467,-3.5679,-3.6979,-3.8358,-3.9505,-4.1254,-4.4033,-4.3849,-4.3905,-4.4768,-4.4678,-4.476,-4.5028,-4.5028,-4.5215,-4.5608,-4.57,-4.5755,-4.5755,-4.5847,-4.5883,-4.5883,-4.5883,-4.6067,-4.6342,-4.6342,-4.7097,-4.812,-4.8329,-4.8899,-4.9694,-4.998,-5.0019,-5.0039,-5.0137,-5.0176,-5.0137,-4.9922,-4.9863,-4.9863,-4.9863,-4.9629,-4.9375,-4.9375,-4.9101,-4.8867,-4.8867,-4.8769,-4.8613,-4.8281,-4.8047,-4.7715,-4.7051,-4.6855,-4.6387,-4.5215,-4.4668,-4.3926,-4.2617,-4.1699,-4.1133,0.0,-4.0547,-4.0332,-4.0684,-4.0625,-4.0547,0.0,0.0,0.0,0.0,-4.2764,-4.4237,-4.6455,-4.9081,-5.1417,-5.3378,-5.395,-5.5374,-5.7497,-5.9374,-6.0781,-6.1836,-6.2353,-6.2865,-6.3346,-6.3346,-6.3346,-6.3346,-6.3346,-6.3346,-6.3346,-6.3346,-6.3346,-6.3346,-6.3346,-6.3346,-6.3346,-3.4523,-3.4629,-3.4723,-3.4723,-3.4857,-3.4963,-3.4963,-3.5097,-3.5191,-3.5191,-3.5191,-3.5191,-3.5191,-3.5191,-3.5191,-3.5191,-3.5191,-3.5124,-3.4977,-3.5787,-3.673,-3.7987,-3.8875,-4.0404,-4.2608,-4.264,-4.2961,-4.3728,-4.3728,-4.4027,-4.4619,-4.4619,-4.4911,-4.5506,-4.5506,-4.5805,-4.6158,-4.6158,-4.6269,-4.6452,-4.6452,-4.658,-4.6764,-4.7147,-4.7851,-4.8613,-4.8805,-4.9586,-5.0215,-5.0391,-5.0469,-5.0508,-5.0683,-5.0762,-5.0762,-5.0762,-5.0488,-5.0176,-5.0176,-5.0,-4.9824,-4.9824,-4.9492,-4.916,-4.916,-4.9004,-4.8789,-4.8555,-4.834,-4.8008,-4.7344,-4.707,-4.6504,-4.5234,-4.4492,-4.3691,-4.2578,-4.1875,-4.1465,-4.1465,-4.1601,-4.1699,-4.1738,-4.1933,-4.2051,-4.2051,-4.2051,0.0,-4.3281,-4.4092,-4.5191,-4.6741,-4.8773,-5.0477,-5.2124,-5.349,-5.5159,-5.6753,-5.9168,-6.0931,-6.1851,-6.2641,-6.3081,-6.3346,-6.3346,-6.3346,-6.3346,-6.3346,-6.3346,-6.3346,-6.3346,-6.3346,-6.3346,-6.3346,-6.3346,-6.3346,-3.483,-3.503,-3.5191,-3.5191,-3.5191,-3.5191,-3.5191,-3.5191,-3.5191,-3.5191,-3.5191,-3.5191,-3.5191,-3.5191,-3.5191,-3.5191,-3.5191,-3.5191,-3.5191,-3.5612,-3.6439,-3.7458,-3.8251,-3.9321,-4.0935,-4.1208,-4.1599,-4.2344,-4.2542,-4.2967,-4.3655,-4.3849,-4.4272,-4.5119,-4.5119,-4.568,-4.6371,-4.6371,-4.6782,-4.7112,-4.7112,-4.7149,-4.7185,-4.7765,-4.8362,-4.8803,-4.9378,-4.997,-5.043,-5.0781,-5.0898,-5.0957,-5.1308,-5.1426,-5.1426,-5.1426,-5.0918,-5.0371,-5.0371,-5.0312,-5.0254,-5.0195,-4.9902,-4.9629,-4.9629,-4.9277,-4.8965,-4.8965,-4.8613,-4.8183,-4.7754,-4.7324,-4.6601,-4.5332,-4.4375,-4.3516,-4.2637,0.0,-4.1953,-4.207,-4.2734,-4.3086,-4.2851,-4.3164,-4.3379,-4.3379,-4.3437,-4.3828,-4.4648,-4.543,-4.6264,-4.7207,-4.8298,-4.9658,-5.0936,-5.3305,-5.4856,-5.5885,-5.8881,-6.0791,-6.1794,-6.2776,-6.3169,-6.3346,-6.3346,-6.3346,-6.3346,-6.3346,-6.3346,-6.3346,-6.3346,-6.3346,-6.3346,-6.3346,-6.3346,-6.3346,-3.5124,-3.5164,-3.5191,-3.5191,-3.5191,-3.5191,-3.5191,-3.5191,-3.5191,-3.5191,-3.5191,-3.5191,-3.5191,-3.5191,-3.5191,-3.5191,-3.5191,-3.5191,-3.5191,-3.5612,-3.6243,-3.7068,-3.7652,-3.8441,-3.9668,-3.9745,-3.9829,-3.9551,-4.0153,-4.0921,-4.185,-4.2854,-4.3837,-4.478,-4.5169,-4.5787,-4.6423,-4.6423,-4.6652,-4.7112,-4.7112,-4.7314,-4.7607,-4.8192,-4.9001,-4.9693,-5.0259,-5.0843,-5.125,-5.1308,-5.1328,-5.1348,-5.1406,-5.1426,-5.1426,-5.1426,-5.1348,-5.123,-5.123,-5.0976,-5.0625,-5.0273,-5.0137,-5.0078,-5.0078,-4.9746,-4.9414,-4.9414,-4.9062,-4.8613,-4.8183,-4.7773,-4.7051,-4.5781,-4.4844,-4.3984,-4.3105,0.0,-4.2598,-4.332,-4.3516,-4.3867,-4.4551,-4.4687,-4.4726,-4.4726,-4.5058,-4.5488,-4.5976,-4.6465,-4.707,-4.7954,-4.8672,-4.9713,-5.0984,-5.2574,-5.4111,-5.5429,-5.796,-5.9903,-6.1265,-6.2232,-6.2967,-6.3346,-6.3346,-6.3346,-6.3346,-6.3346,-6.3346,-6.3346,-6.3346,-6.3346,-6.3346,-6.3346,-6.3346,-6.3346,-3.5191,-3.5191,-3.5191,-3.5191,-3.5191,-3.5191,-3.5191,-3.5191,-3.5191,-3.5191,-3.5191,-3.5191,-3.5191,-3.5191,-3.5191,-3.5191,-3.5191,-3.5191,-3.5191,-3.5401,-3.5612,-3.6033,-3.6453,-3.7068,-3.7889,-3.8146,-3.8207,-3.8281,-3.8471,-3.9404,-4.0435,-4.1039,-4.2144,-4.376,-4.4153,-4.506,-4.6626,-4.6626,-4.7143,-4.7736,-4.7736,-4.7846,-4.8011,-4.9011,-4.9516,-5.0078,-5.0861,-5.1231,-5.1426,-5.1426,-5.1426,-5.1426,-5.1426,-5.1426,-5.1426,-5.1426,-5.1426,-5.1426,-5.1426,-5.1289,-5.1094,-5.0898,-5.0683,-5.0508,-5.0508,-5.0176,-4.9805,-4.957,-4.9355,-4.9004,-4.834,-4.7871,-4.7246,-4.6191,-4.5098,0.0,0.0,-4.3242,-4.3359,-4.4004,-4.4687,-4.5254,-4.5683,-4.5918,-4.6055,-4.6055,-4.623,-4.6543,-4.6973,-4.7383,-4.791,-4.8535,-4.8993,-4.9492,-5.0258,-5.1837,-5.3385,-5.4921,-5.738,-5.9477,-6.1202,-6.2255,-6.279,-6.3346,-6.3346,-6.3346,-6.3346,-6.3346,-6.3346,-6.3346,-6.3346,-6.3346,-6.3346,-6.3346,-6.3346,-6.3346,-3.5191,-3.5191,-3.5191,-3.5191,-3.5191,-3.5191,-3.5191,-3.5191,-3.5191,-3.5191,-3.5191,-3.5191,-3.5191,-3.5191,-3.5191,-3.5191,-3.5191,-3.5191,-3.5191,-3.5191,-3.5191,-3.5191,-3.5612,-3.6033,-3.6439,-3.6439,-3.6649,-3.7068,-3.7277,-3.7774,-3.8971,-3.9176,-4.0451,-4.2409,-4.2608,-4.4169,-4.6232,-4.6448,-4.7005,-4.8088,-4.8088,-4.8286,-4.8484,-4.9292,-4.9882,-5.0078,-5.0861,-5.1231,-5.1426,-5.1426,-5.1426,-5.1426,-5.1426,-5.1426,-5.1426,-5.1426,-5.1426,-5.1426,-5.1426,-5.1426,-5.1426,-5.1426,-5.1191,-5.0957,-5.0957,-5.0625,-5.0234,-4.9902,-4.9668,-4.9316,-4.8633,-4.8086,-4.7441,-4.6582,0.0,0.0,0.0,-4.4101,-4.4336,-4.4785,-4.5801,-4.6484,-4.6582,-4.6894,-4.709,-4.709,-4.7168,-4.7363,-4.7715,-4.8223,-4.8711,-4.916,-4.9492,-4.9726,-4.9824,-5.1399,-5.2918,-5.4341,-5.6738,-5.8948,-6.0817,-6.1897,-6.279,-6.3346,-6.3346,-6.3346,-6.3346,-6.3346,-6.3346,-6.3346,-6.3346,-6.3346,-6.3346,-6.3346,-6.3346,-6.3346,-3.5191,-3.5191,-3.5191,-3.5191,-3.5191,-3.5191,-3.5191,-3.5191,-3.5191,-3.5191,-3.5191,-3.5191,-3.5191,-3.5191,-3.5191,-3.5191,-3.5191,-3.5191,-3.5191,-3.5191,-3.5191,-3.5191,-3.5204,-3.5191,-3.5401,-3.5401,-3.5401,-3.5401,-3.5823,-3.6439,-3.7026,-3.8054,-3.9285,-4.0492,-4.1518,-4.2774,-4.443,-4.5036,-4.6058,-4.7509,-4.7509,-4.7907,-4.8286,-4.8879,-4.9489,-4.9882,-5.047,-5.1037,-5.1426,-5.1426,-5.1426,-5.1426,-5.1426,-5.1426,-5.1426,-5.1426,-5.1426,-5.1426,-5.1426,-5.1426,-5.1426,-5.1426,-5.1406,-5.1387,-5.1387,-5.1055,-5.0742,-5.0723,-5.0078,-4.9512,-4.9433,-4.873,-4.7891,-4.7031,0.0,0.0,-4.5039,-4.5273,-4.5683,-4.6113,-4.6582,-4.7051,-4.7441,-4.7519,-4.7539,-4.7539,-4.7891,-4.8125,-4.8164,-4.8965,-4.9629,-5.0078,-5.0117,-5.0312,-5.0703,-5.1336,-5.2319,-5.3869,-5.5765,-5.7841,-5.9886,-6.1359,-6.2457,-6.3346,-6.3346,-6.3346,-6.3346,-6.3346,-6.3346,-6.3346,-6.3346,-6.3346,-6.3346,-6.3346,-6.3346,-6.3346,-3.5191,-3.5191,-3.5191,-3.5191,-3.5191,-3.5191,-3.5191,-3.5191,-3.5191,-3.5191,-3.5191,-3.5191,-3.5191,-3.5364,-3.5458,-3.5458,-3.5631,-3.5738,-3.5738,-3.5738,-3.5578,-3.5217,-3.5191,-3.5191,-3.5191,-3.5191,-3.5191,-3.5191,-3.5401,-3.5823,-3.6453,-3.6859,-3.7681,-3.9122,-3.995,-4.1392,-4.3231,-4.4262,-4.5473,-4.7093,-4.731,-4.7907,-4.8286,-4.8879,-4.9292,-4.9489,-5.0451,-5.0842,-5.1037,-5.1231,-5.1426,-5.1426,-5.1426,-5.1426,-5.1426,-5.1426,-5.1426,-5.1426,-5.1426,-5.1426,-5.1426,-5.1426,-5.1426,-5.1426,-5.1426,-5.1308,-5.1113,-5.0859,-5.0547,-5.0156,-4.9629,-4.9023,-4.8418,-4.7812,0.0,-4.6582,-4.625,-4.6348,-4.6621,-4.7051,-4.7461,-4.7891,-4.832,-4.8379,-4.8496,-4.8769,-4.8945,-4.9141,-4.9414,-5.0,-5.0391,-5.0566,-5.082,-5.0898,-5.0801,-5.1247,-5.2235,-5.374,-5.5031,-5.6911,-5.9338,-6.0817,-6.1921,-6.279,-6.3145,-6.3346,-6.3346,-6.3346,-6.3346,-6.3346,-6.3346,-6.3346,-6.3346,-6.3346,-6.3346,-6.3346,-3.5191,-3.5191,-3.5191,-3.5191,-3.5191,-3.5191,-3.5191,-3.5191,-3.5231,-3.5324,-3.5338,-3.5364,-3.5458,-3.5645,-3.5765,-3.5765,-3.5952,-3.6072,-3.6072,-3.6072,-3.5899,-3.5485,-3.5471,-3.5471,-3.5471,-3.5378,-3.5338,-3.5338,-3.5244,-3.5455,-3.5959,-3.5959,-3.6633,-3.7981,-3.8597,-3.9852,-4.1913,-4.3165,-4.4598,-4.6223,-4.7066,-4.787,-4.8471,-4.907,-4.9269,-4.9468,-5.0261,-5.0853,-5.105,-5.1444,-5.1543,-5.1641,-5.1641,-5.1543,-5.1426,-5.1426,-5.1426,-5.1426,-5.1426,-5.1426,-5.1426,-5.1426,-5.1426,-5.1426,-5.1426,-5.1426,-5.1348,-5.1055,-5.0898,-5.0625,-5.0039,-4.957,-4.9082,-4.8516,-4.793,-4.7441,-4.7168,-4.7246,-4.748,-4.793,-4.8359,-4.8789,-4.9238,-4.9277,-4.9394,-4.9707,-4.9726,-4.9922,-5.0351,-5.0644,-5.0859,-5.0996,-5.1289,-5.1289,-5.0996,-5.1289,-5.2008,-5.3144,-5.4652,-5.635,-5.858,-6.0273,-6.1538,-6.2434,-6.279,-6.3145,-6.3145,-6.3169,-6.3346,-6.3346,-6.3346,-6.3346,-6.3346,-6.3346,-6.3346,-6.3346,-3.5191,-3.5191,-3.5191,-3.5204,-3.5204,-3.5204,-3.5204,-3.5204,-3.5311,-3.5591,-3.5631,-3.5738,-3.6046,-3.6072,-3.6072,-3.6072,-3.6086,-3.6086,-3.6086,-3.6086,-3.6086,-3.6086,-3.6072,-3.6072,-3.6072,-3.5778,-3.5631,-3.5631,-3.5351,-3.5351,-3.5631,-3.5631,-3.6006,-3.6936,-3.7554,-3.8626,-4.0331,-4.1406,-4.3286,-4.5355,-4.663,-4.7659,-4.8682,-4.9293,-4.992,-5.0325,-5.0325,-5.0931,-5.1935,-5.1935,-5.2044,-5.209,-5.209,-5.1797,-5.1445,-5.1445,-5.1445,-5.1445,-5.1445,-5.1426,-5.1426,-5.1426,-5.1426,-5.1426,-5.1426,-5.1426,-5.1426,-5.1426,-5.1094,-5.0801,-5.0801,-5.0469,-4.9902,-4.9004,-4.8867,-4.8574,-4.7715,-4.7969,-4.8379,-4.8808,-4.9258,-4.9707,-5.0137,-5.0176,-5.0176,-5.0176,-5.0195,-5.0371,-5.0781,-5.0801,-5.0996,-5.1426,-5.1426,-5.1426,-5.1426,-5.1426,-5.162,-5.2181,-5.4271,-5.5974,-5.7448,-5.9521,-6.1021,-6.1921,-6.2434,-6.2612,-6.2612,-6.3169,-6.3346,-6.3346,-6.3346,-6.3346,-6.3346,-6.3346,-6.3346,-6.3346,-3.5191,-3.5191,-3.5257,-3.5458,-3.5498,-3.5565,-3.5778,-3.5805,-3.5845,-3.5925,-3.5939,-3.5979,-3.6059,-3.6259,-3.638,-3.638,-3.658,-3.6687,-3.6687,-3.6687,-3.6687,-3.6687,-3.6286,-3.6072,-3.6072,-3.5979,-3.5939,-3.5939,-3.5859,-3.5859,-3.5939,-3.5939,-3.5992,-3.6288,-3.6922,-3.7568,-3.8626,-4.0119,-4.1813,-4.3688,-4.5147,-4.6407,-4.7659,-4.8478,-4.9089,-4.9293,-5.0123,-5.0527,-5.0931,-5.1735,-5.1839,-5.1942,-5.2321,-5.2422,-5.2324,-5.2324,-5.2129,-5.1894,-5.1894,-5.166,-5.1426,-5.1426,-5.1426,-5.1426,-5.1426,-5.1426,-5.1426,-5.1426,-5.1328,-5.1152,-5.0859,-5.0703,-5.043,-4.9883,-4.9785,-4.9687,-4.9433,-4.9512,-4.9648,-4.9766,-4.9902,-5.0039,-5.0176,-5.0176,-5.0293,-5.0586,-5.0898,-5.1113,-5.123,-5.125,-5.1308,-5.1426,-5.1426,-5.1426,-5.1426,-5.1426,-5.162,-5.2201,-5.3528,-5.4672,-5.5974,-5.8396,-5.9703,-6.0432,-6.1897,-6.2612,-6.2612,-6.3169,-6.3346,-6.3346,-6.3346,-6.3346,-6.3346,-6.3346,-6.3346,-6.3346,-3.5538,-3.5538,-3.5591,-3.5778,-3.5805,-3.5872,-3.6046,-3.6072,-3.6112,-3.6233,-3.6246,-3.6286,-3.6393,-3.658,-3.6687,-3.6687,-3.6834,-3.6941,-3.6941,-3.6941,-3.6941,-3.6941,-3.6607,-3.6393,-3.6393,-3.6299,-3.6246,-3.6246,-3.6126,-3.6126,-3.6246,-3.6246,-3.6299,-3.6406,-3.6856,-3.7278,-3.7916,-3.9214,-4.072,-4.2414,-4.411,-4.5583,-4.6871,-4.81,-4.8721,-4.8927,-4.9768,-5.0196,-5.0606,-5.1828,-5.232,-5.2548,-5.2574,-5.2715,-5.2715,-5.2715,-5.2519,-5.2324,-5.2324,-5.2012,-5.1699,-5.1699,-5.1562,-5.1426,-5.1426,-5.1426,-5.1426,-5.1426,-5.1426,-5.1348,-5.1094,-5.1055,-5.0918,-5.0488,-5.043,-5.0371,-5.0195,-5.0176,-5.0234,-5.041,-5.043,-5.0488,-5.0664,-5.0664,-5.0781,-5.1035,-5.1289,-5.1426,-5.1426,-5.1426,-5.1426,-5.1426,-5.1426,-5.1426,-5.1426,-5.1426,-5.162,-5.1814,-5.2972,-5.391,-5.4652,-5.7098,-5.8396,-5.9132,-6.1155,-6.2077,-6.2434,-6.2991,-6.3346,-6.3346,-6.3346,-6.3346,-6.3346,-6.3346,-6.3346,-6.3346,-3.6072,-3.6072,-3.6086,-3.6099,-3.6112,-3.6126,-3.6139,-3.6153,-3.6246,-3.65,-3.654,-3.6647,-3.6901,-3.6941,-3.6941,-3.6941,-3.6941,-3.6941,-3.6941,-3.6941,-3.6941,-3.6941,-3.6941,-3.6941,-3.6941,-3.6687,-3.654,-3.654,-3.6273,-3.6286,-3.654,-3.654,-3.6687,-3.6941,-3.6941,-3.7162,-3.7825,-3.8459,-3.9556,-4.1303,-4.3037,-4.4758,-4.6252,-4.7525,-4.8386,-4.8807,-4.9663,-5.029,-5.0725,-5.1969,-5.2935,-5.3359,-5.2949,-5.2832,-5.2832,-5.2832,-5.2793,-5.2773,-5.2773,-5.2461,-5.2129,-5.2129,-5.1816,-5.1484,-5.1445,-5.1426,-5.1426,-5.1426,-5.1426,-5.1426,-5.1426,-5.1426,-5.1308,-5.0918,-5.0859,-5.0723,-5.0351,-5.0293,-5.043,-5.082,-5.0859,-5.1016,-5.1387,-5.1426,-5.1426,-5.1426,-5.1426,-5.1426,-5.1426,-5.1426,-5.1426,-5.1426,-5.1426,-5.1426,-5.1426,-5.1426,-5.1426,-5.1426,-5.2414,-5.3165,-5.3699,-5.5577,-5.7098,-5.8211,-6.025,-6.1382,-6.1921,-6.2814,-6.3169,-6.3169,-6.3346,-6.3346,-6.3346,-6.3346,-6.3346,-6.3346,-3.6072,-3.6072,-3.6139,-3.6366,-3.6393,-3.65,-3.6727,-3.6754,-3.6754,-3.6834,-3.6834,-3.6861,-3.6941,-3.6941,-3.6941,-3.6941,-3.6941,-3.6941,-3.6941,-3.6941,-3.6941,-3.6941,-3.6941,-3.6941,-3.6941,-3.6861,-3.6834,-3.6834,-3.6794,-3.6794,-3.6834,-3.6834,-3.6861,-3.6941,-3.6941,-3.6941,-3.7149,-3.7825,-3.8486,-3.9351,-4.1085,-4.2388,-4.3484,-4.5826,-4.6889,-4.7313,-4.9226,-4.9872,-5.029,-5.1969,-5.3147,-5.3867,-5.3769,-5.375,-5.375,-5.375,-5.3496,-5.3223,-5.3223,-5.291,-5.2578,-5.2578,-5.2266,-5.1855,-5.1504,-5.1426,-5.1426,-5.1426,-5.1426,-5.1426,-5.1426,-5.1426,-5.1406,-5.1308,-5.1289,-5.1269,-5.1172,-5.1152,-5.1191,-5.1289,-5.1289,-5.1328,-5.1426,-5.1426,-5.1426,-5.1426,-5.1426,-5.1426,-5.1426,-5.1426,-5.1426,-5.1426,-5.1426,-5.1426,-5.1426,-5.1426,-5.1426,-5.1426,-5.2008,-5.2394,-5.2567,-5.4652,-5.5786,-5.6537,-5.8948,-6.0273,-6.084,-6.2255,-6.279,-6.279,-6.3169,-6.3346,-6.3346,-6.3346,-6.3346,-6.3346,-3.6473,-3.6473,-3.654,-3.6687,-3.6727,-3.6754,-3.6901,-3.6941,-3.6941,-3.6941,-3.6941,-3.6941,-3.6941,-3.6941,-3.6941,-3.6941,-3.6941,-3.6941,-3.6941,-3.6941,-3.6941,-3.6941,-3.6941,-3.6941,-3.6941,-3.6941,-3.6941,-3.6941,-3.6941,-3.6941,-3.6941,-3.6941,-3.6941,-3.6941,-3.6941,-3.6941,-3.6941,-3.7162,-3.7825,-3.8472,-3.9556,-4.0649,-4.1535,-4.3684,-4.4758,-4.5613,-4.7525,-4.9226,-5.0517,-5.1969,-5.2999,-5.3615,-5.3819,-5.4023,-5.4023,-5.4023,-5.3867,-5.3672,-5.3672,-5.3359,-5.3008,-5.3008,-5.2695,-5.2266,-5.1836,-5.1582,-5.1426,-5.1426,-5.1426,-5.1426,-5.1426,-5.1426,-5.1426,-5.1426,-5.1426,-5.1426,-5.1426,-5.1426,-5.1426,-5.1426,-5.1426,-5.1426,-5.1426,-5.1426,-5.1426,-5.1426,-5.1426,-5.1426,-5.1426,-5.1426,-5.1426,-5.1426,-5.1426,-5.1426,-5.1426,-5.1426,-5.1426,-5.1426,-5.162,-5.1814,-5.1814,-5.3719,-5.4862,-5.5786,-5.8211,-5.9726,-6.0659,-6.2077,-6.2612,-6.2612,-6.3145,-6.3346,-6.3346,-6.3346,-6.3346,-6.3346,-3.6941,-3.6941,-3.6941,-3.6941,-3.6941,-3.6941,-3.6941,-3.6941,-3.6941,-3.6941,-3.6941,-3.6941,-3.6941,-3.6941,-3.6941,-3.6941,-3.6981,-3.7008,-3.7008,-3.7048,-3.7048,-3.7008,-3.7008,-3.6981,-3.6941,-3.6941,-3.6941,-3.6941,-3.6941,-3.6941,-3.6941,-3.6941,-3.6941,-3.6941,-3.6941,-3.6941,-3.6941,-3.6941,-3.7162,-3.7604,-3.8266,-3.9118,-3.9994,-4.1318,-4.262,-4.3684,-4.5613,-4.8158,-5.0933,-5.1969,-5.2588,-5.339,-5.3819,-5.4023,-5.4023,-5.4023,-5.4023,-5.4023,-5.4023,-5.375,-5.3476,-5.3476,-5.3144,-5.2734,-5.2383,-5.1914,-5.1543,-5.1543,-5.1484,-5.1426,-5.1426,-5.1426,-5.1426,-5.1426,-5.1426,-5.1426,-5.1426,-5.1426,-5.1426,-5.1426,-5.1426,-5.1426,-5.1426,-5.1426,-5.1426,-5.1426,-5.1426,-5.1426,-5.1426,-5.1426,-5.1426,-5.1426,-5.1426,-5.1426,-5.1426,-5.1426,-5.1426,-5.1426,-5.1426,-5.1426,-5.1426,-5.278,-5.391,-5.5031,-5.747,-5.9154,-6.0273,-6.1897,-6.2434,-6.2612,-6.3169,-6.3346,-6.3346,-6.3346,-6.3346,-6.3346,-3.6941,-3.6941,-3.6941,-3.6941,-3.6941,-3.6941,-3.6941,-3.6941,-3.6941,-3.6941,-3.6941,-3.6941,-3.6941,-3.6941,-3.6941,-3.6941,-3.7168,-3.7315,-3.7315,-3.7555,-3.7595,-3.7342,-3.7315,-3.7195,-3.6941,-3.6941,-3.6941,-3.6941,-3.6941,-3.6941,-3.6941,-3.6941,-3.6941,-3.6941,-3.6941,-3.6941,-3.6941,-3.6941,-3.6941,-3.7149,-3.7591,-3.8046,-3.828,-4.0009,-4.1085,-4.1939,-4.4741,-4.7947,-5.0706,-5.133,-5.2363,-5.339,-5.3819,-5.4023,-5.4023,-5.4023,-5.4023,-5.4023,-5.4023,-5.3984,-5.3945,-5.3945,-5.3594,-5.3262,-5.3203,-5.2578,-5.1992,-5.1992,-5.1699,-5.1426,-5.1426,-5.1426,-5.1426,-5.1426,-5.1426,-5.1426,-5.1426,-5.1426,-5.1426,-5.1426,-5.1426,-5.1426,-5.1426,-5.1426,-5.1426,-5.1426,-5.1426,-5.1426,-5.1426,-5.1426,-5.1426,-5.1426,-5.1426,-5.1426,-5.1426,-5.1426,-5.1426,-5.1426,-5.1426,-5.1426,-5.1426,-5.2008,-5.2952,-5.4101,-5.6162,-5.7678,-5.8831,-6.1021,-6.1921,-6.21,-6.2991,-6.3346,-6.3346,-6.3346,-6.3346,-6.3346,-3.6941,-3.6941,-3.6941,-3.6941,-3.6941,-3.6941,-3.6941,-3.6941,-3.6941,-3.6941,-3.6941,-3.6941,-3.6941,-3.6941,-3.7008,-3.7155,-3.7301,-3.7448,-3.7595,-3.7742,-3.7742,-3.7635,-3.7635,-3.7555,-3.7422,-3.7275,-3.7195,-3.7195,-3.7008,-3.6941,-3.6941,-3.6941,-3.6941,-3.6941,-3.6941,-3.6941,-3.6941,-3.6941,-3.6941,-3.6941,-3.7162,-3.7397,-3.7383,-3.8486,-3.9337,-4.0213,-4.3883,-4.6872,-4.9436,-5.0706,-5.1744,-5.2794,-5.341,-5.3819,-5.4023,-5.4023,-5.4023,-5.4023,-5.4023,-5.4023,-5.4023,-5.4023,-5.3887,-5.373,-5.373,-5.3242,-5.2656,-5.2187,-5.1933,-5.1719,-5.1484,-5.1426,-5.1426,-5.1426,-5.1426,-5.1426,-5.1426,-5.1426,-5.1426,-5.1426,-5.1426,-5.1426,-5.1426,-5.1426,-5.1426,-5.1426,-5.1426,-5.1426,-5.1426,-5.1426,-5.1426,-5.1426,-5.1426,-5.1426,-5.1426,-5.1426,-5.1426,-5.1426,-5.1426,-5.1426,-5.1426,-5.2008,-5.276,-5.374,-5.5786,-5.747,-5.8809,-6.1021,-6.21,-6.2434,-6.2991,-6.3346,-6.3346,-6.3346,-6.3346,-6.3346]}]]